ftp/pub/palmer/observations_modified/2019/June/AR190427_BASE.txt
Download
Sample DateTime Unit Id WS Avg 2min WD Avg 2min WGS 10min WGD 10min Air Temp Rel Humidity Dew Point Pyranometer Quantum Air Pressure Snow Level Rainfall PW Current Visibility CBase 1 CBase 2 CBase 3 Vert Vis
2019/04/27 00:00:00 BASE 11.62 350 14.71 352 1.5 100 1.5 0 0 980.3 NA 0.0000 9999 3510 4950 0 0
2019/04/27 00:01:01 BASE 12.27 348 14.71 352 1.5 100 1.5 0 0 980.3 NA 0.0000 9999 5450 0 0 0
2019/04/27 00:02:00 BASE 12.61 348 14.71 352 1.4 100 1.4 0 0 980.3 NA 0.0000 9999 5450 0 0 0
2019/04/27 00:03:00 BASE 12.35 348 14.30 349 1.4 100 1.4 0 0 980.3 NA 0.0000 9999 5480 0 0 0
2019/04/27 00:04:00 BASE 12.60 350 14.40 354 1.4 100 1.4 0 0 980.3 NA 0.0000 9999 5640 0 0 0
2019/04/27 00:05:00 BASE 12.98 351 14.82 353 1.4 100 1.4 0 0 980.2 NA 0.0000 9999 5450 0 0 0
2019/04/27 00:06:00 BASE 13.41 352 15.54 354 1.4 100 1.4 0 0 980.2 NA 0.0000 9999 5410 0 0 0
2019/04/27 00:07:00 BASE 13.06 352 15.54 354 1.4 100 1.4 0 0 980.2 NA 0.0000 9999 5090 0 0 0
2019/04/27 00:08:00 BASE 12.07 353 15.54 354 1.4 100 1.4 0 0 980.2 NA 0.0000 9999 5640 0 0 0
2019/04/27 00:09:00 BASE 11.96 350 15.54 354 1.4 100 1.4 0 0 980.2 NA 0.0000 9999 5380 6100 0 0
2019/04/27 00:10:00 BASE 12.28 352 15.54 354 1.4 100 1.4 0 0 980.1 NA 0.0000 9999 5910 0 0 0
2019/04/27 00:11:00 BASE 13.16 1 15.84 354 1.4 100 1.4 0 0 980.1 NA 0.0000 9999 5770 0 0 0
2019/04/27 00:12:00 BASE 14.04 356 16.77 354 1.4 100 1.4 0 0 980.1 NA 0.0000 9999 5810 0 0 0
2019/04/27 00:13:00 BASE 13.58 350 16.77 354 1.4 100 1.4 0 0 980.1 NA 0.0000 9999 5580 0 0 0
2019/04/27 00:14:00 BASE 13.29 348 16.77 354 1.4 100 1.4 0 0 980.1 NA 0.0000 9999 5580 6560 0 0
2019/04/27 00:15:00 BASE 13.79 349 16.77 354 1.5 100 1.5 0 0 980.0 NA 0.0000 9999 5510 0 0 0
2019/04/27 00:16:01 BASE 13.81 353 16.77 354 1.5 100 1.5 0 0 980.0 NA 0.0000 9999 5480 0 0 0
2019/04/27 00:17:00 BASE 13.07 355 16.77 354 1.5 100 1.5 0 0 980.1 NA 0.0000 9999 5350 0 0 0
2019/04/27 00:18:00 BASE 12.71 356 16.77 354 1.5 100 1.5 0 0 980.0 NA 0.0000 9999 5910 0 0 0
2019/04/27 00:19:00 BASE 13.02 356 16.77 354 1.5 100 1.5 0 0 980.0 NA 0.0000 9999 5770 0 0 0
2019/04/27 00:20:00 BASE 13.11 352 16.77 354 1.5 100 1.5 0 0 980.0 NA 0.0000 9999 5640 0 0 0
2019/04/27 00:21:00 BASE 12.97 349 16.77 354 1.5 100 1.5 0 0 980.0 NA 0.0000 9999 5480 0 0 0
2019/04/27 00:22:00 BASE 12.59 351 15.38 3 1.5 100 1.5 0 0 980.0 NA 0.0000 9999 6330 0 0 0
2019/04/27 00:23:00 BASE 11.92 348 15.28 353 1.5 100 1.5 0 0 980.0 NA 0.0000 9999 5510 0 0 0
2019/04/27 00:24:00 BASE 11.11 347 15.28 353 1.5 100 1.5 0 0 980.1 NA 0.0000 9999 5450 0 0 0
2019/04/27 00:25:00 BASE 10.78 348 15.28 353 1.4 100 1.4 0 0 980.1 NA 0.0000 9999 1280 5410 0 0
2019/04/27 00:26:00 BASE 10.61 348 14.87 350 1.4 100 1.4 0 0 980.1 NA 0.0000 9999 1310 5280 0 0
2019/04/27 00:27:00 BASE 10.40 350 14.87 350 1.4 100 1.4 0 0 980.1 NA 0.0000 9999 1150 0 0 0
2019/04/27 00:28:00 BASE 10.47 348 14.51 349 1.4 100 1.4 0 0 980.1 NA 0.0000 9999 1120 0 0 0
2019/04/27 00:29:00 BASE 10.92 352 14.51 349 1.4 100 1.4 0 0 980.1 NA 0.0000 9999 1210 0 0 0
2019/04/27 00:30:00 BASE 11.32 354 13.84 352 1.4 100 1.4 0 0 980.1 NA 0.0000 9999 1120 0 0 0
2019/04/27 00:31:00 BASE 11.58 351 13.84 352 1.4 100 1.4 0 0 980.1 NA 0.0000 9999 1250 0 0 0
2019/04/27 00:32:00 BASE 11.67 347 13.38 360 1.4 100 1.4 0 0 980.1 NA 0.0000 9999 1180 0 0 0
2019/04/27 00:33:00 BASE 11.42 350 13.38 360 1.4 100 1.4 0 0 980.1 NA 0.0000 9999 1210 0 0 0
2019/04/27 00:34:00 BASE 10.82 352 13.38 360 1.4 100 1.4 0 0 980.0 NA 0.0000 9999 1080 0 0 0
2019/04/27 00:35:00 BASE 10.56 358 13.38 360 1.4 100 1.4 0 0 980.0 NA 0.0000 9999 1350 5640 0 0
2019/04/27 00:36:00 BASE 10.28 358 13.38 360 1.4 100 1.4 0 0 980.0 NA 0.0000 9999 3310 5380 0 0
2019/04/27 00:37:00 BASE 9.95 355 13.38 360 1.4 100 1.4 0 0 980.0 NA 0.0000 9999 3940 4950 0 0
2019/04/27 00:38:00 BASE 10.19 357 13.38 360 1.4 100 1.4 0 0 980.0 NA 0.0000 9999 3080 5350 0 0
2019/04/27 00:39:00 BASE 11.27 354 14.10 352 1.4 100 1.4 0 0 979.9 NA 0.0000 9999 0 0 0 1900
2019/04/27 00:40:00 BASE 12.22 355 14.10 352 1.4 100 1.4 0 0 979.9 NA 0.0000 9999 0 0 0 1900
2019/04/27 00:41:00 BASE 12.41 353 14.10 352 1.4 100 1.4 0 0 979.9 NA 0.0000 9999 3280 4790 0 0
2019/04/27 00:42:00 BASE 12.06 345 14.10 352 1.4 100 1.4 0 0 979.9 NA 0.0000 9999 3220 4790 0 0
2019/04/27 00:43:00 BASE 12.02 350 14.25 354 1.4 100 1.4 0 0 979.9 NA 0.0000 9999 4690 0 0 0
2019/04/27 00:44:00 BASE 12.41 353 14.25 354 1.4 100 1.4 0 0 979.8 NA 0.0000 9999 4720 0 0 0
2019/04/27 00:45:00 BASE 12.31 355 14.56 352 1.4 100 1.4 0 0 979.8 NA 0.0000 9999 3510 4920 0 0
2019/04/27 00:46:00 BASE 12.56 359 14.56 352 1.4 100 1.4 0 0 979.8 NA 0.0000 9999 3610 0 0 0
2019/04/27 00:47:00 BASE 13.13 0 15.54 2 1.4 100 1.4 0 0 979.8 NA 0.0000 9999 5250 0 0 0
2019/04/27 00:48:00 BASE 13.50 356 15.54 2 1.4 100 1.4 0 0 979.8 NA 0.0000 9999 5050 0 0 0
2019/04/27 00:49:00 BASE 12.82 348 15.54 2 1.4 100 1.4 0 0 979.8 NA 0.0000 9999 5020 0 0 0
2019/04/27 00:50:00 BASE 12.10 352 15.54 2 1.4 100 1.4 0 0 979.8 NA 0.0000 9999 4690 0 0 0
2019/04/27 00:51:00 BASE 11.96 357 15.54 2 1.4 100 1.4 0 0 979.9 NA 0.0000 9999 2720 0 0 0
2019/04/27 00:52:00 BASE 11.99 357 15.54 2 1.4 100 1.4 0 0 979.8 NA 0.0000 9999 2620 0 0 0
2019/04/27 00:53:00 BASE 12.04 357 15.54 2 1.4 100 1.4 0 0 979.9 NA 0.0000 9999 2820 4990 0 0
2019/04/27 00:54:00 BASE 11.93 357 15.54 2 1.4 100 1.4 0 0 979.9 NA 0.0000 9999 2760 0 0 0
2019/04/27 00:55:00 BASE 12.57 352 15.54 2 1.4 100 1.4 0 0 979.8 NA 0.0000 9999 2690 5220 0 0
2019/04/27 00:56:00 BASE 12.81 351 15.84 354 1.5 100 1.5 0 0 979.8 NA 0.0000 9999 2850 0 0 0
2019/04/27 00:57:00 BASE 12.38 355 15.84 354 1.5 100 1.5 0 0 979.8 NA 0.0000 9999 2790 3740 0 0
2019/04/27 00:58:00 BASE 12.26 353 15.84 354 1.5 100 1.5 0 0 979.8 NA 0.0000 9999 2690 0 0 0
2019/04/27 00:59:00 BASE 11.87 357 15.84 354 1.5 100 1.5 0 0 979.8 NA 0.0000 9999 2790 0 0 0
2019/04/27 01:00:00 BASE 11.83 358 15.84 354 1.5 100 1.5 0 0 979.8 NA 0.0000 9999 3250 5090 0 0
2019/04/27 01:01:00 BASE 12.22 354 15.84 354 1.4 100 1.4 0 0 979.8 NA 0.0000 9999 1310 4630 0 0
2019/04/27 01:02:00 BASE 12.15 354 15.84 354 1.4 100 1.4 0 0 979.8 NA 0.0000 9999 1380 2950 0 0
2019/04/27 01:03:00 BASE 12.47 353 15.84 354 1.4 100 1.4 0 0 979.8 NA 0.0000 9999 1310 0 0 0
2019/04/27 01:04:00 BASE 12.40 354 15.84 354 1.4 100 1.4 0 0 979.8 NA 0.0000 9999 1280 0 0 0
2019/04/27 01:05:00 BASE 12.02 348 15.84 354 1.4 100 1.4 0 0 979.8 NA 0.0000 9999 1410 0 0 0
2019/04/27 01:06:01 BASE 12.37 348 14.61 353 1.4 100 1.4 0 0 979.8 NA 0.0000 9999 1180 0 0 0
2019/04/27 01:07:00 BASE 12.09 349 14.61 353 1.4 100 1.4 0 0 979.8 NA 0.0000 9999 1640 4950 0 0
2019/04/27 01:08:00 BASE 12.09 346 14.61 353 1.4 100 1.4 0 0 979.8 NA 0.0000 9999 2620 3640 0 0
2019/04/27 01:09:00 BASE 12.06 346 14.61 353 1.4 100 1.4 0 0 979.8 NA 0.0000 9999 1120 0 0 0
2019/04/27 01:10:00 BASE 11.43 345 14.61 353 1.4 100 1.4 0 0 979.8 NA 0.0000 9999 1250 2820 0 0
2019/04/27 01:11:00 BASE 11.05 348 14.61 353 1.4 100 1.4 0 0 979.8 NA 0.0000 9999 1250 1710 0 0
2019/04/27 01:12:01 BASE 11.63 348 14.61 353 1.4 100 1.4 0 0 979.8 NA 0.0000 9999 2920 4660 0 0
2019/04/27 01:13:00 BASE 12.10 345 14.30 1 1.4 100 1.4 0 0 979.8 NA 0.0000 9999 1180 4690 0 0
2019/04/27 01:14:00 BASE 11.29 344 14.30 1 1.3 100 1.3 0 0 979.9 NA 0.0000 9999 4690 0 0 0
2019/04/27 01:15:00 BASE 11.12 347 14.30 1 1.3 100 1.3 0 0 979.8 NA 0.0000 9999 1510 4760 0 0
2019/04/27 01:16:00 BASE 11.59 347 14.30 1 1.3 100 1.3 0 0 979.8 NA 0.0000 9999 1540 4360 0 0
2019/04/27 01:17:00 BASE 11.74 347 14.30 1 1.3 100 1.3 0 0 979.8 NA 0.0000 9999 1210 4460 0 0
2019/04/27 01:18:00 BASE 11.99 346 15.18 334 1.2 100 1.2 0 0 979.8 NA 0.0000 9999 4460 12630 0 0
2019/04/27 01:19:00 BASE 12.87 346 15.18 334 1.2 100 1.2 0 0 979.8 NA 0.0000 9999 4400 0 0 0
2019/04/27 01:20:00 BASE 12.91 344 15.18 334 1.2 100 1.2 0 0 979.9 NA 0.0000 9999 4400 0 0 0
2019/04/27 01:21:00 BASE 13.04 342 15.18 334 1.2 100 1.2 0 0 979.9 NA 0.0000 9999 4430 0 0 0
2019/04/27 01:22:00 BASE 13.39 347 15.18 334 1.2 100 1.2 0 0 979.9 NA 0.0000 9999 1180 4560 0 0
2019/04/27 01:23:00 BASE 13.06 345 15.18 334 1.2 100 1.2 0 0 979.8 NA 0.0000 9999 1180 4040 0 0
2019/04/27 01:24:00 BASE 13.89 350 16.20 348 1.2 100 1.2 0 0 979.8 NA 0.0000 9999 2990 3970 0 0
2019/04/27 01:25:00 BASE 13.77 356 16.20 348 1.3 100 1.3 0 0 979.9 NA 0.0000 9999 3480 0 0 0
2019/04/27 01:26:00 BASE 12.93 351 16.20 348 1.3 100 1.3 0 0 979.9 NA 0.0000 9999 2950 0 0 0
2019/04/27 01:27:00 BASE 12.24 350 16.20 348 1.3 100 1.3 0 0 979.9 NA 0.0000 9999 3380 0 0 0
2019/04/27 01:28:00 BASE 12.31 352 16.20 348 1.3 100 1.3 0 0 979.9 NA 0.0000 9999 3710 0 0 0
2019/04/27 01:29:00 BASE 13.07 352 16.20 348 1.3 100 1.3 0 0 979.9 NA 0.0000 9999 3640 4300 0 0
2019/04/27 01:30:01 BASE 12.98 351 16.20 348 1.3 100 1.3 0 0 979.9 NA 0.0000 9999 4230 0 0 0
2019/04/27 01:31:00 BASE 13.32 350 16.20 348 1.3 100 1.3 0 0 979.9 NA 0.0000 9999 3380 4490 0 0
2019/04/27 01:32:00 BASE 13.42 352 16.20 348 1.3 100 1.3 0 0 979.9 NA 0.0000 9999 3050 0 0 0
2019/04/27 01:33:00 BASE 13.25 353 16.20 348 1.3 100 1.3 0 0 979.9 NA 0.0000 9999 3480 4200 0 0
2019/04/27 01:34:00 BASE 13.60 355 15.18 1 1.3 100 1.3 0 0 979.9 NA 0.0000 9999 4170 0 0 0
2019/04/27 01:35:00 BASE 13.94 359 15.18 1 1.3 100 1.3 0 0 979.9 NA 0.0000 9999 3940 0 0 0
2019/04/27 01:36:00 BASE 13.66 360 15.90 354 1.3 100 1.3 0 0 979.9 NA 0.0000 9999 3740 0 0 0
2019/04/27 01:37:00 BASE 12.88 354 15.90 354 1.3 100 1.3 0 0 979.9 NA 0.0000 9999 3280 4000 0 0
2019/04/27 01:38:00 BASE 13.25 351 15.90 354 1.3 100 1.3 0 0 979.8 NA 0.0000 9999 3310 3770 0 0
2019/04/27 01:39:00 BASE 14.08 357 15.90 354 1.3 100 1.3 0 0 979.8 NA 0.0000 9999 3280 0 0 0
2019/04/27 01:40:00 BASE 14.79 358 16.51 1 1.3 100 1.3 0 0 979.8 NA 0.0000 9999 4230 0 0 0
2019/04/27 01:41:00 BASE 15.32 356 16.51 1 1.3 100 1.3 0 0 979.8 NA 0.0000 9999 3580 4950 0 0
2019/04/27 01:42:00 BASE 15.24 353 16.51 1 1.3 100 1.3 0 0 979.8 NA 0.0000 9999 3610 4790 0 0
2019/04/27 01:43:00 BASE 15.17 358 16.87 9 1.3 100 1.3 0 0 979.8 NA 0.0000 9999 3580 0 0 0
2019/04/27 01:44:00 BASE 15.22 5 16.87 9 1.3 100 1.3 0 0 979.8 NA 0.0000 9999 3810 12170 0 0
2019/04/27 01:45:00 BASE 15.37 5 16.87 9 1.3 100 1.3 0 0 979.8 NA 0.0000 9999 4630 0 0 0
2019/04/27 01:46:00 BASE 15.82 5 18.16 6 1.3 100 1.3 0 0 979.8 NA 0.0000 9999 3770 0 0 0
2019/04/27 01:47:00 BASE 16.24 7 18.16 6 1.3 100 1.3 0 1 979.7 NA 0.0000 9999 3740 12300 0 0
2019/04/27 01:48:00 BASE 15.78 9 18.16 6 1.3 100 1.3 0 0 979.8 NA 0.0000 9999 4720 12210 0 0
2019/04/27 01:49:00 BASE 15.11 9 18.16 6 1.3 100 1.3 0 0 979.7 NA 0.0000 9999 4070 0 0 0
2019/04/27 01:50:00 BASE 15.41 11 18.16 6 1.3 100 1.3 0 0 979.7 NA 0.0000 9999 4270 12270 0 0
2019/04/27 01:51:00 BASE 16.01 11 18.16 6 1.3 100 1.3 0 0 979.7 NA 0.0000 9999 12270 0 0 0
2019/04/27 01:52:00 BASE 16.28 10 18.16 6 1.3 100 1.3 0 0 979.7 NA 0.0000 9999 4100 0 0 0
2019/04/27 01:53:00 BASE 16.11 9 18.16 6 1.2 100 1.2 0 0 979.7 NA 0.0000 9999 3870 12210 0 0
2019/04/27 01:54:00 BASE 16.34 7 18.93 5 1.2 100 1.2 0 0 979.7 NA 0.0000 9999 3940 12340 0 0
2019/04/27 01:55:00 BASE 17.06 8 18.93 5 1.3 100 1.3 0 0 979.7 NA 0.0000 9999 12300 0 0 0
2019/04/27 01:56:00 BASE 17.25 9 18.93 5 1.3 100 1.3 0 0 979.6 NA 0.0000 9999 12210 0 0 0
2019/04/27 01:57:00 BASE 17.04 11 18.93 5 1.3 100 1.3 0 0 979.6 NA 0.0000 9999 3940 12270 0 0
2019/04/27 01:58:00 BASE 16.35 12 18.93 5 1.3 100 1.3 0 0 979.7 NA 0.0000 9999 8430 0 0 0
2019/04/27 01:59:00 BASE 16.73 11 18.93 5 1.3 100 1.3 0 0 979.6 NA 0.0000 9999 12270 0 0 0
2019/04/27 02:00:01 BASE 17.06 10 18.93 5 1.3 100 1.3 0 0 979.6 NA 0.0000 9999 12170 0 0 0
2019/04/27 02:01:00 BASE 16.51 11 18.93 5 1.2 100 1.2 0 0 979.6 NA 0.0000 9999 12110 0 0 0
2019/04/27 02:02:00 BASE 16.65 12 18.93 5 1.2 100 1.2 0 0 979.6 NA 0.0000 9999 12110 0 0 0
2019/04/27 02:03:00 BASE 17.39 10 18.93 5 1.2 100 1.2 0 0 979.6 NA 0.0000 9999 8140 12370 0 0
2019/04/27 02:04:00 BASE 17.79 8 18.88 8 1.2 100 1.2 0 0 979.6 NA 0.0000 9999 12370 0 0 0
2019/04/27 02:05:00 BASE 17.87 9 18.98 12 1.2 100 1.2 0 0 979.5 NA 0.0000 9999 12370 0 0 0
2019/04/27 02:06:00 BASE 18.50 8 19.81 4 1.2 100 1.2 0 0 979.5 NA 0.0000 9999 12370 0 0 0
2019/04/27 02:07:00 BASE 18.67 6 19.81 4 1.3 100 1.3 0 0 979.5 NA 0.0000 9999 12340 0 0 0
2019/04/27 02:08:00 BASE 18.33 6 19.81 4 1.3 100 1.3 0 0 979.4 NA 0.0000 9999 8370 0 0 0
2019/04/27 02:09:00 BASE 17.65 6 19.81 4 1.3 100 1.3 0 0 979.5 NA 0.0000 9999 8460 12530 0 0
2019/04/27 02:10:00 BASE 17.12 8 19.81 4 1.3 100 1.3 0 1 979.4 NA 0.0000 9999 8730 0 0 0
2019/04/27 02:11:00 BASE 17.25 7 19.81 4 1.3 100 1.3 0 0 979.4 NA 0.0000 9999 8890 12370 0 0
2019/04/27 02:12:00 BASE 17.21 5 19.81 4 1.2 100 1.2 0 0 979.5 NA 0.0000 9999 12530 0 0 0
2019/04/27 02:13:00 BASE 17.37 3 19.81 4 1.2 100 1.2 0 0 979.5 NA 0.0000 9999 12600 0 0 0
2019/04/27 02:14:00 BASE 17.59 3 19.81 4 1.2 100 1.2 0 0 979.4 NA 0.0000 9999 12470 0 0 0
2019/04/27 02:15:00 BASE 18.12 3 21.76 5 1.1 100 1.1 0 0 979.4 NA 0.0000 9999 12470 0 0 0
2019/04/27 02:16:00 BASE 19.05 360 21.76 5 1.1 100 1.1 0 0 979.4 NA 0.0000 9999 3810 0 0 0
2019/04/27 02:17:00 BASE 19.06 359 21.76 5 1.1 100 1.1 0 0 979.4 NA 0.0000 9999 12470 0 0 0
2019/04/27 02:18:00 BASE 18.20 358 21.76 5 1.1 100 1.1 0 0 979.4 NA 0.0000 9999 8170 12530 0 0
2019/04/27 02:19:00 BASE 17.44 359 21.76 5 1.2 100 1.2 0 0 979.5 NA 0.0000 9999 8240 12470 0 0
2019/04/27 02:20:01 BASE 16.98 357 21.76 5 1.2 100 1.2 0 0 979.5 NA 0.0000 9999 8240 0 0 0
2019/04/27 02:21:00 BASE 16.96 354 21.76 5 1.2 100 1.2 0 0 979.5 NA 0.0000 9999 3740 8240 0 0
2019/04/27 02:22:00 BASE 17.43 357 21.76 5 1.2 100 1.2 0 0 979.5 NA 0.0000 9999 3670 0 0 0
2019/04/27 02:23:00 BASE 18.31 357 21.76 5 1.2 100 1.2 0 0 979.5 NA 0.0000 9999 8330 0 0 0
2019/04/27 02:24:00 BASE 18.51 357 21.76 5 1.2 100 1.2 0 1 979.5 NA 0.0000 9999 0 0 0 0
2019/04/27 02:25:00 BASE 17.71 358 20.68 7 1.2 100 1.2 0 0 979.5 NA 0.0000 9999 8100 0 0 0
2019/04/27 02:26:00 BASE 16.44 356 20.37 360 1.2 100 1.2 0 0 979.6 NA 0.0000 9999 8270 0 0 0
2019/04/27 02:27:00 BASE 15.70 359 20.37 360 1.2 100 1.2 0 0 979.6 NA 0.0000 9999 8140 0 0 0
2019/04/27 02:28:00 BASE 16.97 3 20.17 3 1.2 100 1.2 0 0 979.5 NA 0.0000 9999 8240 0 0 0
2019/04/27 02:29:00 BASE 17.53 360 20.17 3 1.2 100 1.2 0 0 979.5 NA 0.0000 9999 0 0 0 890
2019/04/27 02:30:00 BASE 16.30 0 20.17 3 1.2 100 1.2 0 0 979.6 NA 0.0000 9999 7610 0 0 0
2019/04/27 02:31:00 BASE 17.06 359 20.17 3 1.2 100 1.2 0 0 979.5 NA 0.0000 9999 1080 0 0 0
2019/04/27 02:32:00 BASE 17.86 355 20.17 3 1.2 100 1.2 0 0 979.5 NA 0.0000 9999 7450 0 0 0
2019/04/27 02:33:00 BASE 16.48 354 20.06 3 1.2 100 1.2 0 0 979.6 NA 0.0000 9999 1150 7380 0 0
2019/04/27 02:34:00 BASE 15.19 355 20.06 3 1.2 100 1.2 0 0 979.6 NA 0.0000 9999 0 0 0 1310
2019/04/27 02:35:00 BASE 15.22 356 20.06 3 1.2 100 1.2 0 0 979.6 NA 0.0000 9999 1510 0 0 0
2019/04/27 02:36:00 BASE 15.48 354 20.06 3 1.2 100 1.2 0 0 979.5 NA 0.0000 9999 850 0 0 0
2019/04/27 02:37:00 BASE 15.68 354 20.06 3 1.2 100 1.2 0 0 979.5 NA 0.0000 9999 0 0 0 920
2019/04/27 02:38:00 BASE 15.84 358 19.86 360 1.2 100 1.2 0 0 979.5 NA 0.0000 9999 7250 0 0 0
2019/04/27 02:39:00 BASE 15.33 0 19.86 360 1.2 100 1.2 0 0 979.5 NA 0.0000 9999 7740 0 0 0
2019/04/27 02:40:00 BASE 15.28 360 19.86 360 1.2 100 1.2 0 0 979.5 NA 0.0000 9999 7680 0 0 0
2019/04/27 02:41:00 BASE 15.33 1 18.47 325 1.2 100 1.2 0 0 979.5 NA 0.0000 9999 7870 0 0 0
2019/04/27 02:42:00 BASE 15.95 2 19.14 5 1.2 100 1.2 0 0 979.4 NA 0.0000 9999 7840 0 0 0
2019/04/27 02:43:00 BASE 17.17 1 19.14 5 1.1 100 1.1 0 0 979.4 NA 0.0000 9999 7810 0 0 0
2019/04/27 02:44:00 BASE 17.68 4 19.14 5 1.1 100 1.1 0 0 979.4 NA 0.0000 9999 7710 0 0 0
2019/04/27 02:45:00 BASE 18.55 5 20.22 1 1.1 100 1.1 0 0 979.4 NA 0.0000 9999 0 0 0 0
2019/04/27 02:46:00 BASE 19.14 4 20.22 1 1.1 100 1.1 0 0 979.4 NA 0.0000 9999 6990 0 0 0
2019/04/27 02:47:00 BASE 18.15 4 20.22 1 1.1 100 1.1 0 0 979.4 NA 0.0000 9999 7510 0 0 0
2019/04/27 02:48:00 BASE 18.05 4 20.22 1 1.1 100 1.1 0 0 979.4 NA 0.0000 9999 0 0 0 0
2019/04/27 02:49:00 BASE 17.92 1 20.22 1 1.1 100 1.1 0 0 979.4 NA 0.0000 9999 13090 0 0 0
2019/04/27 02:50:00 BASE 17.46 360 20.22 1 1.1 100 1.1 0 0 979.4 NA 0.0000 9999 7840 0 0 0
2019/04/27 02:51:00 BASE 17.82 359 20.22 1 1.1 100 1.1 0 0 979.4 NA 0.0000 9999 6760 0 0 0
2019/04/27 02:52:00 BASE 17.32 357 20.22 1 1.1 100 1.1 0 0 979.4 NA 0.0000 9999 6820 0 0 0
2019/04/27 02:53:00 BASE 17.65 1 20.22 1 1.1 100 1.1 0 0 979.4 NA 0.0000 9999 6890 10930 0 0
2019/04/27 02:54:00 BASE 18.13 3 20.22 1 1.1 100 1.1 0 0 979.4 NA 0.0000 9999 6760 11160 0 0
2019/04/27 02:55:00 BASE 16.40 1 20.17 4 1.0 100 1.0 0 0 979.5 NA 0.0000 9999 6560 0 0 0
2019/04/27 02:56:00 BASE 15.52 1 20.17 4 1.0 100 1.0 0 0 979.5 NA 0.0000 9999 6460 0 0 0
2019/04/27 02:57:00 BASE 16.29 1 20.17 4 1.0 100 1.0 0 0 979.4 NA 0.0000 9999 6460 0 0 0
2019/04/27 02:58:00 BASE 16.70 359 20.17 4 1.0 100 1.0 0 0 979.4 NA 0.0000 9999 6460 0 0 0
2019/04/27 02:59:00 BASE 16.98 360 20.17 4 1.0 100 1.0 0 0 979.4 NA 0.0000 9999 6300 0 0 0
2019/04/27 03:00:00 BASE 17.74 1 20.73 2 1.0 100 1.0 0 0 979.4 NA 0.0000 9999 6560 0 0 0
2019/04/27 03:01:00 BASE 18.48 2 20.73 2 1.0 100 1.0 0 0 979.4 NA 0.0000 9999 6460 0 0 0
2019/04/27 03:02:00 BASE 18.50 2 20.73 2 1.0 100 1.0 0 0 979.4 NA 0.0000 9999 6730 0 0 0
2019/04/27 03:03:00 BASE 18.22 0 20.73 2 1.0 100 1.0 0 0 979.4 NA 0.0000 9999 6370 0 0 0
2019/04/27 03:04:00 BASE 17.93 3 20.73 2 1.1 100 1.1 0 0 979.4 NA 0.0000 9999 6790 0 0 0
2019/04/27 03:05:00 BASE 18.26 5 20.73 2 1.1 100 1.1 0 0 979.4 NA 0.0000 9999 6200 0 0 0
2019/04/27 03:06:00 BASE 19.08 5 21.25 6 1.1 100 1.1 0 0 979.4 NA 0.0000 9999 3770 0 0 0
2019/04/27 03:07:00 BASE 18.48 7 21.25 6 1.1 100 1.1 0 0 979.5 NA 0.0000 9999 4200 0 0 0
2019/04/27 03:08:00 BASE 18.24 7 21.25 6 1.1 100 1.1 0 0 979.5 NA 0.0000 9999 3280 0 0 0
2019/04/27 03:09:00 BASE 18.48 7 21.25 6 1.1 100 1.1 0 0 979.5 NA 0.0000 9999 6730 0 0 0
2019/04/27 03:10:00 BASE 18.41 6 21.25 6 1.1 100 1.1 0 0 979.5 NA 0.0000 9999 5580 0 0 0
2019/04/27 03:11:00 BASE 18.61 6 21.25 6 1.1 100 1.1 0 0 979.5 NA 0.0000 9999 6460 0 0 0
2019/04/27 03:12:00 BASE 17.87 7 21.25 6 1.1 100 1.1 0 0 979.6 NA 0.0000 9999 6400 0 0 0
2019/04/27 03:13:00 BASE 17.75 9 21.25 6 1.1 100 1.1 0 0 979.6 NA 0.0000 9999 0 0 0 6530
2019/04/27 03:14:00 BASE 17.32 10 21.25 6 1.1 100 1.1 0 0 979.6 NA 0.0000 9999 5220 0 0 0
2019/04/27 03:15:00 BASE 16.64 10 21.25 6 1.1 100 1.1 0 0 979.6 NA 0.0000 9999 0 0 0 3450
2019/04/27 03:16:00 BASE 16.59 11 20.47 4 1.1 100 1.1 0 0 979.6 NA 0.0000 9999 0 0 0 3050
2019/04/27 03:17:00 BASE 16.81 12 20.47 4 1.1 100 1.1 0 0 979.6 NA 0.0000 9999 0 0 0 2950
2019/04/27 03:18:00 BASE 16.95 13 20.47 4 1.1 100 1.1 0 0 979.6 NA 0.0000 9999 0 0 0 2950
2019/04/27 03:19:00 BASE 17.48 14 20.94 11 1.1 100 1.1 0 0 979.6 NA 0.0000 9999 0 0 0 2720
2019/04/27 03:20:00 BASE 18.53 15 20.94 11 1.1 100 1.1 0 0 979.6 NA 0.0000 9999 0 0 0 2400
2019/04/27 03:21:00 BASE 17.76 15 20.94 11 1.1 100 1.1 0 0 979.6 NA 0.0000 9999 0 0 0 2760
2019/04/27 03:22:00 BASE 17.71 17 20.94 11 1.1 100 1.1 0 0 979.6 NA 0.0000 9999 0 0 0 2590
2019/04/27 03:23:00 BASE 19.12 19 20.94 11 1.1 100 1.1 0 0 979.5 NA 0.0000 9999 5350 0 0 0
2019/04/27 03:24:00 BASE 19.24 19 20.94 11 1.2 100 1.2 0 0 979.5 NA 0.0000 9999 0 0 0 2920
2019/04/27 03:25:00 BASE 18.39 17 20.94 11 1.2 100 1.2 0 0 979.5 NA 0.0000 9999 2690 0 0 0
2019/04/27 03:26:00 BASE 17.30 18 20.94 11 1.1 100 1.1 0 0 979.5 NA 0.0000 9999 2720 0 0 0
2019/04/27 03:27:00 BASE 17.17 16 20.94 11 1.1 100 1.1 0 0 979.5 NA 0.0000 9999 0 0 0 690
2019/04/27 03:28:01 BASE 17.83 17 20.94 11 1.1 100 1.1 0 0 979.5 NA 0.0000 9999 0 0 0 620
2019/04/27 03:29:00 BASE 17.64 19 20.73 20 1.1 100 1.1 0 0 979.5 NA 0.0000 9999 0 0 0 720
2019/04/27 03:30:00 BASE 16.96 19 20.73 20 1.1 100 1.1 0 0 979.5 NA 0.0000 9999 2720 0 0 0
2019/04/27 03:31:00 BASE 17.69 20 20.73 20 1.1 100 1.1 0 0 979.4 NA 0.0000 9999 2690 0 0 0
2019/04/27 03:32:00 BASE 17.92 18 20.47 20 1.1 100 1.1 0 0 979.4 NA 0.0000 9999 2760 0 0 0
2019/04/27 03:33:00 BASE 16.41 17 20.42 22 1.1 100 1.1 0 0 979.5 NA 0.0000 9999 2820 0 0 0
2019/04/27 03:34:01 BASE 15.86 19 19.96 17 1.1 100 1.1 0 0 979.4 NA 0.0000 9999 2620 0 0 0
2019/04/27 03:35:00 BASE 16.39 20 19.65 16 1.1 100 1.1 0 0 979.4 NA 0.0000 9999 0 0 0 790
2019/04/27 03:36:00 BASE 17.43 18 19.65 16 1.1 100 1.1 0 0 979.4 NA 0.0000 9999 0 0 0 890
2019/04/27 03:37:00 BASE 18.17 17 19.70 17 1.1 100 1.1 0 0 979.4 NA 0.0000 9999 0 0 0 750
2019/04/27 03:38:00 BASE 17.43 16 19.70 17 1.1 100 1.1 0 0 979.4 NA 0.0000 9999 0 0 0 590
2019/04/27 03:39:00 BASE 17.17 16 19.70 17 1.1 100 1.1 0 0 979.3 NA 0.0000 9999 2920 0 0 0
2019/04/27 03:40:00 BASE 17.95 18 19.75 19 1.1 100 1.1 0 0 979.3 NA 0.0000 9999 2890 0 0 0
2019/04/27 03:41:00 BASE 17.61 19 19.75 19 1.1 100 1.1 0 0 979.3 NA 0.0000 9999 2920 0 0 0
2019/04/27 03:42:00 BASE 16.79 17 19.75 19 1.1 100 1.1 0 0 979.3 NA 0.0000 9999 2820 0 0 0
2019/04/27 03:43:00 BASE 16.64 16 19.75 19 1.1 100 1.1 0 0 979.3 NA 0.0000 9999 2790 0 0 0
2019/04/27 03:44:00 BASE 16.62 15 19.75 19 1.1 100 1.1 0 0 979.3 NA 0.0000 9999 2790 0 0 0
2019/04/27 03:45:00 BASE 16.64 14 19.75 19 1.1 100 1.1 0 0 979.3 NA 0.0000 9999 2760 0 0 0
2019/04/27 03:46:00 BASE 16.63 14 19.75 19 1.1 100 1.1 0 0 979.3 NA 0.0000 9999 2820 0 0 0
2019/04/27 03:47:00 BASE 17.42 15 19.75 19 1.1 100 1.1 0 0 979.3 NA 0.0000 9999 2590 0 0 0
2019/04/27 03:48:00 BASE 18.08 15 19.75 19 1.1 100 1.1 0 0 979.3 NA 0.0000 9999 2620 0 0 0
2019/04/27 03:49:00 BASE 18.42 12 20.11 13 1.2 100 1.2 0 0 979.3 NA 0.0000 9999 2850 0 0 0
2019/04/27 03:50:00 BASE 18.22 10 20.11 13 1.2 100 1.2 0 0 979.3 NA 0.0000 9999 2200 0 0 0
2019/04/27 03:51:00 BASE 17.50 9 20.11 13 1.2 100 1.2 0 0 979.3 NA 0.0000 9999 2170 0 0 0
2019/04/27 03:52:00 BASE 17.65 9 20.11 13 1.2 100 1.2 0 1 979.3 NA 0.0000 9999 2400 0 0 0
2019/04/27 03:53:00 BASE 18.07 8 20.11 13 1.2 100 1.2 0 0 979.3 NA 0.0000 9999 0 0 0 3580
2019/04/27 03:54:00 BASE 18.11 7 20.11 13 1.2 100 1.2 0 1 979.3 NA 0.0000 9999 390 0 0 0
2019/04/27 03:55:00 BASE 17.71 5 20.11 13 1.2 100 1.2 0 1 979.3 NA 0.0000 9999 0 0 0 1840
2019/04/27 03:56:00 BASE 17.25 5 20.11 13 1.2 100 1.2 0 0 979.3 NA 0.0000 9999 0 0 0 2460
2019/04/27 03:57:00 BASE 16.10 6 20.11 13 1.1 100 1.1 0 0 979.3 NA 0.0000 9999 0 0 0 2460
2019/04/27 03:58:00 BASE 15.82 6 20.11 13 1.1 100 1.1 0 0 979.3 NA 0.0000 9999 0 0 0 2360
2019/04/27 03:59:00 BASE 16.60 7 19.19 10 1.1 100 1.1 0 0 979.3 NA 0.0000 9999 0 0 0 2400
2019/04/27 04:00:00 BASE 16.44 6 19.19 10 1.1 100 1.1 0 0 979.3 NA 0.0000 UP 9999 0 0 0 2430
2019/04/27 04:01:00 BASE 15.24 5 19.19 10 1.1 100 1.1 0 0 979.3 NA 0.0000 UP 9999 0 0 0 2560
2019/04/27 04:02:00 BASE 14.57 5 19.19 10 1.1 100 1.1 0 0 979.3 NA 0.0000 UP 9999 0 0 0 2360
2019/04/27 04:03:00 BASE 15.19 4 19.19 10 1.1 100 1.1 0 0 979.3 NA 0.0000 UP 9999 0 0 0 2000
2019/04/27 04:04:00 BASE 15.91 4 18.57 8 1.1 100 1.1 0 0 979.3 NA 0.0000 UP 9999 390 0 0 0
2019/04/27 04:05:00 BASE 15.78 7 17.65 4 1.1 100 1.1 0 0 979.3 NA 0.0000 UP 9999 330 0 0 0
2019/04/27 04:06:00 BASE 15.34 5 17.65 4 1.1 100 1.1 0 0 979.3 NA 0.0000 UP 9999 0 0 0 1770
2019/04/27 04:08:05 BASE 15.84 2 18.37 3 1.1 100 1.1 0 0 979.3 NA 0.0000 UP 9999 260 0 0 0
2019/04/27 04:09:04 BASE 15.45 3 18.37 3 1.1 100 1.1 0 0 979.3 NA 0.0000 UP 9999 0 0 0 2760
2019/04/27 04:10:05 BASE 15.21 4 18.37 3 1.0 100 1.0 0 0 979.3 NA 0.0000 UP 9999 330 0 0 0
2019/04/27 04:11:05 BASE 15.73 4 18.37 3 1.0 100 1.0 0 0 979.3 NA 0.0000 UP 9999 300 0 0 0
2019/04/27 04:12:05 BASE 15.70 0 18.37 3 1.0 100 1.0 0 0 979.3 NA 0.0000 UP 9999 0 0 0 2920
2019/04/27 04:13:02 BASE 15.35 358 18.37 3 1.0 100 1.0 0 0 979.4 NA 0.0000 UP 9999 0 0 0 4460
2019/04/27 04:14:05 BASE 14.86 0 18.37 3 1.0 100 1.0 0 0 979.4 NA 0.0000 UP 9999 0 0 0 3540
2019/04/27 04:15:05 BASE 14.32 0 18.37 3 1.0 100 1.0 0 0 979.5 NA 0.0000 UP 9999 0 0 0 2690
2019/04/27 04:16:05 BASE 13.12 358 18.37 3 1.0 100 1.0 0 0 979.5 NA 0.0000 UP 9999 390 0 0 0
2019/04/27 04:17:06 BASE 11.77 357 18.37 3 1.1 100 1.1 0 0 979.5 NA 0.0000 UP 9999 390 0 0 0
2019/04/27 04:18:02 BASE 11.45 355 17.49 1 1.1 100 1.1 0 0 979.5 NA 0.0000 UP 9999 0 0 0 4130
2019/04/27 04:19:04 BASE 11.07 354 17.49 1 1.1 100 1.1 0 0 979.5 NA 0.0000 9999 0 0 0 3770
2019/04/27 04:20:04 BASE 11.52 356 17.49 1 1.1 100 1.1 0 0 979.5 NA 0.0000 9999 0 0 0 3380
2019/04/27 04:21:05 BASE 11.77 357 16.46 2 1.1 100 1.1 0 0 979.5 NA 0.0000 9999 0 0 0 2820
2019/04/27 04:22:05 BASE 11.63 354 16.20 5 1.1 100 1.1 0 0 979.5 NA 0.0000 9999 0 0 0 2260
2019/04/27 04:23:05 BASE 11.50 349 15.64 1 1.1 100 1.1 0 0 979.5 NA 0.0000 9999 0 0 0 3250
2019/04/27 04:24:01 BASE 11.90 347 14.82 360 1.1 100 1.1 0 0 979.5 NA 0.0000 9999 460 0 0 0
2019/04/27 04:25:06 BASE 11.65 352 13.68 2 1.1 100 1.1 0 0 979.5 NA 0.0000 9999 260 0 0 0
2019/04/27 04:26:04 BASE 11.18 353 13.48 345 1.1 100 1.1 0 0 979.5 NA 0.0000 9999 0 0 0 3510
2019/04/27 04:27:04 BASE 12.23 349 14.30 350 1.1 100 1.1 0 0 979.4 NA 0.0000 9999 0 0 0 3280
2019/04/27 04:28:02 BASE 12.90 353 14.66 354 1.1 100 1.1 0 0 979.3 NA 0.0000 9999 0 0 0 3180
2019/04/27 04:29:06 BASE 12.63 357 15.23 12 1.1 100 1.1 0 0 979.3 NA 0.0000 9999 0 0 0 2590
2019/04/27 04:30:04 BASE 11.81 356 15.23 12 1.1 100 1.1 0 0 979.4 NA 0.0000 UP 9999 390 0 0 0
2019/04/27 04:31:05 BASE 12.69 352 18.11 345 1.1 100 1.1 0 0 979.3 NA 0.0000 UP 9999 0 0 0 2260
2019/04/27 04:32:05 BASE 14.22 350 18.11 345 1.1 100 1.1 0 0 979.2 NA 0.0000 UP 9999 0 0 0 2230
2019/04/27 04:33:02 BASE 13.67 348 18.11 345 1.1 100 1.1 0 0 979.3 NA 0.0000 UP 9999 0 0 0 2560
2019/04/27 04:34:05 BASE 13.90 354 18.11 345 1.2 100 1.2 0 0 979.2 NA 0.0000 UP 9999 0 0 0 2200
2019/04/27 04:35:06 BASE 13.86 357 18.11 345 1.2 100 1.2 0 0 979.2 NA 0.0000 UP 9999 0 0 0 3770
2019/04/27 04:36:05 BASE 12.81 355 18.11 345 1.2 100 1.2 0 0 979.2 NA 0.0000 UP 9999 0 0 0 3510
2019/04/27 04:37:06 BASE 11.60 357 18.11 345 1.2 100 1.2 0 0 979.2 NA 0.0000 UP 9999 0 0 0 4760
2019/04/27 04:38:02 BASE 10.76 1 18.11 345 1.2 100 1.2 0 0 979.2 NA 0.0000 UP 9999 0 0 0 6140
2019/04/27 04:39:06 BASE 11.24 6 18.11 345 1.2 100 1.2 0 0 979.1 NA 0.0000 UP 9999 0 0 0 6300
2019/04/27 04:40:04 BASE 13.00 5 18.11 345 1.2 100 1.2 0 0 979.0 NA 0.0000 UP 9999 0 0 0 4990
2019/04/27 04:41:06 BASE 13.41 2 16.20 351 1.2 100 1.2 0 0 979.1 NA 0.0000 UP 9999 0 0 0 4990
2019/04/27 04:42:05 BASE 12.73 4 16.20 351 1.2 100 1.2 0 0 979.1 NA 0.0000 UP 9999 0 0 0 4460
2019/04/27 04:43:02 BASE 13.90 4 16.46 6 1.2 100 1.2 0 0 979.1 NA 0.0000 9999 0 0 0 4560
2019/04/27 04:44:05 BASE 14.41 0 16.46 6 1.2 100 1.2 0 0 979.1 NA 0.0000 9999 0 0 0 4130
2019/04/27 04:45:05 BASE 13.46 359 16.46 6 1.2 100 1.2 0 0 979.1 NA 0.0000 9999 0 0 0 3380
2019/04/27 04:46:06 BASE 13.38 360 16.46 6 1.2 100 1.2 0 0 979.1 NA 0.0000 9999 0 0 0 3580
2019/04/27 04:47:06 BASE 12.71 356 16.46 6 1.3 100 1.3 0 0 979.1 NA 0.0000 9999 360 0 0 0
2019/04/27 04:48:02 BASE 11.44 352 16.46 6 1.3 100 1.3 0 0 979.2 NA 0.0000 9999 300 0 0 0
2019/04/27 04:49:06 BASE 10.91 347 16.46 6 1.3 100 1.3 0 0 979.2 NA 0.0000 9999 230 0 0 0
2019/04/27 04:50:05 BASE 12.40 344 16.46 6 1.3 100 1.3 0 0 979.2 NA 0.0000 9999 0 0 0 2260
2019/04/27 04:51:05 BASE 13.99 343 16.46 6 1.3 100 1.3 0 0 979.2 NA 0.0000 UP 9999 0 0 0 2230
2019/04/27 04:52:05 BASE 13.54 344 16.46 6 1.2 100 1.2 0 0 979.2 NA 0.0000 UP 9999 0 0 0 2130
2019/04/27 04:53:01 BASE 11.98 348 16.26 339 1.2 100 1.2 0 0 979.2 NA 0.0000 UP 9999 0 0 0 2230
2019/04/27 04:54:05 BASE 11.60 355 16.26 339 1.2 100 1.2 0 0 979.2 NA 0.0000 UP 9999 230 0 0 0
2019/04/27 04:55:06 BASE 14.32 4 17.90 2 1.2 100 1.2 0 0 979.1 NA 0.0000 UP 9999 0 0 0 2000
2019/04/27 04:56:05 BASE 15.24 1 17.90 2 1.2 100 1.2 0 0 979.1 NA 0.0000 UP 9999 430 0 0 0
2019/04/27 04:57:05 BASE 16.16 351 19.91 296 1.2 100 1.2 0 0 979.1 NA 0.0000 UP 9999 360 0 0 0
2019/04/27 04:58:05 BASE 17.76 353 19.91 296 1.2 100 1.2 0 0 979.1 NA 0.0000 UP 9999 330 0 0 0
2019/04/27 04:59:07 BASE 17.48 354 19.91 296 1.2 100 1.2 0 0 979.1 NA 0.0000 UP 9999 0 0 0 1510
2019/04/27 05:00:05 BASE 17.07 354 19.91 296 1.2 100 1.2 0 0 979.2 NA 0.0000 UP 9999 0 0 0 1310
2019/04/27 05:01:05 BASE 16.84 353 19.91 296 1.2 100 1.2 0 0 979.2 NA 0.2540 UP 9999 0 0 0 1210
2019/04/27 05:02:06 BASE 17.70 348 21.45 352 1.2 100 1.2 0 0 979.1 NA 0.0000 UP 9999 0 0 0 1710
2019/04/27 05:03:05 BASE 17.88 345 21.45 352 1.1 100 1.1 0 0 979.2 NA 0.0000 UP 9999 200 0 0 0
2019/04/27 05:04:06 BASE 17.87 345 21.45 352 1.1 100 1.1 0 0 979.2 NA 0.0000 UP 9999 0 0 0 1210
2019/04/27 05:05:05 BASE 18.61 345 21.45 352 1.1 100 1.1 0 0 979.1 NA 0.0000 UP 9999 200 0 0 0
2019/04/27 05:06:05 BASE 19.07 345 22.38 349 1.0 100 1.0 0 0 979.1 NA 0.0000 UP 9999 260 0 0 0
2019/04/27 05:07:06 BASE 18.45 345 22.38 349 1.0 100 1.0 0 0 979.2 NA 0.0000 UP 9999 300 0 0 0
2019/04/27 05:08:06 BASE 17.87 345 22.38 349 1.0 100 1.0 0 0 979.2 NA 0.0000 UP 9999 0 0 0 1440
2019/04/27 05:09:05 BASE 18.00 346 22.38 349 1.0 100 1.0 0 0 979.2 NA 0.0000 UP 9999 260 0 0 0
2019/04/27 05:10:01 BASE 18.88 345 22.38 349 0.9 100 0.9 0 0 979.1 NA 0.0000 UP 9999 0 0 0 1310
2019/04/27 05:11:06 BASE 18.80 342 22.38 349 0.9 100 0.9 0 0 979.2 NA 0.0000 UP 9999 0 0 0 1610
2019/04/27 05:12:05 BASE 17.92 338 22.38 349 0.8 100 0.8 0 0 979.2 NA 0.0000 UP 9999 0 0 0 1540
2019/04/27 05:13:05 BASE 17.56 339 22.38 349 0.8 100 0.8 0 0 979.2 NA 0.0000 UP 9999 0 0 0 1480
2019/04/27 05:14:05 BASE 17.00 340 22.38 349 0.8 100 0.8 0 0 979.2 NA 0.0000 UP 9999 0 0 0 1670
2019/04/27 05:15:05 BASE 17.25 340 22.38 349 0.7 100 0.7 0 0 979.2 NA 0.0000 UP 9999 0 0 0 2030
2019/04/27 05:16:04 BASE 18.88 342 22.38 334 0.7 100 0.7 0 0 979.1 NA 0.0000 UP 9999 0 0 0 1800
2019/04/27 05:17:06 BASE 20.13 343 22.38 334 0.7 100 0.7 0 0 979.2 NA 0.0000 UP 9999 0 0 0 1510
2019/04/27 05:18:05 BASE 21.12 345 24.59 347 0.7 100 0.7 0 0 979.1 NA 0.0000 UP 9999 0 0 0 1350
2019/04/27 05:19:05 BASE 23.15 347 26.34 352 0.7 100 0.7 0 0 979.1 NA 0.0000 UP 9999 0 0 0 1310
2019/04/27 05:20:04 BASE 23.87 345 26.65 345 0.7 100 0.7 0 0 979.0 NA 0.0000 UP 9999 0 0 0 850
2019/04/27 05:21:05 BASE 23.43 344 26.65 345 0.7 100 0.7 0 0 979.1 NA 0.0000 UP 9999 0 0 0 890
2019/04/27 05:22:05 BASE 22.29 345 26.65 345 0.7 100 0.7 0 0 979.2 NA 0.0000 UP 9999 0 0 0 1080
2019/04/27 05:23:05 BASE 22.21 346 26.65 345 0.6 100 0.6 0 0 979.1 NA 0.0000 UP 9999 0 0 0 1180
2019/04/27 05:24:05 BASE 21.94 343 26.65 345 0.6 100 0.6 0 0 979.2 NA 0.0000 UP 9999 0 0 0 1280
2019/04/27 05:25:05 BASE 22.04 340 26.65 345 0.6 100 0.6 0 0 979.2 NA 0.0000 UP 9999 0 0 0 1510
2019/04/27 05:26:05 BASE 22.72 336 26.65 345 0.6 100 0.6 0 0 979.3 NA 0.0000 UP 9999 0 0 0 1380
2019/04/27 05:27:06 BASE 23.40 334 27.83 340 0.6 100 0.6 0 0 979.3 NA 0.0000 UP 9999 0 0 0 1310
2019/04/27 05:28:05 BASE 27.35 336 34.93 334 0.6 100 0.6 0 0 979.0 NA 0.0000 UP 9999 0 0 0 1050
2019/04/27 05:29:04 BASE 28.35 322 34.93 334 0.5 100 0.5 0 0 979.7 NA 0.0000 UP 5000 0 0 0 980
2019/04/27 05:30:04 BASE 26.16 308 34.93 334 0.5 100 0.5 0 0 979.9 NA 0.0000 UP BR 3100 0 0 0 1440
2019/04/27 05:31:05 BASE 24.61 308 34.93 334 0.4 100 0.4 0 0 980.0 NA 0.0000 UP BR 3100 230 0 0 0
2019/04/27 05:32:05 BASE 21.26 311 34.93 334 0.3 100 0.3 0 0 980.1 NA 0.2540 UP BR 3600 0 0 0 1670
2019/04/27 05:33:05 BASE 18.23 313 34.93 334 0.2 100 0.2 0 0 980.2 NA 0.0000 UP BR 4300 0 0 0 1540
2019/04/27 05:34:05 BASE 17.18 318 34.93 334 0.2 100 0.2 0 0 980.2 NA 0.0000 UP BR 5000 0 0 0 1210
2019/04/27 05:35:05 BASE 17.44 322 34.93 334 0.2 100 0.2 0 0 980.2 NA 0.0000 UP BR 5000 0 0 0 1150
2019/04/27 05:36:04 BASE 17.28 322 34.93 334 0.2 100 0.2 0 0 980.2 NA 0.0000 UP BR 5000 0 0 0 1350
2019/04/27 05:37:05 BASE 16.27 324 34.93 334 0.2 100 0.2 0 0 980.3 NA 0.0000 UP BR 4500 0 0 0 1410
2019/04/27 05:38:05 BASE 15.97 326 30.51 309 0.2 100 0.2 0 0 980.2 NA 0.0000 UP BR 5000 0 0 0 1480
2019/04/27 05:39:06 BASE 16.88 327 30.51 309 0.2 100 0.2 0 0 980.2 NA 0.0000 UP BR 7000 0 0 0 1350
2019/04/27 05:40:05 BASE 16.44 329 25.98 309 0.2 100 0.2 0 0 980.3 NA 0.0000 UP BR 9999 0 0 0 2950
2019/04/27 05:41:06 BASE 15.43 328 21.61 306 0.2 100 0.2 0 0 980.3 NA 0.0000 UP BR 9999 590 0 0 0
2019/04/27 05:42:05 BASE 15.69 328 18.52 315 0.2 100 0.2 0 0 980.3 NA 0.0000 UP BR 9999 890 0 0 0
2019/04/27 05:43:06 BASE 15.93 329 18.52 315 0.2 100 0.2 0 0 980.3 NA 0.0000 UP BR 9999 390 3640 0 0
2019/04/27 05:44:05 BASE 15.62 328 18.37 329 0.2 100 0.2 0 0 980.4 NA 0.0000 UP BR 9999 360 0 0 0
2019/04/27 05:45:05 BASE 14.79 324 18.37 329 0.2 100 0.2 0 0 980.5 NA 0.0000 UP BR 9999 390 0 0 0
2019/04/27 05:46:05 BASE 14.89 322 18.37 329 0.2 100 0.2 0 0 980.4 NA 0.0000 UP BR 9999 390 0 0 0
2019/04/27 05:47:05 BASE 15.43 323 18.37 329 0.2 100 0.2 0 0 980.5 NA 0.0000 UP 9999 390 2990 0 0
2019/04/27 05:48:05 BASE 15.02 321 18.37 329 0.1 100 0.1 0 0 980.5 NA 0.0000 UP 9999 1250 2430 0 0
2019/04/27 05:49:05 BASE 14.37 322 18.31 310 0.1 100 0.1 0 0 980.6 NA 0.0000 UP 9999 2530 0 0 0
2019/04/27 05:50:04 BASE 13.58 320 18.31 310 0.1 100 0.1 0 0 980.6 NA 0.0000 9999 1440 3940 0 0
2019/04/27 05:51:05 BASE 12.93 319 18.31 310 0.1 100 0.1 0 0 980.6 NA 0.0000 9999 3870 0 0 0
2019/04/27 05:52:05 BASE 12.96 324 18.31 310 0.1 100 0.1 0 0 980.6 NA 0.0000 9999 3870 0 0 0
2019/04/27 05:53:06 BASE 13.56 326 18.31 310 0.1 100 0.1 0 0 980.6 NA 0.0000 9999 1310 3940 0 0
2019/04/27 05:54:05 BASE 14.08 324 18.31 310 0.1 100 0.1 0 0 980.6 NA 0.0000 9999 2030 0 0 0
2019/04/27 05:55:05 BASE 13.75 324 18.31 310 0.1 100 0.1 0 0 980.7 NA 0.0000 9999 1870 0 0 0
2019/04/27 05:56:05 BASE 13.21 326 17.49 312 0.1 100 0.1 0 0 980.7 NA 0.0000 9999 1670 0 0 0
2019/04/27 05:57:06 BASE 13.37 326 15.95 320 0.1 100 0.1 0 0 980.7 NA 0.2540 9999 1670 0 0 0
2019/04/27 05:58:04 BASE 13.67 328 15.95 320 0.1 100 0.1 0 0 980.7 NA 0.0000 9999 1670 2300 0 0
2019/04/27 05:59:08 BASE 14.03 330 15.95 320 0.1 100 0.1 0 0 980.7 NA 0.0000 9999 1610 4130 0 0
2019/04/27 06:00:04 BASE 14.23 332 15.95 320 0.1 100 0.1 0 0 980.7 NA 0.0000 9999 1410 4170 0 0
2019/04/27 06:01:05 BASE 14.60 333 15.95 320 0.1 100 0.1 0 0 980.7 NA 0.0000 9999 1210 4230 0 0
2019/04/27 06:02:05 BASE 14.99 333 15.95 320 0.1 100 0.1 0 0 980.6 NA 0.0000 9999 1280 4270 0 0
2019/04/27 06:03:05 BASE 15.19 334 16.26 330 0.1 100 0.1 0 0 980.7 NA 0.0000 9999 1150 4300 0 0
2019/04/27 06:04:07 BASE 15.50 333 16.67 332 0.1 100 0.1 0 0 980.7 NA 0.0000 9999 1080 0 0 0
2019/04/27 06:05:05 BASE 14.65 330 16.67 332 0.1 100 0.1 0 0 980.7 NA 0.0000 9999 1020 4460 0 0
2019/04/27 06:06:05 BASE 14.10 330 16.67 332 0.1 100 0.1 0 0 980.8 NA 0.0000 9999 4360 0 0 0
2019/04/27 06:07:05 BASE 14.50 329 16.67 332 0.1 100 0.1 0 0 980.8 NA 0.0000 9999 1050 4400 0 0
2019/04/27 06:08:05 BASE 14.21 330 16.67 332 0.1 100 0.1 0 0 980.8 NA 0.0000 9999 4330 0 0 0
2019/04/27 06:09:01 BASE 14.49 333 16.67 332 0.1 100 0.1 0 0 980.7 NA 0.0000 9999 4330 0 0 0
2019/04/27 06:10:03 BASE 14.44 336 16.67 332 0.1 100 0.1 0 0 980.8 NA 0.0000 9999 4300 0 0 0
2019/04/27 06:11:04 BASE 14.52 336 16.67 332 0.1 100 0.1 0 0 980.8 NA 0.0000 9999 4330 0 0 0
2019/04/27 06:12:05 BASE 14.97 338 16.67 332 0.1 100 0.1 0 0 980.8 NA 0.0000 9999 4360 5450 0 0
2019/04/27 06:13:04 BASE 15.03 337 16.67 322 0.1 100 0.1 0 0 980.8 NA 0.0000 9999 4530 5540 0 0
2019/04/27 06:14:04 BASE 15.33 334 16.72 333 0.1 100 0.1 0 0 980.8 NA 0.0000 9999 4530 5610 0 0
2019/04/27 06:15:04 BASE 15.42 335 16.72 333 0.1 100 0.1 0 0 980.8 NA 0.0000 9999 1870 4560 0 0
2019/04/27 06:16:05 BASE 15.73 336 17.75 336 0.2 100 0.2 0 0 980.7 NA 0.0000 9999 4590 5680 0 0
2019/04/27 06:17:04 BASE 15.66 334 17.75 336 0.2 100 0.2 0 0 980.8 NA 0.0000 9999 1900 5740 0 0
2019/04/27 06:18:05 BASE 14.97 333 17.75 336 0.2 100 0.2 0 0 980.8 NA 0.0000 9999 11980 0 0 0
2019/04/27 06:19:04 BASE 15.66 335 18.88 335 0.2 100 0.2 0 0 980.8 NA 0.0000 9999 11910 0 0 0
2019/04/27 06:20:04 BASE 16.98 335 18.88 335 0.2 100 0.2 0 0 980.8 NA 0.0000 9999 11910 0 0 0
2019/04/27 06:21:05 BASE 17.58 333 19.81 326 0.2 100 0.2 0 0 980.8 NA 0.0000 9999 11980 0 0 0
2019/04/27 06:22:01 BASE 17.58 335 19.81 326 0.2 100 0.2 0 0 980.8 NA 0.0000 9999 11940 0 0 0
2019/04/27 06:23:06 BASE 17.08 335 19.81 326 0.3 100 0.3 0 0 980.8 NA 0.0000 9999 11940 0 0 0
2019/04/27 06:24:01 BASE 17.50 333 20.47 330 0.3 100 0.3 0 0 980.8 NA 0.0000 9999 12010 0 0 0
2019/04/27 06:25:05 BASE 17.68 334 20.47 330 0.3 100 0.3 0 0 980.9 NA 0.0000 9999 1480 12210 0 0
2019/04/27 06:26:04 BASE 17.49 332 20.47 330 0.3 100 0.3 0 0 980.9 NA 0.0000 9999 1540 12430 0 0
2019/04/27 06:27:05 BASE 16.97 330 20.47 330 0.3 100 0.3 0 0 981.0 NA 0.0000 9999 0 0 0 1870
2019/04/27 06:28:01 BASE 16.06 330 20.47 330 0.3 100 0.3 0 0 981.0 NA 0.0000 9999 1380 0 0 0
2019/04/27 06:29:04 BASE 16.18 332 20.47 330 0.3 100 0.3 0 0 981.0 NA 0.0000 9999 0 0 0 1900
2019/04/27 06:30:04 BASE 16.57 331 20.47 330 0.3 100 0.3 0 0 981.0 NA 0.0000 9999 0 0 0 1840
2019/04/27 06:31:04 BASE 17.05 331 20.47 330 0.3 100 0.3 0 0 981.0 NA 0.0000 9999 0 0 0 1670
2019/04/27 06:32:04 BASE 16.90 332 20.47 330 0.3 100 0.3 0 0 981.0 NA 0.0000 9999 0 0 0 1610
2019/04/27 06:33:04 BASE 16.87 331 20.47 330 0.3 100 0.3 0 0 981.0 NA 0.0000 9999 0 0 0 1740
2019/04/27 06:34:04 BASE 17.17 331 19.55 331 0.3 100 0.3 0 0 981.1 NA 0.0000 9999 0 0 0 1640
2019/04/27 06:35:04 BASE 17.09 330 19.55 331 0.3 100 0.3 0 0 981.1 NA 0.0000 9999 0 0 0 1640
2019/04/27 06:36:05 BASE 16.95 330 19.55 331 0.3 100 0.3 0 0 981.1 NA 0.0000 9999 0 0 0 1610
2019/04/27 06:37:05 BASE 16.46 330 19.55 331 0.3 100 0.3 0 0 981.2 NA 0.0000 9999 0 0 0 1740
2019/04/27 06:38:01 BASE 15.45 330 19.55 331 0.3 100 0.3 0 0 981.2 NA 0.0000 9999 0 0 0 1510
2019/04/27 06:39:04 BASE 14.77 330 19.55 331 0.3 100 0.3 0 0 981.2 NA 0.0000 9999 0 0 0 1410
2019/04/27 06:40:04 BASE 14.33 330 18.67 324 0.3 100 0.3 0 0 981.3 NA 0.0000 9999 0 0 0 1510
2019/04/27 06:41:04 BASE 15.01 329 18.67 324 0.3 100 0.3 0 0 981.3 NA 0.0000 9999 0 0 0 1410
2019/04/27 06:42:04 BASE 15.34 330 18.67 324 0.2 100 0.2 0 0 981.4 NA 0.0000 9999 0 0 0 1380
2019/04/27 06:43:04 BASE 15.00 330 18.67 324 0.2 100 0.2 0 0 981.4 NA 0.0000 9999 0 0 0 1310
2019/04/27 06:44:05 BASE 15.52 329 18.67 324 0.2 100 0.2 0 0 981.4 NA 0.0000 9999 0 0 0 1540
2019/04/27 06:45:05 BASE 15.38 330 18.01 327 0.2 100 0.2 0 0 981.4 NA 0.0000 9999 0 0 0 1480
2019/04/27 06:46:01 BASE 14.70 329 17.23 333 0.3 100 0.3 0 0 981.5 NA 0.0000 9999 0 0 0 1310
2019/04/27 06:47:05 BASE 14.39 329 16.93 327 0.2 100 0.2 0 0 981.6 NA 0.0000 9999 0 0 0 1840
2019/04/27 06:48:02 BASE 14.55 329 16.93 327 0.2 100 0.2 0 0 981.6 NA 0.0000 9999 0 0 0 1180
2019/04/27 06:49:04 BASE 14.51 329 16.93 327 0.2 100 0.2 0 0 981.6 NA 0.0000 9999 0 0 0 1280
2019/04/27 06:50:04 BASE 13.92 329 16.93 327 0.2 100 0.2 0 0 981.6 NA 0.0000 9999 0 0 0 1770
2019/04/27 06:51:05 BASE 13.54 327 16.87 327 0.2 100 0.2 0 0 981.7 NA 0.0000 9999 0 0 0 1570
2019/04/27 06:52:04 BASE 13.96 325 16.87 327 0.2 100 0.2 0 0 981.7 NA 0.0000 9999 0 0 0 1440
2019/04/27 06:53:05 BASE 13.84 327 16.87 327 0.2 100 0.2 0 0 981.7 NA 0.0000 9999 0 0 0 1410
2019/04/27 06:54:01 BASE 13.22 328 16.36 330 0.2 100 0.2 0 0 981.8 NA 0.0000 9999 0 0 0 1480
2019/04/27 06:55:05 BASE 13.32 328 16.36 330 0.2 100 0.2 0 0 981.8 NA 0.0000 9999 0 0 0 1440
2019/04/27 06:56:05 BASE 14.19 328 16.36 330 0.3 100 0.3 0 0 981.8 NA 0.0000 9999 0 0 0 1380
2019/04/27 06:57:05 BASE 14.16 328 16.20 325 0.3 100 0.3 0 0 981.8 NA 0.0000 9999 0 0 0 1410
2019/04/27 06:58:04 BASE 13.92 329 15.79 331 0.2 100 0.2 0 0 981.8 NA 0.0000 9999 0 0 0 1250
2019/04/27 06:59:06 BASE 14.20 330 15.43 322 0.2 100 0.2 0 0 981.8 NA 0.0000 9999 0 0 0 1180
2019/04/27 07:00:01 BASE 14.45 330 15.54 328 0.2 100 0.2 0 0 981.8 NA 0.0000 9999 0 0 0 1440
2019/04/27 07:01:05 BASE 14.48 330 15.54 328 0.2 100 0.2 0 0 981.9 NA 0.0000 9999 5480 0 0 0
2019/04/27 07:02:01 BASE 14.10 331 15.54 328 0.2 100 0.2 0 0 982.0 NA 0.0000 9999 5580 0 0 0
2019/04/27 07:03:05 BASE 14.44 331 15.84 332 0.2 100 0.2 0 0 981.9 NA 0.0000 9999 5640 0 0 0
2019/04/27 07:04:04 BASE 15.14 331 16.41 333 0.2 100 0.2 0 0 981.9 NA 0.0000 9999 0 0 0 1440
2019/04/27 07:05:05 BASE 15.60 330 17.29 329 0.2 100 0.2 0 0 982.0 NA 0.0000 9999 0 0 0 1150
2019/04/27 07:06:05 BASE 15.35 329 17.29 329 0.2 100 0.2 0 0 982.0 NA 0.0000 9999 0 0 0 1150
2019/04/27 07:07:05 BASE 15.35 331 17.29 329 0.2 100 0.2 0 0 982.0 NA 0.0000 9999 0 0 0 1250
2019/04/27 07:08:04 BASE 15.58 331 17.29 329 0.3 100 0.3 0 0 982.0 NA 0.0000 9999 5810 0 0 0
2019/04/27 07:09:01 BASE 15.21 329 17.29 329 0.3 100 0.3 0 0 982.0 NA 0.0000 9999 5940 0 0 0
2019/04/27 07:10:04 BASE 15.31 331 17.29 329 0.3 100 0.3 0 0 982.0 NA 0.0000 9999 5740 0 0 0
2019/04/27 07:11:04 BASE 15.53 332 17.29 329 0.3 100 0.3 0 0 982.1 NA 0.0000 9999 5680 0 0 0
2019/04/27 07:12:04 BASE 15.32 331 17.29 329 0.3 100 0.3 0 0 982.1 NA 0.0000 9999 5180 5810 0 0
2019/04/27 07:13:05 BASE 15.07 331 17.29 329 0.3 100 0.3 0 0 982.2 NA 0.0000 9999 5180 0 0 0
2019/04/27 07:14:04 BASE 14.83 330 17.29 329 0.3 100 0.3 0 0 982.2 NA 0.0000 9999 5180 0 0 0
2019/04/27 07:15:04 BASE 14.80 330 16.98 329 0.3 100 0.3 0 0 982.2 NA 0.0000 9999 5250 0 0 0
2019/04/27 07:16:05 BASE 15.12 330 16.98 329 0.3 100 0.3 0 0 982.2 NA 0.0000 9999 5480 0 0 0
2019/04/27 07:17:05 BASE 15.54 328 17.03 328 0.3 100 0.3 0 0 982.3 NA 0.0000 9999 5320 0 0 0
2019/04/27 07:18:04 BASE 15.93 328 17.03 328 0.3 100 0.3 0 0 982.2 NA 0.0000 9999 5150 0 0 0
2019/04/27 07:19:05 BASE 15.64 329 17.03 328 0.4 100 0.4 0 0 982.3 NA 0.0000 9999 5320 0 0 0
2019/04/27 07:20:04 BASE 15.05 329 17.03 328 0.4 100 0.4 0 0 982.3 NA 0.0000 9999 5180 0 0 0
2019/04/27 07:21:04 BASE 14.81 328 17.03 328 0.4 100 0.4 0 0 982.3 NA 0.0000 9999 5150 0 0 0
2019/04/27 07:22:04 BASE 15.20 328 17.03 328 0.4 100 0.4 0 0 982.3 NA 0.0000 9999 4950 0 0 0
2019/04/27 07:23:04 BASE 15.49 329 17.03 328 0.4 100 0.4 0 0 982.3 NA 0.0000 9999 5020 0 0 0
2019/04/27 07:24:04 BASE 15.43 328 17.08 327 0.4 100 0.4 0 0 982.3 NA 0.0000 9999 4890 5480 0 0
2019/04/27 07:25:04 BASE 15.28 328 17.08 327 0.4 100 0.4 0 0 982.3 NA 0.0000 9999 5180 0 0 0
2019/04/27 07:26:05 BASE 14.61 328 17.08 327 0.4 100 0.4 0 0 982.4 NA 0.0000 9999 5180 0 0 0
2019/04/27 07:27:01 BASE 14.34 327 17.08 327 0.4 100 0.4 0 0 982.4 NA 0.0000 9999 4990 0 0 0
2019/04/27 07:28:05 BASE 14.31 327 17.08 327 0.4 100 0.4 0 0 982.4 NA 0.0000 9999 4890 0 0 0
2019/04/27 07:29:05 BASE 14.65 328 17.08 327 0.4 100 0.4 0 0 982.3 NA 0.0000 9999 4860 0 0 0
2019/04/27 07:30:04 BASE 14.80 330 17.08 327 0.4 100 0.4 0 0 982.4 NA 0.0000 9999 5180 0 0 0
2019/04/27 07:31:05 BASE 14.33 331 17.08 327 0.4 100 0.4 0 0 982.4 NA 0.0000 9999 4950 0 0 0
2019/04/27 07:32:05 BASE 14.18 330 17.08 327 0.4 100 0.4 0 0 982.4 NA 0.0000 9999 4990 0 0 0
2019/04/27 07:33:04 BASE 14.01 329 17.08 327 0.4 100 0.4 0 0 982.4 NA 0.0000 9999 5280 0 0 0
2019/04/27 07:34:05 BASE 14.11 329 16.77 326 0.4 100 0.4 0 0 982.5 NA 0.0000 9999 5510 0 0 0
2019/04/27 07:35:05 BASE 14.04 328 16.41 332 0.4 100 0.4 0 0 982.6 NA 0.0000 9999 5320 0 0 0
2019/04/27 07:36:05 BASE 14.06 328 16.41 332 0.4 100 0.4 0 0 982.6 NA 0.0000 9999 5610 0 0 0
2019/04/27 07:37:04 BASE 14.04 326 16.41 332 0.4 100 0.4 0 0 982.6 NA 0.0000 9999 5770 0 0 0
2019/04/27 07:38:04 BASE 13.42 326 16.41 332 0.3 100 0.3 0 0 982.7 NA 0.0000 9999 5710 0 0 0
2019/04/27 07:39:05 BASE 13.34 325 15.79 331 0.3 100 0.3 0 0 982.7 NA 0.0000 9999 5580 0 0 0
2019/04/27 07:40:04 BASE 13.58 324 15.79 331 0.3 100 0.3 0 0 982.7 NA 0.0000 9999 5770 0 0 0
2019/04/27 07:41:04 BASE 13.20 325 15.79 331 0.3 100 0.3 0 0 982.8 NA 0.0000 9999 5740 0 0 0
2019/04/27 07:42:04 BASE 13.61 324 15.79 331 0.3 100 0.3 0 0 982.8 NA 0.0000 9999 5740 0 0 0
2019/04/27 07:43:05 BASE 14.36 322 15.79 331 0.4 100 0.4 0 0 982.8 NA 0.0000 9999 5810 0 0 0
2019/04/27 07:44:04 BASE 14.33 322 16.05 316 0.4 100 0.4 0 0 982.8 NA 0.0000 9999 5870 0 0 0
2019/04/27 07:45:05 BASE 14.49 322 16.77 321 0.3 100 0.3 0 0 982.8 NA 0.0000 9999 5840 0 0 0
2019/04/27 07:46:05 BASE 14.06 323 16.77 321 0.3 100 0.3 0 0 982.9 NA 0.0000 9999 6000 0 0 0
2019/04/27 07:47:06 BASE 12.76 323 16.77 321 0.3 100 0.3 0 0 982.9 NA 0.0000 9999 6300 0 0 0
2019/04/27 07:48:02 BASE 12.35 322 16.77 321 0.3 100 0.3 0 0 982.9 NA 0.0000 9999 6500 0 0 0
2019/04/27 07:49:05 BASE 12.52 324 16.77 321 0.4 100 0.4 0 0 982.9 NA 0.0000 9999 6560 0 0 0
2019/04/27 07:50:01 BASE 13.35 324 16.77 321 0.3 100 0.3 0 0 982.9 NA 0.0000 9999 6560 0 0 0
2019/04/27 07:51:05 BASE 13.85 323 16.77 321 0.4 100 0.4 0 0 983.0 NA 0.0000 9999 2920 6590 0 0
2019/04/27 07:52:04 BASE 13.63 323 16.77 321 0.3 100 0.3 0 0 983.0 NA 0.0000 9999 2920 6500 0 0
2019/04/27 07:53:01 BASE 13.70 323 16.77 321 0.4 100 0.4 0 0 983.0 NA 0.0000 9999 6270 0 0 0
2019/04/27 07:54:05 BASE 13.60 325 16.77 321 0.4 100 0.4 0 0 983.0 NA 0.0000 9999 6270 0 0 0
2019/04/27 07:55:05 BASE 13.47 328 15.43 320 0.4 100 0.4 0 0 983.0 NA 0.0000 9999 6300 6820 0 0
2019/04/27 07:56:05 BASE 13.42 329 15.43 320 0.4 100 0.4 0 0 983.0 NA 0.0000 9999 6300 0 0 0
2019/04/27 07:57:05 BASE 13.73 329 15.43 320 0.4 100 0.4 0 0 983.1 NA 0.0000 9999 6400 0 0 0
2019/04/27 07:58:01 BASE 14.05 328 15.43 320 0.4 100 0.4 0 0 983.1 NA 0.0000 9999 3870 6500 0 0
2019/04/27 07:59:06 BASE 13.73 328 15.43 320 0.4 100 0.4 0 0 983.1 NA 0.0000 9999 3220 3940 0 0
2019/04/27 08:00:02 BASE 13.73 330 15.43 320 0.4 100 0.4 0 0 983.1 NA 0.0000 9999 3220 3710 0 0
2019/04/27 08:01:05 BASE 13.91 331 15.59 329 0.4 100 0.4 0 0 983.1 NA 0.0000 9999 3220 0 0 0
2019/04/27 08:02:06 BASE 14.49 332 15.69 332 0.4 100 0.4 0 0 983.1 NA 0.0000 9999 3640 0 0 0
2019/04/27 08:03:06 BASE 15.12 333 16.72 329 0.4 100 0.4 0 0 983.1 NA 0.0000 9999 3670 0 0 0
2019/04/27 08:04:05 BASE 15.57 334 16.72 329 0.4 100 0.4 0 0 983.1 NA 0.0000 9999 3580 5710 0 0
2019/04/27 08:05:05 BASE 15.39 336 16.72 329 0.4 100 0.4 0 0 983.1 NA 0.0000 9999 3540 4760 0 0
2019/04/27 08:06:05 BASE 14.84 335 16.72 329 0.4 100 0.4 0 0 983.1 NA 0.0000 9999 4270 5580 0 0
2019/04/27 08:07:06 BASE 15.35 335 17.49 335 0.4 100 0.4 0 0 983.1 NA 0.0000 9999 7020 0 0 0
2019/04/27 08:08:05 BASE 16.20 334 17.70 333 0.4 100 0.4 0 0 983.1 NA 0.0000 9999 7190 0 0 0
2019/04/27 08:09:04 BASE 16.33 334 17.70 333 0.4 100 0.4 0 0 983.1 NA 0.0000 9999 5710 7220 0 0
2019/04/27 08:10:04 BASE 15.75 336 17.70 333 0.4 100 0.4 0 0 983.1 NA 0.0000 9999 5640 6730 0 0
2019/04/27 08:11:06 BASE 15.39 337 17.70 333 0.4 100 0.4 0 0 983.1 NA 0.0000 9999 5480 0 0 0
2019/04/27 08:12:05 BASE 15.20 337 17.70 333 0.4 100 0.4 0 0 983.1 NA 0.0000 9999 5380 5810 0 0
2019/04/27 08:13:05 BASE 14.77 338 17.70 333 0.4 100 0.4 0 0 983.1 NA 0.0000 9999 5320 5840 0 0
2019/04/27 08:14:01 BASE 14.12 338 17.70 333 0.4 100 0.4 0 0 983.1 NA 0.0000 9999 5180 0 0 0
2019/04/27 08:15:05 BASE 14.48 339 17.70 333 0.4 100 0.4 0 0 983.1 NA 0.0000 9999 5320 0 0 0
2019/04/27 08:16:01 BASE 14.77 336 17.70 333 0.4 100 0.4 0 0 983.1 NA 0.0000 9999 5180 0 0 0
2019/04/27 08:17:05 BASE 13.97 334 17.70 333 0.4 100 0.4 0 0 983.1 NA 0.0000 9999 5020 0 0 0
2019/04/27 08:18:01 BASE 13.54 338 17.34 332 0.4 100 0.4 0 0 983.1 NA 0.0000 9999 4950 0 0 0
2019/04/27 08:19:05 BASE 14.05 340 17.34 332 0.4 100 0.4 0 0 983.1 NA 0.0000 9999 4860 0 0 0
2019/04/27 08:20:04 BASE 14.31 337 16.67 335 0.4 100 0.4 0 0 983.1 NA 0.0000 9999 4070 4890 0 0
2019/04/27 08:21:05 BASE 14.12 336 16.67 335 0.4 100 0.4 0 0 983.2 NA 0.0000 9999 3450 0 0 0
2019/04/27 08:22:05 BASE 13.87 336 16.67 335 0.4 100 0.4 0 0 983.2 NA 0.0000 9999 3350 0 0 0
2019/04/27 08:23:05 BASE 14.63 333 17.59 330 0.4 100 0.4 0 0 983.1 NA 0.0000 9999 490 0 0 0
2019/04/27 08:24:05 BASE 16.35 332 19.34 332 0.4 100 0.4 0 0 983.1 NA 0.0000 9999 360 0 0 0
2019/04/27 08:25:04 BASE 17.09 335 19.34 332 0.4 100 0.4 0 0 983.2 NA 0.0000 9999 0 0 0 3280
2019/04/27 08:26:05 BASE 18.02 330 20.78 332 0.4 100 0.4 0 0 983.2 NA 0.0000 UP 7000 0 0 0 2820
2019/04/27 08:27:05 BASE 17.22 323 20.78 332 0.4 100 0.4 0 0 983.3 NA 0.0000 UP BR 3600 0 0 0 1410
2019/04/27 08:28:04 BASE 16.93 318 20.78 332 0.4 100 0.4 0 0 983.3 NA 0.0000 UP BR 3400 0 0 0 1350
2019/04/27 08:29:04 BASE 17.81 321 20.78 332 0.3 100 0.3 0 0 983.2 NA 0.0000 -SN BR 4700 0 0 0 1540
2019/04/27 08:30:04 BASE 18.23 328 20.78 332 0.3 100 0.3 0 0 983.2 NA 0.0000 -SN BR 8000 260 0 0 0
2019/04/27 08:31:05 BASE 17.92 333 20.78 332 0.3 100 0.3 0 0 983.2 NA 0.0000 -SN BR 9999 2490 0 0 0
2019/04/27 08:32:05 BASE 18.00 334 20.99 327 0.2 100 0.2 0 0 983.2 NA 0.0000 -SN BR 9999 1480 2530 0 0
2019/04/27 08:33:05 BASE 18.58 329 21.14 324 0.2 100 0.2 0 0 983.3 NA 0.0000 -SN BR 9999 3380 4890 0 0
2019/04/27 08:34:05 BASE 17.28 326 21.14 324 0.2 100 0.2 0 0 983.3 NA 0.0000 -SN BR 9999 3450 4920 0 0
2019/04/27 08:35:05 BASE 15.97 325 21.14 324 0.2 100 0.2 0 0 983.3 NA 0.0000 -SN BR 9999 3480 0 0 0
2019/04/27 08:36:05 BASE 16.04 323 21.14 324 0.2 100 0.2 0 0 983.3 NA 0.0000 -SN BR 9999 3540 0 0 0
2019/04/27 08:37:05 BASE 17.07 323 21.14 324 0.1 100 0.1 0 0 983.3 NA 0.0000 -SN BR 9999 3770 4330 0 0
2019/04/27 08:38:05 BASE 17.65 324 21.14 324 0.1 100 0.1 0 0 983.3 NA 0.0000 -SN 9999 4630 0 0 0
2019/04/27 08:39:05 BASE 17.25 325 21.14 324 0.1 100 0.1 0 0 983.3 NA 0.0000 -SN 9999 6300 0 0 0
2019/04/27 08:40:06 BASE 17.04 326 21.14 324 0.1 100 0.1 0 0 983.3 NA 0.0000 -SN 9999 6370 0 0 0
2019/04/27 08:41:04 BASE 18.01 327 21.14 324 0.1 100 0.1 0 0 983.3 NA 0.0000 9999 6560 0 0 0
2019/04/27 08:42:01 BASE 19.29 330 21.66 331 0.1 100 0.1 0 0 983.2 NA 0.0000 9999 6730 0 0 0
2019/04/27 08:43:04 BASE 20.83 331 24.18 323 0.1 100 0.1 0 0 983.2 NA 0.0000 9999 6790 0 0 0
2019/04/27 08:44:04 BASE 21.41 331 24.18 323 0.1 100 0.1 0 0 983.3 NA 0.0000 9999 6860 0 0 0
2019/04/27 08:45:04 BASE 20.08 330 24.18 323 0.1 100 0.1 0 0 983.3 NA 0.0000 9999 6890 0 0 0
2019/04/27 08:46:05 BASE 19.35 326 24.18 323 0.1 100 0.1 0 0 983.4 NA 0.0000 9999 6860 0 0 0
2019/04/27 08:47:06 BASE 20.00 324 24.18 323 0.1 100 0.1 0 0 983.4 NA 0.0000 9999 6860 0 0 0
2019/04/27 08:48:06 BASE 20.60 325 24.18 323 0.1 100 0.1 0 0 983.4 NA 0.0000 9999 6860 0 0 0
2019/04/27 08:49:05 BASE 19.82 324 24.18 323 0.1 100 0.1 0 0 983.5 NA 0.0000 9999 6890 0 0 0
2019/04/27 08:50:05 BASE 18.71 323 24.18 323 0.1 100 0.1 0 0 983.5 NA 0.0000 9999 6960 12300 0 0
2019/04/27 08:51:05 BASE 19.13 324 24.18 323 0.1 100 0.1 0 0 983.5 NA 0.0000 9999 6990 12400 0 0
2019/04/27 08:52:06 BASE 18.71 325 24.18 323 0.1 100 0.1 0 0 983.6 NA 0.0000 9999 7220 12400 0 0
2019/04/27 08:53:06 BASE 17.62 325 23.41 331 0.1 100 0.1 0 0 983.6 NA 0.0000 9999 12400 0 0 0
2019/04/27 08:54:05 BASE 17.91 326 22.38 321 0.1 100 0.1 0 0 983.6 NA 0.0000 9999 12430 0 0 0
2019/04/27 08:55:04 BASE 18.28 327 22.38 321 0.1 100 0.1 0 0 983.6 NA 0.0000 9999 12400 0 0 0
2019/04/27 08:56:02 BASE 18.33 327 22.38 321 0.1 100 0.1 0 0 983.6 NA 0.0000 9999 12370 0 0 0
2019/04/27 08:57:05 BASE 17.69 328 22.38 321 0.1 100 0.1 0 0 983.6 NA 0.0000 9999 12370 0 0 0
2019/04/27 08:58:02 BASE 17.98 330 22.38 321 0.1 100 0.1 0 0 983.5 NA 0.0000 9999 6140 12470 0 0
2019/04/27 08:59:07 BASE 18.84 331 22.02 328 0.1 100 0.1 0 0 983.6 NA 0.0000 9999 6070 0 0 0
2019/04/27 09:00:03 BASE 18.68 332 22.02 328 0.1 100 0.1 0 0 983.6 NA 0.0000 9999 6040 0 0 0
2019/04/27 09:01:04 BASE 18.43 330 20.68 335 0.1 100 0.1 0 0 983.7 NA 0.0000 9999 6040 0 0 0
2019/04/27 09:02:06 BASE 18.22 329 20.68 335 0.1 100 0.1 0 0 983.7 NA 0.0000 9999 6040 0 0 0
2019/04/27 09:03:06 BASE 18.85 329 20.68 335 0.1 100 0.1 0 0 983.7 NA 0.0000 9999 6070 0 0 0
2019/04/27 09:04:04 BASE 18.58 329 20.68 335 0.1 100 0.1 0 0 983.7 NA 0.0000 9999 6100 0 0 0
2019/04/27 09:05:05 BASE 17.40 331 20.68 335 0.1 100 0.1 0 0 983.7 NA 0.0000 9999 6070 0 0 0
2019/04/27 09:06:05 BASE 17.12 332 20.68 335 0.1 100 0.1 0 0 983.7 NA 0.0000 9999 6100 0 0 0
2019/04/27 09:07:06 BASE 16.80 331 20.68 335 0.1 100 0.1 0 0 983.7 NA 0.0000 9999 6230 0 0 0
2019/04/27 09:08:05 BASE 16.76 330 20.63 330 0.1 100 0.1 0 0 983.7 NA 0.0000 9999 6170 0 0 0
2019/04/27 09:09:05 BASE 17.41 328 20.63 330 0.1 100 0.1 0 0 983.7 NA 0.0000 9999 6230 0 0 0
2019/04/27 09:10:04 BASE 17.57 329 20.63 330 0.1 100 0.1 0 0 983.7 NA 0.0000 9999 6200 0 0 0
2019/04/27 09:11:06 BASE 17.37 331 20.63 330 0.1 100 0.1 0 0 983.7 NA 0.0000 9999 6460 0 0 0
2019/04/27 09:12:06 BASE 17.26 331 20.63 330 0.1 100 0.1 0 0 983.7 NA 0.0000 9999 6300 0 0 0
2019/04/27 09:13:01 BASE 17.09 330 19.45 327 0.1 100 0.1 0 0 983.7 NA 0.0000 9999 6270 0 0 0
2019/04/27 09:14:05 BASE 17.33 330 19.45 327 0.1 100 0.1 0 0 983.7 NA 0.0000 9999 6270 0 0 0
2019/04/27 09:15:05 BASE 17.78 330 19.45 327 0.1 100 0.1 0 0 983.7 NA 0.0000 9999 6200 0 0 0
2019/04/27 09:16:04 BASE 16.91 329 19.45 327 0.2 100 0.2 0 0 983.8 NA 0.0000 9999 6270 0 0 0
2019/04/27 09:17:04 BASE 16.78 329 19.45 327 0.2 100 0.2 0 0 983.8 NA 0.0000 9999 6300 0 0 0
2019/04/27 09:18:05 BASE 17.68 329 19.45 327 0.2 100 0.2 0 0 983.8 NA 0.0000 9999 3580 13030 0 0
2019/04/27 09:19:05 BASE 17.75 328 19.45 327 0.2 100 0.2 0 0 983.8 NA 0.0000 9999 3250 0 0 0
2019/04/27 09:20:04 BASE 17.57 328 19.34 327 0.2 100 0.2 0 0 983.9 NA 0.0000 9999 3280 0 0 0
2019/04/27 09:21:04 BASE 17.36 329 19.34 327 0.2 100 0.2 0 0 983.9 NA 0.0000 9999 3310 0 0 0
2019/04/27 09:22:05 BASE 17.28 329 19.14 325 0.2 100 0.2 0 0 983.9 NA 0.0000 9999 3480 0 0 0
2019/04/27 09:23:05 BASE 17.38 331 19.14 325 0.2 100 0.2 0 0 983.9 NA 0.0000 9999 3380 0 0 0
2019/04/27 09:24:05 BASE 18.19 334 20.58 333 0.2 100 0.2 0 0 983.9 NA 0.0000 9999 3280 0 0 0
2019/04/27 09:25:04 BASE 19.23 333 20.58 333 0.2 100 0.2 0 0 983.9 NA 0.0000 9999 3350 0 0 0
2019/04/27 09:26:05 BASE 18.89 333 20.58 333 0.2 100 0.2 0 0 983.9 NA 0.0000 9999 3310 0 0 0
2019/04/27 09:27:06 BASE 18.52 335 21.14 337 0.2 100 0.2 0 0 983.9 NA 0.0000 9999 3280 0 0 0
2019/04/27 09:28:05 BASE 19.73 336 22.48 330 0.2 100 0.2 0 0 983.9 NA 0.0000 9999 3280 0 0 0
2019/04/27 09:29:05 BASE 19.92 335 22.48 330 0.2 100 0.2 0 0 983.9 NA 0.0000 9999 3150 0 0 0
2019/04/27 09:30:04 BASE 18.88 333 22.48 330 0.2 100 0.2 0 0 983.9 NA 0.0000 9999 3380 0 0 0
2019/04/27 09:31:05 BASE 18.57 332 22.48 330 0.2 100 0.2 0 0 984.0 NA 0.0000 9999 3280 0 0 0
2019/04/27 09:32:05 BASE 18.29 333 22.48 330 0.3 100 0.3 0 0 984.0 NA 0.0000 9999 3310 0 0 0
2019/04/27 09:33:06 BASE 18.26 333 22.48 330 0.3 100 0.3 0 0 984.0 NA 0.0000 9999 3380 0 0 0
2019/04/27 09:34:05 BASE 18.38 333 22.48 330 0.3 100 0.3 0 0 984.0 NA 0.0000 9999 3900 6430 0 0
2019/04/27 09:35:06 BASE 18.18 333 22.48 330 0.3 100 0.3 0 0 984.0 NA 0.0000 9999 3540 6330 0 0
2019/04/27 09:36:02 BASE 17.94 332 22.48 330 0.3 100 0.3 0 0 984.0 NA 0.0000 9999 3870 0 0 0
2019/04/27 09:37:05 BASE 17.82 333 22.48 330 0.3 100 0.3 0 0 984.0 NA 0.0000 9999 3870 6330 0 0
2019/04/27 09:38:02 BASE 17.58 334 21.04 336 0.3 100 0.3 0 0 984.1 NA 0.0000 9999 2360 3900 0 0
2019/04/27 09:39:05 BASE 17.09 334 21.04 336 0.3 100 0.3 0 0 984.1 NA 0.0000 9999 3840 6370 0 0
2019/04/27 09:40:04 BASE 16.51 336 21.04 336 0.3 100 0.3 0 0 984.1 NA 0.0000 9999 6400 0 0 0
2019/04/27 09:41:06 BASE 15.70 338 21.04 336 0.3 100 0.3 0 0 984.1 NA 0.0000 9999 6330 0 0 0
2019/04/27 09:42:06 BASE 15.42 339 21.04 336 0.3 100 0.3 0 0 984.1 NA 0.0000 9999 6400 0 0 0
2019/04/27 09:43:05 BASE 16.33 340 21.04 336 0.2 100 0.2 0 0 984.1 NA 0.0000 9999 6170 0 0 0
2019/04/27 09:44:05 BASE 16.67 338 21.04 336 0.2 100 0.2 0 0 984.1 NA 0.0000 9999 6170 0 0 0
2019/04/27 09:45:01 BASE 16.81 336 19.55 336 0.2 100 0.2 0 0 984.1 NA 0.0000 9999 6270 0 0 0
2019/04/27 09:46:04 BASE 16.42 339 19.55 336 0.2 100 0.2 0 0 984.2 NA 0.0000 9999 6200 0 0 0
2019/04/27 09:47:05 BASE 16.67 339 18.62 331 0.2 100 0.2 0 0 984.2 NA 0.0000 9999 6230 0 0 0
2019/04/27 09:48:04 BASE 17.42 338 19.09 340 0.2 100 0.2 0 0 984.2 NA 0.0000 9999 6300 0 0 0
2019/04/27 09:49:06 BASE 17.03 338 19.81 343 0.2 100 0.2 0 0 984.2 NA 0.0000 9999 2070 6300 0 0
2019/04/27 09:50:04 BASE 15.89 341 19.81 343 0.2 100 0.2 0 0 984.2 NA 0.0000 9999 2100 6370 0 0
2019/04/27 09:51:04 BASE 16.59 341 19.81 343 0.3 100 0.3 0 0 984.2 NA 0.0000 9999 6400 0 0 0
2019/04/27 09:52:04 BASE 17.31 339 19.81 343 0.3 100 0.3 0 0 984.3 NA 0.0000 9999 6330 0 0 0
2019/04/27 09:53:05 BASE 16.35 339 19.81 343 0.3 100 0.3 0 0 984.3 NA 0.0000 9999 6270 0 0 0
2019/04/27 09:54:05 BASE 15.97 339 19.81 343 0.3 100 0.3 0 0 984.3 NA 0.0000 9999 6300 0 0 0
2019/04/27 09:55:04 BASE 15.78 338 19.81 343 0.3 100 0.3 0 0 984.3 NA 0.0000 9999 6230 0 0 0
2019/04/27 09:56:04 BASE 15.81 336 19.81 343 0.3 100 0.3 0 0 984.3 NA 0.0000 9999 6140 0 0 0
2019/04/27 09:57:05 BASE 17.75 337 21.14 336 0.3 100 0.3 0 0 984.3 NA 0.0000 9999 6140 0 0 0
2019/04/27 09:58:04 BASE 19.16 335 21.14 336 0.3 100 0.3 0 0 984.3 NA 0.0000 9999 6200 0 0 0
2019/04/27 09:59:05 BASE 18.38 334 21.14 336 0.3 100 0.3 0 0 984.3 NA 0.0000 9999 6370 0 0 0
2019/04/27 10:00:01 BASE 17.45 337 21.14 336 0.3 100 0.3 0 0 984.4 NA 0.0000 9999 6300 0 0 0
2019/04/27 10:01:05 BASE 17.13 335 21.14 336 0.4 100 0.4 0 0 984.5 NA 0.0000 9999 6170 0 0 0
2019/04/27 10:02:04 BASE 17.81 334 21.14 336 0.4 100 0.4 0 0 984.5 NA 0.0000 9999 6140 0 0 0
2019/04/27 10:03:04 BASE 19.44 335 22.53 337 0.4 100 0.4 0 0 984.4 NA 0.0000 9999 6070 0 0 0
2019/04/27 10:04:04 BASE 20.20 333 22.53 337 0.4 100 0.4 0 0 984.4 NA 0.0000 9999 6270 0 0 0
2019/04/27 10:05:05 BASE 19.43 331 22.53 337 0.4 100 0.4 0 0 984.5 NA 0.0000 9999 6300 0 0 0
2019/04/27 10:06:05 BASE 18.38 331 22.53 337 0.4 100 0.4 0 0 984.6 NA 0.0000 9999 6270 0 0 0
2019/04/27 10:07:06 BASE 18.07 329 22.53 337 0.3 100 0.3 0 0 984.6 NA 0.0000 9999 6140 0 0 0
2019/04/27 10:08:05 BASE 17.78 329 22.53 337 0.3 100 0.3 0 0 984.7 NA 0.0000 9999 6170 0 0 0
2019/04/27 10:09:06 BASE 18.52 328 22.53 337 0.3 100 0.3 0 0 984.6 NA 0.0000 9999 5840 0 0 0
2019/04/27 10:10:05 BASE 19.11 329 22.53 337 0.3 100 0.3 0 0 984.7 NA 0.0000 9999 5710 0 0 0
2019/04/27 10:11:07 BASE 18.25 330 22.53 337 0.3 100 0.3 0 0 984.7 NA 0.0000 9999 3150 0 0 0
2019/04/27 10:12:05 BASE 17.70 328 22.53 337 0.3 100 0.3 0 0 984.7 NA 0.0000 9999 3350 5970 0 0
2019/04/27 10:13:06 BASE 16.45 328 22.07 328 0.3 100 0.3 0 0 984.8 NA 0.0000 9999 5710 0 0 0
2019/04/27 10:14:05 BASE 16.03 328 21.40 335 0.3 100 0.3 0 0 984.8 NA 0.0000 9999 5870 0 0 0
2019/04/27 10:15:05 BASE 16.39 327 21.20 331 0.3 100 0.3 0 0 984.8 NA 0.0000 9999 3480 6140 0 0
2019/04/27 10:16:05 BASE 16.83 325 21.20 331 0.3 100 0.3 0 0 984.8 NA 0.0000 9999 3310 6400 0 0
2019/04/27 10:17:06 BASE 17.07 324 21.20 331 0.3 100 0.3 0 0 984.8 NA 0.0000 9999 3180 0 0 0
2019/04/27 10:18:01 BASE 16.83 324 21.20 331 0.3 100 0.3 0 0 984.8 NA 0.0000 9999 2990 0 0 0
2019/04/27 10:19:05 BASE 16.53 325 20.11 331 0.3 100 0.3 0 0 984.8 NA 0.0000 9999 6500 0 0 0
2019/04/27 10:20:04 BASE 16.67 325 20.11 331 0.3 100 0.3 0 0 984.8 NA 0.0000 9999 6730 0 0 0
2019/04/27 10:21:05 BASE 15.98 326 19.81 319 0.3 100 0.3 0 0 984.8 NA 0.0000 9999 6500 0 0 0
2019/04/27 10:22:04 BASE 16.09 324 19.81 319 0.3 100 0.3 0 0 984.8 NA 0.0000 9999 6430 0 0 0
2019/04/27 10:23:04 BASE 17.25 323 19.81 319 0.3 100 0.3 0 0 984.8 NA 0.0000 9999 6330 0 0 0
2019/04/27 10:24:04 BASE 18.92 322 22.02 312 0.3 100 0.3 0 0 984.8 NA 0.0000 9999 5510 6330 0 0
2019/04/27 10:25:05 BASE 19.10 320 22.02 312 0.3 100 0.3 0 0 984.9 NA 0.0000 9999 5610 0 0 0
2019/04/27 10:26:04 BASE 17.84 321 22.02 312 0.3 100 0.3 0 0 984.9 NA 0.0000 9999 6140 0 0 0
2019/04/27 10:27:05 BASE 18.30 323 22.02 312 0.3 100 0.3 0 0 984.8 NA 0.0000 9999 6100 0 0 0
2019/04/27 10:28:04 BASE 18.04 324 22.02 312 0.4 100 0.4 0 0 984.9 NA 0.0000 9999 5870 0 0 0
2019/04/27 10:29:05 BASE 18.02 323 22.02 312 0.4 100 0.4 0 0 984.9 NA 0.0000 9999 5810 0 0 0
2019/04/27 10:30:05 BASE 18.83 321 22.02 312 0.4 100 0.4 0 0 984.9 NA 0.0000 9999 5150 5840 0 0
2019/04/27 10:31:03 BASE 18.30 320 22.02 312 0.4 100 0.4 0 0 984.9 NA 0.0000 9999 5710 0 0 0
2019/04/27 10:32:04 BASE 18.51 320 22.02 312 0.4 100 0.4 0 0 984.9 NA 0.0000 9999 4660 0 0 0
2019/04/27 10:33:04 BASE 20.42 316 23.10 308 0.4 100 0.4 0 0 984.9 NA 0.0000 9999 4760 5770 0 0
2019/04/27 10:34:04 BASE 20.09 313 23.10 308 0.4 100 0.4 0 0 985.0 NA 0.0000 9999 4660 5710 0 0
2019/04/27 10:35:04 BASE 19.84 312 23.25 313 0.4 100 0.4 0 0 985.0 NA 0.0000 9999 4990 0 0 0
2019/04/27 10:36:04 BASE 22.38 309 24.90 311 0.3 100 0.3 0 0 985.0 NA 0.0000 9999 4720 0 0 0
2019/04/27 10:37:05 BASE 24.09 307 27.01 304 0.3 100 0.2 0 0 985.0 NA 0.0000 9999 4430 5120 0 0
2019/04/27 10:38:05 BASE 23.24 307 27.01 304 0.2 99 0.1 0 0 985.0 NA 0.0000 9999 4400 5050 0 0
2019/04/27 10:39:04 BASE 21.61 305 27.01 304 0.1 99 -0.1 0 0 985.2 NA 0.0000 9999 4560 0 0 0
2019/04/27 10:40:04 BASE 19.47 303 27.01 304 -0.1 99 -0.3 0 0 985.2 NA 0.0000 9999 0 0 0 5640
2019/04/27 10:41:05 BASE 17.35 300 27.01 304 -0.1 98 -0.4 0 0 985.3 NA 0.0000 9999 4660 0 0 0
2019/04/27 10:42:05 BASE 17.96 299 27.01 304 -0.2 98 -0.5 0 0 985.3 NA 0.0000 7000 0 0 0 5450
2019/04/27 10:43:04 BASE 19.32 300 27.01 304 -0.2 98 -0.5 0 0 985.3 NA 0.0000 7000 890 0 0 0
2019/04/27 10:44:05 BASE 19.76 297 27.01 304 -0.3 98 -0.5 0 0 985.3 NA 0.0000 UP 8000 0 0 0 3670
2019/04/27 10:45:05 BASE 20.99 293 27.01 304 -0.3 98 -0.6 0 0 985.3 NA 0.0000 UP BR 5000 360 0 0 0
2019/04/27 10:46:06 BASE 22.17 290 27.01 304 -0.3 98 -0.6 0 0 985.4 NA 0.0000 UP BR 5000 330 0 0 0
2019/04/27 10:47:05 BASE 21.97 286 25.67 290 -0.4 99 -0.6 0 0 985.4 NA 0.0000 UP BR 7000 460 0 0 0
2019/04/27 10:48:06 BASE 21.30 282 25.67 290 -0.4 99 -0.5 0 0 985.5 NA 0.0000 UP BR 4300 390 0 0 0
2019/04/27 10:49:06 BASE 20.71 281 25.67 290 -0.5 99 -0.5 0 0 985.6 NA 0.0000 UP BR 2000 0 0 0 2330
2019/04/27 10:50:05 BASE 18.89 282 25.67 290 -0.6 100 -0.6 0 0 985.6 NA 0.0000 UP BR 1500 0 0 0 1740
2019/04/27 10:51:01 BASE 18.03 283 25.67 290 -0.6 100 -0.6 0 0 985.7 NA 0.0000 UP BR 1400 0 0 0 2170
2019/04/27 10:52:04 BASE 19.98 282 25.67 290 -0.7 100 -0.7 0 0 985.7 NA 0.0000 UP BR 1500 0 0 0 2360
2019/04/27 10:53:05 BASE 20.91 281 25.67 290 -0.7 100 -0.7 0 0 985.8 NA 0.0000 UP BR 1300 0 0 0 1610
2019/04/27 10:54:04 BASE 19.13 282 25.67 290 -0.8 100 -0.8 0 0 985.9 NA 0.0000 UP BR 1100 0 0 0 1250
2019/04/27 10:55:04 BASE 18.64 283 25.67 290 -0.8 100 -0.8 0 0 985.9 NA 0.0000 UP BR 1000 0 0 0 950
2019/04/27 10:56:04 BASE 18.23 283 25.67 290 -0.8 100 -0.8 0 0 985.9 NA 0.0000 -SN BR 1000 0 0 0 790
2019/04/27 10:57:06 BASE 16.15 281 23.30 271 -0.9 100 -0.9 0 0 985.9 NA 0.0000 -SN BR 1200 0 0 0 790
2019/04/27 10:58:04 BASE 14.41 279 23.30 271 -1.0 100 -1.0 0 0 985.9 NA 0.0000 -SN BR 1700 0 0 0 950
2019/04/27 10:59:06 BASE 13.87 275 23.30 271 -1.0 100 -1.0 0 0 985.8 NA 0.0000 -SN BR 2300 0 0 0 1150
2019/04/27 11:00:01 BASE 14.98 276 23.30 271 -1.1 100 -1.1 0 0 985.8 NA 0.0000 -SN BR 2200 0 0 0 1350
2019/04/27 11:01:05 BASE 15.36 278 23.30 271 -1.1 100 -1.1 0 0 985.8 NA 0.0000 -SN BR 2300 0 0 0 1350
2019/04/27 11:02:04 BASE 14.53 279 22.53 274 -1.2 100 -1.2 0 0 985.8 NA 0.0000 -SN BR 2700 0 0 0 1510
2019/04/27 11:03:05 BASE 14.35 275 22.53 274 -1.2 100 -1.2 0 0 985.8 NA 0.0000 -SN BR 3100 0 0 0 1610
2019/04/27 11:04:04 BASE 14.43 269 21.50 283 -1.2 100 -1.2 0 0 985.8 NA 0.0000 -SN BR 3600 0 0 0 1540
2019/04/27 11:05:06 BASE 13.47 271 20.06 277 -1.2 100 -1.2 0 0 985.8 NA 0.0000 -SN BR 3200 0 0 0 1740
2019/04/27 11:06:05 BASE 13.98 275 18.31 281 -1.2 100 -1.2 0 0 985.8 NA 0.0000 -SN BR 3200 0 0 0 1840
2019/04/27 11:07:04 BASE 13.62 275 18.01 276 -1.2 100 -1.2 0 0 985.8 NA 0.0000 -SN BR 3300 0 0 0 1900
2019/04/27 11:08:05 BASE 11.83 281 18.01 276 -1.2 100 -1.2 0 0 985.7 NA 0.0000 -SN BR 3700 0 0 0 2400
2019/04/27 11:09:04 BASE 11.28 287 18.01 276 -1.2 100 -1.2 0 0 985.7 NA 0.0000 -SN BR 4700 0 0 0 1900
2019/04/27 11:10:04 BASE 10.86 292 18.01 276 -1.2 100 -1.2 0 0 985.7 NA 0.0000 -SN BR 5000 0 0 0 2200
2019/04/27 11:11:04 BASE 10.31 294 18.01 276 -1.2 100 -1.2 0 0 985.7 NA 0.0000 -SN BR 6000 0 0 0 3670
2019/04/27 11:12:04 BASE 9.38 298 18.01 276 -1.2 100 -1.2 0 0 985.7 NA 0.0000 -SN BR 9000 260 0 0 0
2019/04/27 11:13:05 BASE 9.39 304 17.39 274 -1.2 100 -1.2 0 0 985.7 NA 0.0000 -SN BR 8000 330 0 0 0
2019/04/27 11:14:04 BASE 9.83 304 17.39 274 -1.2 100 -1.2 0 0 985.6 NA 0.0000 -SN BR 9000 2690 4040 0 0
2019/04/27 11:15:04 BASE 10.18 302 17.39 274 -1.1 100 -1.1 0 0 985.6 NA 0.0000 -SN BR 9999 2590 3480 0 0
2019/04/27 11:16:04 BASE 10.30 302 13.27 276 -1.1 100 -1.1 0 0 985.7 NA 0.0000 -SN BR 9999 2430 0 0 0
2019/04/27 11:17:05 BASE 10.40 300 13.27 276 -1.1 100 -1.1 0 0 985.7 NA 0.0000 -SN BR 9999 660 0 0 0
2019/04/27 11:18:05 BASE 11.10 297 12.19 293 -1.1 100 -1.1 0 0 985.8 NA 0.0000 -SN BR 9999 430 0 0 0
2019/04/27 11:19:04 BASE 11.96 294 13.32 292 -1.1 100 -1.1 0 0 985.9 NA 0.0000 -SN BR 9999 330 1510 0 0
2019/04/27 11:20:03 BASE 12.20 296 13.32 292 -1.1 100 -1.1 0 0 986.0 NA 0.0000 -SN BR 3800 0 0 0 1180
2019/04/27 11:21:05 BASE 14.19 303 19.03 305 -1.0 100 -1.0 0 0 985.9 NA 0.0000 -SN BR 3000 0 0 0 980
2019/04/27 11:22:04 BASE 16.85 306 19.91 304 -1.0 100 -1.0 0 0 985.9 NA 0.0000 -SN BR 4400 0 0 0 890
2019/04/27 11:23:04 BASE 17.77 306 19.91 304 -1.0 100 -1.0 0 0 985.9 NA 0.0000 -SN BR 5000 0 0 0 720
2019/04/27 11:24:04 BASE 19.32 307 22.69 303 -1.0 100 -1.0 0 0 985.9 NA 0.2540 -SN BR 6000 0 0 0 980
2019/04/27 11:25:05 BASE 19.59 309 22.69 303 -1.1 100 -1.1 0 0 986.0 NA 0.0000 -SN BR 9000 0 0 0 2430
2019/04/27 11:26:04 BASE 19.37 311 22.69 303 -1.1 100 -1.1 0 0 985.9 NA 0.0000 -SN BR 9999 0 0 0 3900
2019/04/27 11:27:04 BASE 19.15 310 22.69 303 -1.2 100 -1.2 0 0 986.0 NA 0.0000 -SN BR 9999 3540 0 0 0
2019/04/27 11:28:04 BASE 18.90 310 22.69 303 -1.2 100 -1.2 0 0 986.0 NA 0.0000 -SN BR 9999 950 3710 0 0
2019/04/27 11:29:04 BASE 19.42 312 22.69 303 -1.2 100 -1.2 0 0 986.0 NA 0.0000 -SN BR 9999 920 0 0 0
2019/04/27 11:30:05 BASE 18.99 314 22.69 303 -1.2 100 -1.2 0 0 986.0 NA 0.0000 -SN BR 9999 360 0 0 0
2019/04/27 11:31:03 BASE 20.96 311 25.46 309 -1.2 100 -1.2 0 0 986.0 NA 0.0000 -SN BR 9999 260 0 0 0
2019/04/27 11:32:04 BASE 22.10 307 25.46 309 -1.1 100 -1.1 0 0 986.0 NA 0.0000 -SN 7000 0 0 0 1800
2019/04/27 11:33:05 BASE 20.77 306 25.46 309 -1.2 100 -1.2 0 0 986.0 NA 0.0000 -SN BR 4200 0 0 0 1970
2019/04/27 11:34:04 BASE 20.78 305 25.46 309 -1.2 100 -1.2 0 0 986.0 NA 0.0000 -SN BR 6000 0 0 0 2200
2019/04/27 11:35:04 BASE 19.73 308 25.46 309 -1.2 100 -1.2 0 0 986.0 NA 0.0000 -SN BR 9999 330 0 0 0
2019/04/27 11:36:04 BASE 19.32 310 25.46 309 -1.2 100 -1.2 0 0 986.0 NA 0.0000 -SN BR 6000 0 0 0 1210
2019/04/27 11:37:05 BASE 19.80 307 25.46 309 -1.3 100 -1.3 0 0 986.0 NA 0.0000 -SN BR 5000 0 0 0 1020
2019/04/27 11:38:03 BASE 18.47 306 25.46 309 -1.3 100 -1.3 0 0 986.0 NA 0.0000 -SN BR 6000 0 0 0 1020
2019/04/27 11:39:04 BASE 16.13 305 25.46 309 -1.3 100 -1.3 0 0 986.0 NA 0.0000 -SN BR 6000 0 0 0 3120
2019/04/27 11:40:03 BASE 15.19 307 25.46 309 -1.3 100 -1.3 0 0 986.0 NA 0.0000 -SN BR 9000 5540 0 0 0
2019/04/27 11:41:04 BASE 15.10 311 23.05 305 -1.3 100 -1.3 0 0 985.9 NA 0.0000 -SN BR 9999 0 0 0 4270
2019/04/27 11:42:04 BASE 14.58 312 22.43 303 -1.3 100 -1.3 0 0 985.8 NA 0.0000 -SN BR 9999 390 0 0 0
2019/04/27 11:43:04 BASE 13.87 316 22.43 303 -1.3 100 -1.3 0 0 985.8 NA 0.0000 -SN BR 9999 0 0 0 2300
2019/04/27 11:44:05 BASE 12.72 319 21.92 309 -1.3 100 -1.3 1 0 985.8 NA 0.0000 -SN BR 9999 5580 0 0 0
2019/04/27 11:45:04 BASE 12.68 319 21.92 309 -1.3 100 -1.3 1 0 985.8 NA 0.0000 -SN BR 9999 4040 6270 0 0
2019/04/27 11:46:05 BASE 13.07 321 20.42 303 -1.3 100 -1.3 1 0 985.8 NA 0.0000 -SN BR 9999 3810 6100 0 0
2019/04/27 11:47:05 BASE 12.41 324 19.60 306 -1.3 100 -1.3 1 0 985.8 NA 0.0000 -SN 9999 5910 0 0 0
2019/04/27 11:48:05 BASE 12.55 329 16.98 299 -1.3 100 -1.3 1 0 985.8 NA 0.0000 -SN 9999 5680 0 0 0
2019/04/27 11:49:06 BASE 13.74 334 16.72 307 -1.3 100 -1.3 1 0 985.8 NA 0.0000 -SN 9999 5840 0 0 0
2019/04/27 11:50:04 BASE 14.38 336 16.20 311 -1.2 100 -1.2 1 0 985.8 NA 0.0000 -SN 9999 5840 0 0 0
2019/04/27 11:51:04 BASE 14.32 339 15.95 337 -1.2 100 -1.2 1 0 985.8 NA 0.0000 9999 6170 0 0 0
2019/04/27 11:52:04 BASE 13.63 341 15.95 337 -1.2 100 -1.2 1 0 985.9 NA 0.0000 9999 6040 0 0 0
2019/04/27 11:53:05 BASE 13.80 340 15.95 337 -1.2 100 -1.2 2 0 985.8 NA 0.0000 9999 5870 0 0 0
2019/04/27 11:54:05 BASE 14.13 340 15.95 337 -1.2 100 -1.2 2 0 985.9 NA 0.0000 9999 5770 0 0 0
2019/04/27 11:55:04 BASE 14.19 339 15.95 337 -1.2 100 -1.2 2 0 985.9 NA 0.0000 9999 5870 0 0 0
2019/04/27 11:56:05 BASE 13.69 340 15.95 337 -1.1 100 -1.1 2 0 986.0 NA 0.0000 9999 5940 0 0 0
2019/04/27 11:57:05 BASE 12.90 343 15.95 337 -1.1 100 -1.1 2 0 986.0 NA 0.0000 9999 5870 0 0 0
2019/04/27 11:58:05 BASE 12.63 344 15.95 337 -1.1 100 -1.1 2 0 986.0 NA 0.0000 9999 5970 0 0 0
2019/04/27 11:59:06 BASE 12.35 343 15.95 337 -1.1 100 -1.1 2 0 986.0 NA 0.0000 9999 5940 0 0 0
2019/04/27 12:00:01 BASE 12.12 344 15.79 336 -1.1 100 -1.1 3 0 986.0 NA 0.0000 9999 5870 0 0 0
2019/04/27 12:01:05 BASE 12.36 346 15.79 336 -1.1 100 -1.1 3 0 986.0 NA 0.0000 9999 5940 0 0 0
2019/04/27 12:02:05 BASE 12.59 345 15.79 336 -1.1 100 -1.1 3 0 986.1 NA 0.0000 9999 5910 0 0 0
2019/04/27 12:03:05 BASE 12.41 346 15.79 336 -1.1 100 -1.1 4 0 986.1 NA 0.0000 9999 5970 0 0 0
2019/04/27 12:04:04 BASE 12.41 346 15.79 336 -1.1 100 -1.1 4 0 986.2 NA 0.0000 9999 6040 0 0 0
2019/04/27 12:05:06 BASE 11.74 345 13.79 348 -1.1 100 -1.1 4 0 986.2 NA 0.0000 9999 6000 0 0 0
2019/04/27 12:06:01 BASE 11.24 349 13.79 348 -1.1 100 -1.1 4 0 986.2 NA 0.0000 9999 6070 0 0 0
2019/04/27 12:07:06 BASE 10.64 351 13.79 348 -1.1 100 -1.1 4 0 986.2 NA 0.0000 9999 6270 0 0 0
2019/04/27 12:08:05 BASE 10.45 351 13.79 348 -1.1 100 -1.1 4 0 986.2 NA 0.0000 9999 6230 0 0 0
2019/04/27 12:09:05 BASE 11.69 350 14.25 344 -1.1 100 -1.1 4 0 986.2 NA 0.0000 9999 6100 0 0 0
2019/04/27 12:10:05 BASE 12.50 347 14.25 344 -1.0 100 -1.0 4 0 986.2 NA 0.0000 9999 6070 0 0 0
2019/04/27 12:11:06 BASE 12.41 346 14.25 344 -1.0 100 -1.0 4 0 986.2 NA 0.0000 9999 6140 0 0 0
2019/04/27 12:12:05 BASE 12.39 346 14.25 344 -1.0 100 -1.0 4 0 986.3 NA 0.0000 9999 6140 0 0 0
2019/04/27 12:13:05 BASE 12.86 342 14.25 336 -0.9 100 -0.9 4 0 986.3 NA 0.0000 9999 0 0 0 490
2019/04/27 12:14:04 BASE 13.18 340 14.40 340 -0.9 100 -0.9 4 0 986.3 NA 0.0000 9999 0 0 0 560
2019/04/27 12:15:05 BASE 13.04 338 14.40 340 -0.8 100 -0.8 4 0 986.3 NA 0.0000 9999 6330 0 0 0
2019/04/27 12:16:05 BASE 13.19 340 15.48 346 -0.8 100 -0.8 4 0 986.3 NA 0.0000 9999 6170 0 0 0
2019/04/27 12:17:05 BASE 13.77 343 16.00 346 -0.7 100 -0.7 4 0 986.3 NA 0.0000 9999 6000 0 0 0
2019/04/27 12:18:05 BASE 14.28 343 16.00 346 -0.6 100 -0.6 4 0 986.3 NA 0.0000 9999 6000 0 0 0
2019/04/27 12:19:06 BASE 13.95 341 16.00 346 -0.6 100 -0.6 5 0 986.4 NA 0.0000 9999 5810 0 0 0
2019/04/27 12:20:04 BASE 13.38 345 16.00 346 -0.5 100 -0.5 5 0 986.4 NA 0.0000 9999 5840 0 0 0
2019/04/27 12:21:05 BASE 13.32 347 16.00 346 -0.4 100 -0.4 5 0 986.4 NA 0.0000 9999 5770 0 0 0
2019/04/27 12:22:06 BASE 13.84 347 16.36 351 -0.4 100 -0.4 6 0 986.3 NA 0.0000 9999 5940 0 0 0
2019/04/27 12:23:06 BASE 14.68 346 16.62 352 -0.3 100 -0.3 6 0 986.3 NA 0.0000 9999 5450 6200 0 0
2019/04/27 12:24:05 BASE 14.22 346 16.62 352 -0.3 100 -0.3 7 0 986.4 NA 0.0000 9999 5740 0 0 0
2019/04/27 12:25:06 BASE 13.29 345 16.62 352 -0.3 100 -0.3 7 0 986.4 NA 0.0000 9999 5320 0 0 0
2019/04/27 12:26:05 BASE 13.26 344 16.62 352 -0.3 100 -0.3 8 0 986.4 NA 0.0000 9999 5250 0 0 0
2019/04/27 12:27:05 BASE 13.33 345 16.62 352 -0.2 100 -0.2 8 0 986.3 NA 0.0000 9999 5220 0 0 0
2019/04/27 12:28:05 BASE 13.09 346 16.62 352 -0.2 100 -0.2 9 0 986.4 NA 0.0000 9999 5180 0 0 0
2019/04/27 12:29:06 BASE 12.33 346 16.62 352 -0.2 100 -0.2 9 0 986.4 NA 0.0000 9999 5180 0 0 0
2019/04/27 12:30:06 BASE 12.57 346 16.62 352 -0.2 100 -0.2 10 0 986.4 NA 0.0000 9999 5120 0 0 0
2019/04/27 12:31:01 BASE 12.83 346 16.62 352 -0.2 100 -0.2 11 0 986.4 NA 0.0000 9999 5090 0 0 0
2019/04/27 12:32:05 BASE 13.41 345 16.62 352 -0.2 100 -0.2 11 0 986.3 NA 0.0000 9999 4990 0 0 0
2019/04/27 12:33:06 BASE 14.74 343 15.95 349 -0.1 100 -0.1 11 0 986.3 NA 0.0000 9999 5020 6040 0 0
2019/04/27 12:34:05 BASE 14.63 343 15.74 341 -0.1 100 -0.1 11 0 986.4 NA 0.0000 9999 5910 0 0 0
2019/04/27 12:35:01 BASE 15.45 344 18.88 341 -0.1 100 -0.1 11 0 986.3 NA 0.0000 9999 4890 5770 0 0
2019/04/27 12:36:05 BASE 16.82 343 18.88 341 -0.1 100 -0.1 10 0 986.3 NA 0.0000 9999 4820 5450 0 0
2019/04/27 12:37:05 BASE 16.47 340 18.88 341 -0.1 100 -0.1 8 0 986.3 NA 0.0000 9999 5350 5970 0 0
2019/04/27 12:38:04 BASE 15.69 340 18.88 341 -0.0 100 -0.1 8 0 986.3 NA 0.0000 9999 5710 0 0 0
2019/04/27 12:39:04 BASE 15.43 342 18.88 341 -0.0 99 -0.1 8 0 986.4 NA 0.0000 9999 5740 0 0 0
2019/04/27 12:40:04 BASE 14.39 346 18.88 341 -0.0 99 -0.2 8 0 986.4 NA 0.0000 9999 5540 0 0 0
2019/04/27 12:41:05 BASE 14.04 349 18.88 341 0.0 98 -0.2 7 0 986.4 NA 0.0000 9999 5180 6100 0 0
2019/04/27 12:42:04 BASE 14.70 348 18.88 341 0.0 98 -0.3 7 0 986.4 NA 0.0000 9999 4460 0 0 0
2019/04/27 12:43:05 BASE 15.83 347 18.88 341 0.0 98 -0.3 7 0 986.3 NA 0.0000 9999 4000 0 0 0
2019/04/27 12:44:03 BASE 16.37 347 18.88 341 0.0 98 -0.3 6 0 986.3 NA 0.0000 9999 4130 5090 0 0
2019/04/27 12:45:04 BASE 15.84 348 18.78 341 0.0 98 -0.3 7 0 986.3 NA 0.0000 9999 4130 5090 0 0
2019/04/27 12:46:03 BASE 15.67 348 17.75 345 0.0 98 -0.3 7 0 986.3 NA 0.0000 9999 5150 0 0 0
2019/04/27 12:47:04 BASE 15.98 350 17.75 345 0.0 97 -0.3 8 0 986.3 NA 0.0000 9999 0 0 0 5810
2019/04/27 12:48:04 BASE 16.73 350 18.67 347 0.0 97 -0.4 9 0 986.3 NA 0.0000 9999 5050 0 0 0
2019/04/27 12:49:04 BASE 15.77 349 18.67 347 0.1 97 -0.4 10 0 986.4 NA 0.0000 9999 4950 0 0 0
2019/04/27 12:50:04 BASE 15.53 348 18.98 353 0.1 96 -0.4 11 0 986.4 NA 0.0000 9999 4920 0 0 0
2019/04/27 12:51:04 BASE 17.00 352 19.14 69 0.1 96 -0.5 12 0 986.3 NA 0.0000 9999 4820 5380 0 0
2019/04/27 12:52:04 BASE 16.07 355 19.14 69 0.1 95 -0.5 12 0 986.4 NA 0.0000 9999 4890 0 0 0
2019/04/27 12:53:04 BASE 15.43 352 19.14 69 0.2 95 -0.5 13 0 986.3 NA 0.0000 9999 4820 0 0 0
2019/04/27 12:54:04 BASE 16.67 349 19.14 69 0.2 95 -0.5 15 0 986.4 NA 0.0000 9999 5640 0 0 0
2019/04/27 12:55:03 BASE 16.82 343 19.14 69 0.2 95 -0.5 16 0 986.4 NA 0.0000 9999 5510 0 0 0
2019/04/27 12:56:04 BASE 16.30 342 19.14 69 0.2 95 -0.5 18 0 986.3 NA 0.0000 9999 5450 0 0 0
2019/04/27 12:57:05 BASE 15.70 344 19.14 69 0.2 95 -0.5 19 0 986.4 NA 0.0000 9999 5510 0 0 0
2019/04/27 12:58:05 BASE 16.84 342 19.39 332 0.1 95 -0.5 21 0 986.3 NA 0.0000 9999 5220 0 0 0
2019/04/27 12:59:04 BASE 17.72 338 19.39 332 0.2 96 -0.5 22 0 986.4 NA 0.0000 9999 5020 0 0 0
2019/04/27 13:00:01 BASE 16.85 336 19.39 332 0.1 96 -0.4 24 0 986.4 NA 0.0000 9999 5580 6070 0 0
2019/04/27 13:01:05 BASE 16.75 339 19.39 332 0.1 96 -0.4 26 0 986.4 NA 0.0000 9999 5870 0 0 0
2019/04/27 13:02:04 BASE 16.69 342 19.39 332 0.1 96 -0.4 26 0 986.4 NA 0.0000 9999 5320 0 0 0
2019/04/27 13:03:05 BASE 15.93 343 19.39 332 0.1 96 -0.4 26 0 986.4 NA 0.0000 9999 4950 6070 0 0
2019/04/27 13:04:04 BASE 15.73 342 19.39 332 0.1 96 -0.4 26 0 986.5 NA 0.0000 9999 4890 0 0 0
2019/04/27 13:05:04 BASE 15.69 341 19.39 332 0.1 97 -0.4 26 0 986.5 NA 0.0000 9999 4950 5510 0 0
2019/04/27 13:06:05 BASE 15.83 342 19.39 332 0.1 97 -0.3 25 0 986.5 NA 0.0000 9999 4890 0 0 0
2019/04/27 13:07:05 BASE 16.46 343 19.39 332 0.1 97 -0.3 25 0 986.4 NA 0.0000 9999 4890 0 0 0
2019/04/27 13:08:03 BASE 16.79 342 19.24 347 0.1 97 -0.3 25 0 986.5 NA 0.0000 9999 4920 0 0 0
2019/04/27 13:09:05 BASE 16.59 342 19.24 347 0.1 97 -0.3 25 0 986.5 NA 0.0000 9999 5770 0 0 0
2019/04/27 13:10:03 BASE 17.01 339 19.24 331 0.1 97 -0.3 24 0 986.5 NA 0.0000 9999 4950 5770 0 0
2019/04/27 13:11:05 BASE 17.28 338 19.24 331 0.1 97 -0.3 24 0 986.5 NA 0.0000 9999 4990 0 0 0
2019/04/27 13:12:05 BASE 16.39 338 19.24 331 0.1 97 -0.2 24 0 986.5 NA 0.0000 9999 4950 5480 0 0
2019/04/27 13:13:05 BASE 15.43 338 19.24 331 0.1 98 -0.2 24 0 986.5 NA 0.0000 9999 5020 0 0 0
2019/04/27 13:14:04 BASE 15.51 341 19.24 331 0.1 98 -0.2 24 0 986.5 NA 0.0000 9999 5480 0 0 0
2019/04/27 13:15:05 BASE 16.30 342 19.24 331 0.2 98 -0.1 25 0 986.5 NA 0.0000 9999 5640 0 0 0
2019/04/27 13:16:04 BASE 16.54 342 19.34 346 0.2 98 -0.1 26 0 986.5 NA 0.0000 9999 4990 5640 0 0
2019/04/27 13:17:04 BASE 16.35 342 19.34 346 0.2 98 -0.1 27 0 986.5 NA 0.0000 9999 5020 0 0 0
2019/04/27 13:18:04 BASE 16.26 341 19.34 346 0.2 98 -0.1 27 0 986.5 NA 0.0000 9999 5020 0 0 0
2019/04/27 13:19:05 BASE 16.98 342 19.34 346 0.2 98 -0.0 28 0 986.5 NA 0.0000 9999 4990 0 0 0
2019/04/27 13:20:05 BASE 17.60 341 20.58 337 0.2 99 0.0 29 0 986.5 NA 0.0000 9999 5020 0 0 0
2019/04/27 13:21:04 BASE 17.94 341 20.58 337 0.2 99 0.0 31 0 986.5 NA 0.0000 9999 5540 0 0 0
2019/04/27 13:22:05 BASE 18.16 341 20.58 337 0.2 99 0.1 35 0 986.5 NA 0.0000 9999 5120 0 0 0
2019/04/27 13:23:06 BASE 17.39 343 20.58 337 0.2 99 0.1 39 0 986.5 NA 0.0000 9999 5250 6230 0 0
2019/04/27 13:24:05 BASE 16.59 342 20.58 337 0.2 99 0.1 42 0 986.6 NA 0.0000 9999 5220 12400 0 0
2019/04/27 13:25:05 BASE 16.18 343 20.58 337 0.2 99 0.1 43 0 986.5 NA 0.0000 9999 5280 12400 0 0
2019/04/27 13:26:05 BASE 15.47 343 20.58 337 0.2 99 0.0 43 0 986.6 NA 0.0000 9999 12400 0 0 0
2019/04/27 13:27:05 BASE 15.28 341 20.58 337 0.2 99 0.0 42 0 986.6 NA 0.0000 9999 0 0 0 490
2019/04/27 13:28:05 BASE 15.51 340 20.58 337 0.1 99 0.0 42 0 986.6 NA 0.0000 9999 0 0 0 660
2019/04/27 13:29:05 BASE 15.59 340 20.58 337 0.1 99 0.0 42 0 986.6 NA 0.0000 9999 0 0 0 590
2019/04/27 13:30:05 BASE 16.12 342 19.81 340 0.1 100 0.1 42 0 986.5 NA 0.0000 9999 0 0 0 590
2019/04/27 13:31:05 BASE 16.24 343 19.24 346 0.1 100 0.1 42 0 986.5 NA 0.0000 9999 0 0 0 490
2019/04/27 13:32:05 BASE 15.75 342 18.11 346 0.1 100 0.1 41 0 986.5 NA 0.0000 9999 0 0 0 390
2019/04/27 13:33:05 BASE 15.47 342 18.06 339 0.1 100 0.1 42 0 986.5 NA 0.0000 9999 0 0 0 560
2019/04/27 13:34:05 BASE 14.96 341 18.06 339 0.1 100 0.1 42 0 986.6 NA 0.0000 9999 0 0 0 520
2019/04/27 13:35:05 BASE 14.61 340 18.06 339 0.1 100 0.1 42 0 986.6 NA 0.0000 9999 0 0 0 560
2019/04/27 13:36:06 BASE 15.29 343 18.06 339 0.1 100 0.1 42 0 986.5 NA 0.0000 9999 0 0 0 430
2019/04/27 13:37:06 BASE 15.63 343 18.06 339 0.1 100 0.1 40 0 986.6 NA 0.0000 9999 0 0 0 520
2019/04/27 13:38:06 BASE 14.91 344 18.06 339 0.1 100 0.1 39 0 986.6 NA 0.0000 9999 0 0 0 560
2019/04/27 13:39:01 BASE 14.61 345 18.06 339 0.1 100 0.1 40 0 986.6 NA 0.0000 9999 0 0 0 590
2019/04/27 13:40:05 BASE 15.06 344 18.01 347 0.1 100 0.1 40 0 986.6 NA 0.0000 9999 0 0 0 560
2019/04/27 13:41:06 BASE 15.11 346 18.01 347 0.1 100 0.1 41 0 986.6 NA 0.0000 9999 0 0 0 590
2019/04/27 13:42:06 BASE 15.16 348 18.01 347 0.1 100 0.1 42 0 986.6 NA 0.0000 9999 0 0 0 620
2019/04/27 13:43:05 BASE 15.03 344 18.01 347 0.1 100 0.1 41 0 986.6 NA 0.0000 9999 0 0 0 660
2019/04/27 13:44:01 BASE 14.82 344 18.01 347 0.1 100 0.1 40 0 986.6 NA 0.0000 9999 0 0 0 620
2019/04/27 13:45:05 BASE 14.76 349 18.01 347 0.1 100 0.1 39 0 986.5 NA 0.0000 9999 6530 0 0 0
2019/04/27 13:46:04 BASE 15.28 351 18.26 350 0.1 100 0.1 38 0 986.5 NA 0.0000 9999 6460 0 0 0
2019/04/27 13:47:05 BASE 15.20 349 18.26 350 0.2 100 0.2 39 0 986.5 NA 0.0000 9999 6300 0 0 0
2019/04/27 13:48:04 BASE 14.22 347 18.26 350 0.2 100 0.2 38 0 986.6 NA 0.0000 9999 6230 0 0 0
2019/04/27 13:49:05 BASE 13.41 348 18.26 350 0.2 100 0.2 38 0 986.6 NA 0.0000 9999 6170 0 0 0
2019/04/27 13:50:04 BASE 13.62 350 18.26 350 0.3 99 0.2 36 0 986.6 NA 0.0000 9999 6100 0 0 0
2019/04/27 13:51:04 BASE 13.71 351 18.26 350 0.3 99 0.1 35 0 986.5 NA 0.0000 9999 5770 0 0 0
2019/04/27 13:52:04 BASE 13.79 352 18.26 350 0.3 98 0.1 33 0 986.5 NA 0.0000 9999 5580 0 0 0
2019/04/27 13:53:05 BASE 14.28 354 18.26 350 0.3 98 0.0 32 0 986.5 NA 0.0000 9999 5410 0 0 0
2019/04/27 13:54:04 BASE 14.89 354 18.26 350 0.3 98 0.0 29 0 986.5 NA 0.0000 9999 5320 0 0 0
2019/04/27 13:55:03 BASE 14.93 353 18.26 350 0.4 97 -0.0 27 0 986.5 NA 0.0000 9999 5320 0 0 0
2019/04/27 13:56:03 BASE 14.22 352 17.03 360 0.4 97 -0.1 26 0 986.5 NA 0.0000 9999 5120 0 0 0
2019/04/27 13:57:04 BASE 14.58 352 17.03 360 0.4 96 -0.1 26 0 986.5 NA 0.0000 9999 4820 0 0 0
2019/04/27 13:58:05 BASE 14.55 356 17.03 360 0.5 96 -0.1 26 0 986.6 NA 0.0000 9999 4590 0 0 0
2019/04/27 13:59:06 BASE 14.38 351 17.08 347 0.5 95 -0.2 25 0 986.5 NA 0.0000 9999 4860 0 0 0
2019/04/27 14:00:01 BASE 14.82 350 18.21 353 0.5 95 -0.2 25 0 986.5 NA 0.0000 9999 4890 0 0 0
2019/04/27 14:01:04 BASE 15.10 351 18.21 353 0.5 95 -0.2 25 0 986.5 NA 0.0000 9999 4890 0 0 0
2019/04/27 14:02:05 BASE 14.74 350 18.21 353 0.5 95 -0.2 24 0 986.5 NA 0.0000 9999 4790 0 0 0
2019/04/27 14:03:04 BASE 14.88 354 18.21 353 0.5 95 -0.2 24 0 986.5 NA 0.0000 9999 4860 0 0 0
2019/04/27 14:04:04 BASE 14.48 356 18.21 353 0.5 95 -0.2 24 0 986.5 NA 0.0000 9999 4890 0 0 0
2019/04/27 14:05:04 BASE 14.88 352 18.57 345 0.5 95 -0.2 24 0 986.4 NA 0.0000 9999 4890 0 0 0
2019/04/27 14:06:04 BASE 16.02 350 18.57 345 0.5 95 -0.2 25 0 986.4 NA 0.0000 9999 4820 0 0 0
2019/04/27 14:07:05 BASE 16.09 354 18.57 345 0.5 95 -0.2 26 0 986.3 NA 0.0000 9999 4820 0 0 0
2019/04/27 14:08:04 BASE 15.15 354 18.57 345 0.5 95 -0.2 26 0 986.4 NA 0.0000 9999 4890 0 0 0
2019/04/27 14:09:03 BASE 14.95 349 18.57 345 0.5 95 -0.2 27 0 986.4 NA 0.0000 9999 3510 4860 0 0
2019/04/27 14:10:04 BASE 15.87 351 18.57 345 0.5 95 -0.2 28 0 986.3 NA 0.0000 9999 4690 0 0 0
2019/04/27 14:11:04 BASE 16.40 352 18.57 345 0.5 95 -0.2 29 0 986.2 NA 0.0000 9999 3450 4820 0 0
2019/04/27 14:12:04 BASE 15.60 350 18.57 345 0.6 95 -0.2 31 0 986.3 NA 0.0000 9999 4790 0 0 0
2019/04/27 14:13:04 BASE 14.50 350 18.57 345 0.6 95 -0.1 32 0 986.3 NA 0.0000 9999 3410 4130 0 0
2019/04/27 14:14:05 BASE 14.99 349 18.57 345 0.6 95 -0.1 34 0 986.2 NA 0.0000 9999 4660 0 0 0
2019/04/27 14:15:04 BASE 16.10 351 18.31 345 0.6 95 -0.2 36 0 986.2 NA 0.0000 9999 4630 0 0 0
2019/04/27 14:16:04 BASE 16.49 352 18.31 345 0.6 94 -0.2 38 0 986.2 NA 0.0000 9999 4040 0 0 0
2019/04/27 14:17:05 BASE 15.92 353 18.31 345 0.6 94 -0.2 38 0 986.2 NA 0.0000 9999 4460 0 0 0
2019/04/27 14:18:04 BASE 16.42 350 18.78 354 0.6 94 -0.3 38 0 986.1 NA 0.0000 9999 4460 0 0 0
2019/04/27 14:19:05 BASE 16.82 348 18.78 354 0.7 93 -0.3 37 0 986.1 NA 0.0000 9999 3250 0 0 0
2019/04/27 14:20:04 BASE 15.94 356 18.78 354 0.7 93 -0.3 38 0 986.1 NA 0.0000 9999 0 0 0 1050
2019/04/27 14:21:05 BASE 15.79 357 18.78 354 0.7 93 -0.4 38 0 986.1 NA 0.0000 9999 0 0 0 4950
2019/04/27 14:22:05 BASE 16.17 356 18.78 354 0.7 92 -0.4 37 0 986.1 NA 0.0000 9999 0 0 0 890
2019/04/27 14:23:06 BASE 16.50 360 18.78 354 0.7 92 -0.4 36 0 986.1 NA 0.0000 9999 4400 0 0 0
2019/04/27 14:24:06 BASE 15.88 3 18.78 354 0.7 92 -0.4 33 0 986.2 NA 0.0000 9999 3280 0 0 0
2019/04/27 14:25:05 BASE 15.24 355 18.78 354 0.7 92 -0.5 31 0 986.2 NA 0.0000 9999 3080 0 0 0
2019/04/27 14:26:06 BASE 15.99 348 18.78 354 0.6 92 -0.5 30 0 986.1 NA 0.0000 9999 2990 0 0 0
2019/04/27 14:27:06 BASE 17.43 354 19.81 345 0.6 93 -0.5 29 0 986.0 NA 0.0000 9999 2620 0 0 0
2019/04/27 14:28:05 BASE 18.21 357 20.22 2 0.6 93 -0.4 27 0 986.1 NA 0.0000 9999 2590 3610 0 0
2019/04/27 14:29:04 BASE 17.72 1 20.22 2 0.6 94 -0.3 26 0 986.1 NA 0.0000 9999 2560 3810 0 0
2019/04/27 14:30:05 BASE 17.70 1 20.22 2 0.6 94 -0.2 25 0 986.1 NA 0.0000 9999 2260 0 0 0
2019/04/27 14:31:06 BASE 17.69 354 20.22 2 0.6 95 -0.2 24 0 986.1 NA 0.0000 9999 3610 0 0 0
2019/04/27 14:32:05 BASE 17.05 354 20.22 2 0.6 95 -0.1 23 0 986.2 NA 0.0000 9999 3280 0 0 0
2019/04/27 14:33:05 BASE 16.48 359 20.22 2 0.6 95 -0.1 22 0 986.2 NA 0.0000 9999 3180 0 0 0
2019/04/27 14:34:05 BASE 15.60 3 20.22 2 0.6 95 -0.1 22 0 986.2 NA 0.0000 9999 2620 0 0 0
2019/04/27 14:35:06 BASE 15.12 6 20.22 2 0.6 95 -0.1 23 0 986.2 NA 0.0000 9999 1970 2660 0 0
2019/04/27 14:36:05 BASE 15.13 2 20.22 2 0.6 96 -0.1 23 0 986.2 NA 0.0000 9999 1940 3280 0 0
2019/04/27 14:37:05 BASE 14.98 355 20.22 2 0.5 96 0.0 24 0 986.1 NA 0.0000 9999 3020 0 0 0
2019/04/27 14:38:05 BASE 14.67 356 19.19 360 0.5 97 0.1 24 0 986.2 NA 0.0000 9999 2890 0 0 0
2019/04/27 14:39:05 BASE 14.71 359 19.19 360 0.5 98 0.2 24 0 986.1 NA 0.0000 9999 2000 0 0 0
2019/04/27 14:40:04 BASE 14.47 0 18.88 2 0.5 98 0.3 24 0 986.2 NA 0.0000 9999 1870 0 0 0
2019/04/27 14:41:05 BASE 13.82 359 17.90 4 0.5 99 0.4 23 0 986.2 NA 0.0000 9999 1900 0 0 0
2019/04/27 14:42:05 BASE 13.53 357 17.85 360 0.6 99 0.5 21 0 986.2 NA 0.0000 9999 430 1900 0 0
2019/04/27 14:43:06 BASE 14.09 353 17.75 1 0.6 100 0.5 23 0 986.2 NA 0.0000 9999 0 0 0 2360
2019/04/27 14:44:05 BASE 13.63 349 17.75 1 0.6 100 0.6 26 0 986.3 NA 0.0000 9999 300 0 0 0
2019/04/27 14:45:05 BASE 13.37 350 17.75 1 0.6 100 0.6 28 0 986.2 NA 0.0000 9999 0 0 0 2230
2019/04/27 14:46:04 BASE 14.82 351 19.14 347 0.6 100 0.6 29 0 986.2 NA 0.0000 9000 300 0 0 0
2019/04/27 14:47:06 BASE 16.84 350 19.24 354 0.6 100 0.6 30 0 986.1 NA 0.0000 UP 9999 300 0 0 0
2019/04/27 14:48:06 BASE 16.59 352 19.24 354 0.6 100 0.6 31 0 986.1 NA 0.0000 UP 9999 0 0 0 2230
2019/04/27 14:49:05 BASE 15.79 350 19.24 354 0.6 100 0.6 31 0 986.1 NA 0.0000 UP 9999 0 0 0 2260
2019/04/27 14:50:04 BASE 16.75 349 20.37 1 0.6 100 0.6 30 0 986.0 NA 0.0000 UP 9999 0 0 0 2170
2019/04/27 14:51:06 BASE 17.77 352 21.35 350 0.6 100 0.6 28 0 986.0 NA 0.0000 UP 9999 0 0 0 2360
2019/04/27 14:52:01 BASE 16.15 353 21.35 350 0.6 100 0.6 29 0 986.1 NA 0.0000 UP 9000 0 0 0 2200
2019/04/27 14:53:04 BASE 14.88 353 21.35 350 0.5 100 0.5 32 0 986.0 NA 0.0000 UP 9000 0 0 0 2590
2019/04/27 14:54:04 BASE 15.46 354 21.35 350 0.5 100 0.5 35 0 986.0 NA 0.0000 UP 9000 0 0 0 3150
2019/04/27 14:55:04 BASE 15.12 357 21.35 350 0.5 100 0.5 35 0 985.9 NA 0.0000 UP BR 9999 0 0 0 2950
2019/04/27 14:56:03 BASE 16.17 358 21.35 350 0.4 100 0.4 38 0 985.9 NA 0.0000 UP 9999 0 0 0 2360
2019/04/27 14:57:05 BASE 17.02 355 21.35 350 0.4 100 0.4 40 0 985.9 NA 0.0000 UP BR 9000 0 0 0 2660
2019/04/27 14:58:04 BASE 17.12 354 21.35 350 0.4 100 0.4 43 0 985.9 NA 0.0000 UP BR 9000 0 0 0 2950
2019/04/27 14:59:06 BASE 18.35 356 21.35 350 0.4 100 0.4 46 0 985.8 NA 0.0000 UP BR 9999 0 0 0 3220
2019/04/27 15:00:01 BASE 17.87 358 21.35 350 0.4 100 0.4 48 0 985.9 NA 0.0000 UP BR 9999 0 0 0 3350
2019/04/27 15:01:04 BASE 17.72 359 21.04 324 0.4 100 0.4 48 0 985.8 NA 0.0000 UP BR 9999 0 0 0 3810
2019/04/27 15:02:04 BASE 18.33 356 21.04 324 0.4 100 0.4 47 0 985.8 NA 0.0000 UP 9999 0 0 0 3610
2019/04/27 15:03:04 BASE 17.12 358 21.04 324 0.4 100 0.4 46 0 985.9 NA 0.0000 UP 9999 0 0 0 3020
2019/04/27 15:04:04 BASE 15.82 357 21.04 324 0.5 100 0.5 44 0 985.9 NA 0.0000 9999 0 0 0 3080
2019/04/27 15:05:04 BASE 16.46 353 21.04 324 0.5 100 0.5 45 0 985.8 NA 0.0000 9999 0 0 0 2620
2019/04/27 15:06:04 BASE 16.67 355 21.04 324 0.5 100 0.5 48 0 985.9 NA 0.0000 9999 360 0 0 0
2019/04/27 15:07:05 BASE 16.96 352 21.04 324 0.5 100 0.5 48 0 985.8 NA 0.0000 9999 0 0 0 2820
2019/04/27 15:08:04 BASE 17.15 350 20.94 360 0.5 100 0.5 50 0 985.8 NA 0.0000 9999 0 0 0 2400
2019/04/27 15:09:04 BASE 16.18 346 20.94 360 0.5 100 0.5 54 0 985.8 NA 0.0000 UP 9999 300 0 0 0
2019/04/27 15:10:04 BASE 16.51 347 20.94 360 0.5 100 0.5 54 0 985.7 NA 0.0000 UP 9999 0 0 0 2890
2019/04/27 15:11:04 BASE 17.39 348 20.94 360 0.5 100 0.5 53 0 985.7 NA 0.0000 UP 9999 0 0 0 2760
2019/04/27 15:12:04 BASE 16.88 348 20.27 352 0.5 100 0.5 52 0 985.7 NA 0.0000 UP 9999 0 0 0 4660
2019/04/27 15:13:04 BASE 15.95 354 20.27 352 0.5 100 0.5 52 0 985.7 NA 0.0000 UP 9999 0 0 0 5280
2019/04/27 15:14:04 BASE 15.89 355 20.27 352 0.5 100 0.5 52 0 985.7 NA 0.0000 UP 9999 0 0 0 5940
2019/04/27 15:15:04 BASE 16.15 352 19.75 343 0.5 100 0.5 53 0 985.7 NA 0.0000 UP 9999 0 0 0 6960
2019/04/27 15:16:05 BASE 15.97 354 19.75 343 0.5 100 0.5 55 0 985.7 NA 0.0000 UP 9999 0 0 0 6890
2019/04/27 15:17:04 BASE 16.05 349 19.75 343 0.5 100 0.5 57 0 985.7 NA 0.0000 UP 9999 0 0 0 7190
2019/04/27 15:18:04 BASE 15.75 350 19.75 343 0.5 100 0.5 57 0 985.7 NA 0.0000 UP 9999 0 0 0 6960
2019/04/27 15:19:04 BASE 15.66 353 19.75 343 0.5 100 0.5 56 0 985.7 NA 0.0000 UP 9999 3840 0 0 0
2019/04/27 15:20:04 BASE 16.53 351 19.45 354 0.5 100 0.5 57 0 985.6 NA 0.0000 UP 9999 3510 0 0 0
2019/04/27 15:21:04 BASE 16.58 351 19.45 354 0.5 100 0.5 57 0 985.6 NA 0.0000 UP 9999 3480 0 0 0
2019/04/27 15:22:04 BASE 16.73 352 19.50 360 0.5 100 0.5 57 0 985.6 NA 0.0000 UP 9999 3510 0 0 0
2019/04/27 15:23:04 BASE 16.97 347 19.50 360 0.5 100 0.5 56 0 985.6 NA 0.0000 UP 9999 3410 0 0 0
2019/04/27 15:24:04 BASE 16.49 346 19.50 360 0.5 100 0.5 54 0 985.6 NA 0.0000 UP 9999 4000 0 0 0
2019/04/27 15:25:03 BASE 15.43 350 19.50 360 0.5 100 0.5 53 0 985.7 NA 0.0000 9999 0 0 0 6560
2019/04/27 15:26:04 BASE 14.99 352 19.50 360 0.5 100 0.5 52 0 985.6 NA 0.0000 9999 0 0 0 6270
2019/04/27 15:27:04 BASE 14.47 353 19.50 360 0.5 100 0.5 50 0 985.7 NA 0.0000 9999 0 0 0 6630
2019/04/27 15:28:03 BASE 13.32 351 19.50 360 0.5 100 0.5 49 0 985.7 NA 0.0000 9999 0 0 0 5870
2019/04/27 15:29:04 BASE 14.88 349 19.50 360 0.5 100 0.5 49 0 985.6 NA 0.0000 9999 0 0 0 5280
2019/04/27 15:30:03 BASE 15.33 352 19.50 360 0.5 100 0.5 49 0 985.7 NA 0.0000 9999 0 0 0 5410
2019/04/27 15:31:06 BASE 15.02 352 20.47 339 0.5 100 0.5 50 0 985.6 NA 0.0000 9999 0 0 0 5510
2019/04/27 15:32:01 BASE 17.30 350 20.47 339 0.5 100 0.5 52 0 985.5 NA 0.0000 9999 0 0 0 5120
2019/04/27 15:33:05 BASE 18.07 350 20.47 339 0.5 100 0.5 53 0 985.6 NA 0.0000 9999 0 0 0 4790
2019/04/27 15:34:05 BASE 17.13 346 20.47 339 0.5 100 0.5 54 0 985.5 NA 0.0000 9999 0 0 0 4950
2019/04/27 15:35:06 BASE 16.89 348 20.47 339 0.5 100 0.5 55 0 985.6 NA 0.0000 9999 0 0 0 4950
2019/04/27 15:36:06 BASE 17.61 352 20.47 339 0.5 100 0.5 57 0 985.5 NA 0.0000 9999 0 0 0 5770
2019/04/27 15:37:05 BASE 17.53 355 21.30 2 0.5 100 0.5 57 0 985.6 NA 0.0000 9999 0 0 0 6430
2019/04/27 15:38:05 BASE 17.02 355 21.30 2 0.5 100 0.5 56 0 985.5 NA 0.0000 9999 0 0 0 5680
2019/04/27 15:39:06 BASE 17.14 349 21.30 2 0.5 100 0.5 55 0 985.5 NA 0.0000 9999 0 0 0 5410
2019/04/27 15:40:04 BASE 17.37 350 21.30 2 0.6 100 0.6 54 0 985.5 NA 0.0000 9999 0 0 0 5090
2019/04/27 15:41:05 BASE 17.83 354 21.30 350 0.6 100 0.6 55 0 985.5 NA 0.0000 9999 0 0 0 5540
2019/04/27 15:42:05 BASE 18.67 350 21.30 350 0.6 100 0.6 56 0 985.4 NA 0.0000 9999 0 0 0 6370
2019/04/27 15:43:06 BASE 19.81 350 22.07 353 0.6 100 0.6 57 0 985.3 NA 0.0000 9999 22250 0 0 0
2019/04/27 15:44:05 BASE 19.01 352 22.07 353 0.6 100 0.6 59 0 985.4 NA 0.0000 9999 0 0 0 6330
2019/04/27 15:45:05 BASE 18.75 351 22.07 353 0.6 100 0.6 61 0 985.3 NA 0.0000 9999 0 0 0 6300
2019/04/27 15:46:05 BASE 18.63 351 22.07 353 0.6 100 0.6 65 0 985.4 NA 0.0000 9999 390 0 0 0
2019/04/27 15:47:05 BASE 18.72 351 22.28 360 0.6 100 0.6 68 0 985.3 NA 0.0000 9999 790 0 0 0
2019/04/27 15:48:05 BASE 19.82 351 22.28 360 0.6 100 0.6 69 0 985.3 NA 0.0000 9999 0 0 0 6230
2019/04/27 15:49:06 BASE 18.99 354 22.28 360 0.6 100 0.6 67 0 985.3 NA 0.0000 9999 0 0 0 6140
2019/04/27 15:50:04 BASE 17.07 359 22.28 360 0.6 100 0.6 65 0 985.4 NA 0.0000 9999 0 0 0 5350
2019/04/27 15:51:05 BASE 15.82 357 22.28 360 0.6 100 0.6 64 0 985.4 NA 0.0000 9999 0 0 0 4920
2019/04/27 15:52:06 BASE 16.58 354 22.28 360 0.6 100 0.6 64 0 985.3 NA 0.0000 9999 360 0 0 0
2019/04/27 15:53:05 BASE 17.68 356 22.28 360 0.6 100 0.6 64 0 985.3 NA 0.0000 9999 0 0 0 4630
2019/04/27 15:54:05 BASE 17.67 355 22.28 360 0.6 100 0.6 64 0 985.3 NA 0.0000 9999 0 0 0 4360
2019/04/27 15:55:04 BASE 18.00 354 22.28 360 0.6 100 0.6 62 0 985.3 NA 0.0000 9999 0 0 0 5020
2019/04/27 15:56:04 BASE 17.94 359 22.28 360 0.6 100 0.6 60 0 985.3 NA 0.0000 9999 0 0 0 4990
2019/04/27 15:57:06 BASE 16.98 6 22.07 351 0.6 100 0.6 56 0 985.3 NA 0.0000 9999 0 0 0 6070
2019/04/27 15:58:05 BASE 16.89 1 21.40 1 0.6 100 0.6 54 0 985.3 NA 0.0000 9999 0 0 0 6040
2019/04/27 15:59:07 BASE 16.00 352 21.14 345 0.6 100 0.6 53 0 985.4 NA 0.0000 9999 0 0 0 5840
2019/04/27 16:00:01 BASE 15.25 349 21.14 345 0.6 100 0.6 53 0 985.3 NA 0.0000 9999 0 0 0 5540
2019/04/27 16:01:04 BASE 16.67 355 21.14 345 0.6 100 0.6 53 0 985.3 NA 0.0000 9999 0 0 0 5580
2019/04/27 16:02:04 BASE 16.94 0 20.58 348 0.6 100 0.6 52 0 985.3 NA 0.0000 9999 0 0 0 5020
2019/04/27 16:03:03 BASE 17.31 356 21.76 348 0.7 100 0.7 51 0 985.2 NA 0.0000 9999 0 0 0 5020
2019/04/27 16:04:04 BASE 18.61 354 21.76 348 0.7 100 0.7 51 0 985.2 NA 0.0000 9999 0 0 0 4990
2019/04/27 16:05:05 BASE 18.19 357 21.76 348 0.7 100 0.7 50 0 985.2 NA 0.0000 9999 690 0 0 0
2019/04/27 16:06:04 BASE 18.17 355 22.28 346 0.7 100 0.7 49 0 985.2 NA 0.0000 9999 20470 0 0 0
2019/04/27 16:07:04 BASE 17.88 360 22.28 346 0.7 100 0.7 47 0 985.2 NA 0.0000 9999 0 0 0 3670
2019/04/27 16:08:04 BASE 16.55 0 22.28 346 0.7 100 0.7 47 0 985.2 NA 0.0000 9999 0 0 0 3710
2019/04/27 16:09:04 BASE 16.40 358 22.28 346 0.7 100 0.7 47 0 985.2 NA 0.0000 9999 0 0 0 3350
2019/04/27 16:10:04 BASE 17.33 358 22.28 346 0.7 100 0.7 47 0 985.1 NA 0.0000 9999 0 0 0 2820
2019/04/27 16:11:04 BASE 18.29 354 22.28 346 0.7 100 0.7 47 0 985.1 NA 0.0000 9999 0 0 0 2620
2019/04/27 16:12:04 BASE 18.44 357 22.28 346 0.7 100 0.7 47 0 985.1 NA 0.0000 9999 0 0 0 2890
2019/04/27 16:13:04 BASE 17.90 358 22.28 346 0.7 100 0.7 44 0 985.1 NA 0.0000 9999 0 0 0 2660
2019/04/27 16:14:04 BASE 17.39 354 22.28 346 0.7 100 0.7 41 0 985.1 NA 0.0000 9999 0 0 0 2200
2019/04/27 16:15:03 BASE 18.18 349 22.33 335 0.7 100 0.7 36 0 985.0 NA 0.0000 9999 0 0 0 1870
2019/04/27 16:16:04 BASE 19.01 358 22.33 335 0.7 100 0.7 33 0 985.0 NA 0.0000 UP 9999 300 0 0 0
2019/04/27 16:17:05 BASE 18.06 4 22.33 335 0.7 100 0.7 34 0 985.1 NA 0.0000 UP 9999 0 0 0 1870
2019/04/27 16:18:03 BASE 17.31 2 22.33 335 0.7 100 0.7 39 0 985.1 NA 0.0000 UP 9999 230 0 0 0
2019/04/27 16:19:04 BASE 18.64 2 22.33 335 0.7 100 0.7 41 0 985.0 NA 0.0000 UP 9999 230 0 0 0
2019/04/27 16:20:04 BASE 19.18 357 22.33 335 0.7 100 0.7 43 0 985.0 NA 0.0000 UP 9999 260 0 0 0
2019/04/27 16:21:05 BASE 17.97 358 22.33 335 0.7 100 0.7 43 0 985.0 NA 0.0000 UP 9999 0 0 0 2100
2019/04/27 16:22:04 BASE 18.18 359 22.33 335 0.7 100 0.7 42 0 985.0 NA 0.0000 UP 9999 300 0 0 0
2019/04/27 16:23:04 BASE 18.23 359 22.33 335 0.7 100 0.7 41 0 985.0 NA 0.0000 UP 9999 0 0 0 1970
2019/04/27 16:24:03 BASE 18.14 1 22.33 335 0.7 100 0.7 41 0 985.0 NA 0.0000 UP 9999 0 0 0 1940
2019/04/27 16:25:05 BASE 17.58 359 21.35 6 0.7 100 0.7 39 0 985.0 NA 0.0000 UP 9999 0 0 0 2200
2019/04/27 16:26:04 BASE 17.81 358 22.89 2 0.7 100 0.7 40 0 984.9 NA 0.0000 UP 9999 0 0 0 2330
2019/04/27 16:27:04 BASE 17.19 358 22.89 2 0.7 100 0.7 42 0 985.0 NA 0.0000 UP 9999 0 0 0 4430
2019/04/27 16:28:04 BASE 16.36 357 22.89 2 0.7 100 0.7 44 0 984.9 NA 0.0000 UP 9999 360 0 0 0
2019/04/27 16:29:05 BASE 17.12 358 22.89 2 0.6 100 0.6 45 0 984.9 NA 0.0000 UP 9999 390 0 0 0
2019/04/27 16:30:03 BASE 17.34 359 22.89 2 0.7 100 0.7 46 0 984.9 NA 0.0000 UP 9999 790 2760 0 0
2019/04/27 16:31:05 BASE 18.11 359 22.89 2 0.7 100 0.7 47 0 984.9 NA 0.0000 UP 9999 3280 0 0 0
2019/04/27 16:32:05 BASE 16.80 353 22.89 2 0.7 100 0.7 47 0 985.0 NA 0.0000 UP 9999 0 0 0 6200
2019/04/27 16:33:05 BASE 15.15 352 22.89 2 0.7 100 0.7 47 0 985.0 NA 0.0000 UP 9999 0 0 0 6070
2019/04/27 16:34:04 BASE 15.99 358 22.89 2 0.7 100 0.7 47 0 984.9 NA 0.0000 UP 9999 0 0 0 2920
2019/04/27 16:35:04 BASE 16.30 357 22.89 2 0.7 100 0.7 47 0 984.9 NA 0.0000 9999 0 0 0 2920
2019/04/27 16:36:05 BASE 18.01 347 21.81 348 0.7 100 0.7 48 0 984.7 NA 0.0000 9999 0 0 0 5350
2019/04/27 16:37:07 BASE 20.23 349 23.61 7 0.7 100 0.7 47 0 984.7 NA 0.0000 9999 0 0 0 4430
2019/04/27 16:38:05 BASE 20.13 357 24.13 360 0.7 100 0.7 47 0 984.7 NA 0.0000 9999 0 0 0 3770
2019/04/27 16:39:05 BASE 20.22 357 24.13 360 0.7 100 0.7 45 0 984.7 NA 0.0000 9999 0 0 0 2890
2019/04/27 16:40:05 BASE 20.88 1 24.13 360 0.6 100 0.6 44 0 984.7 NA 0.0000 9999 0 0 0 3120
2019/04/27 16:41:05 BASE 21.93 3 24.38 360 0.6 100 0.6 46 0 984.6 NA 0.0000 9999 330 0 0 0
2019/04/27 16:42:05 BASE 21.77 4 24.38 360 0.6 100 0.6 46 0 984.6 NA 0.0000 9999 0 0 0 4300
2019/04/27 16:43:05 BASE 20.94 5 24.38 360 0.6 100 0.6 45 0 984.7 NA 0.0000 9999 0 0 0 4530
2019/04/27 16:44:04 BASE 20.85 5 24.38 360 0.6 100 0.6 43 0 984.6 NA 0.0000 UP 9999 0 0 0 4200
2019/04/27 16:45:06 BASE 20.16 3 24.38 360 0.6 100 0.6 40 0 984.7 NA 0.0000 UP 9999 360 0 0 0
2019/04/27 16:46:05 BASE 18.85 360 24.38 360 0.6 100 0.6 39 0 984.7 NA 0.0000 UP 9999 330 0 0 0
2019/04/27 16:47:05 BASE 17.55 358 24.38 360 0.6 100 0.6 41 0 984.7 NA 0.0000 UP 9999 0 0 0 2330
2019/04/27 16:48:05 BASE 17.92 1 24.38 360 0.7 100 0.7 42 0 984.7 NA 0.0000 UP 9999 260 0 0 0
2019/04/27 16:49:05 BASE 19.39 4 24.38 360 0.7 100 0.7 42 0 984.6 NA 0.0000 UP 9999 300 0 0 0
2019/04/27 16:50:05 BASE 19.28 1 24.38 360 0.7 100 0.7 41 0 984.6 NA 0.0000 UP 9999 300 0 0 0
2019/04/27 16:51:05 BASE 19.04 0 23.41 3 0.8 100 0.8 41 0 984.5 NA 0.0000 UP 9999 0 0 0 2300
2019/04/27 16:52:05 BASE 19.02 4 23.41 3 0.8 100 0.8 41 0 984.5 NA 0.0000 UP 9999 0 0 0 2360
2019/04/27 16:53:06 BASE 20.00 5 23.41 3 0.8 100 0.8 40 0 984.4 NA 0.0000 UP 9999 0 0 0 2760
2019/04/27 16:54:05 BASE 20.72 5 22.58 1 0.8 100 0.8 39 0 984.4 NA 0.0000 UP 9999 0 0 0 2560
2019/04/27 16:55:05 BASE 19.98 6 22.58 1 0.8 100 0.8 38 0 984.4 NA 0.0000 UP 9999 0 0 0 2430
2019/04/27 16:56:05 BASE 19.65 6 22.58 1 0.8 100 0.8 36 0 984.4 NA 0.0000 UP 9999 0 0 0 2260
2019/04/27 16:57:05 BASE 19.94 7 22.58 1 0.8 100 0.8 36 0 984.4 NA 0.0000 UP 9999 0 0 0 2070
2019/04/27 16:58:04 BASE 20.79 6 22.89 6 0.8 100 0.8 36 0 984.3 NA 0.0000 UP 9999 0 0 0 2030
2019/04/27 16:59:07 BASE 21.02 5 22.89 6 0.8 100 0.7 36 0 984.3 NA 0.0000 UP 9999 0 0 0 2100
2019/04/27 17:00:04 BASE 20.14 6 22.89 6 0.7 100 0.7 34 0 984.3 NA 0.0000 UP 9999 0 0 0 2230
2019/04/27 17:01:06 BASE 19.67 8 22.89 6 0.7 100 0.7 34 0 984.4 NA 0.2540 UP 9999 890 0 0 0
2019/04/27 17:02:06 BASE 19.72 9 22.89 6 0.7 100 0.7 36 0 984.3 NA 0.0000 UP 9999 230 0 0 0
2019/04/27 17:03:05 BASE 19.87 11 22.89 6 0.7 100 0.7 41 0 984.3 NA 0.0000 UP 9999 0 0 0 1740
2019/04/27 17:04:05 BASE 20.57 12 22.89 6 0.7 100 0.7 42 0 984.2 NA 0.0000 -SN 9999 0 0 0 2130
2019/04/27 17:05:06 BASE 21.22 13 22.89 6 0.7 100 0.7 43 0 984.2 NA 0.0000 -SN 9999 0 0 0 2230
2019/04/27 17:06:05 BASE 19.95 13 22.89 6 0.7 100 0.7 46 0 984.3 NA 0.0000 -SN 9999 0 0 0 2100
2019/04/27 17:07:05 BASE 18.99 15 22.89 6 0.7 100 0.7 45 0 984.2 NA 0.0000 -SN 9999 0 0 0 3050
2019/04/27 17:08:05 BASE 19.78 15 22.58 2 0.7 100 0.7 44 0 984.2 NA 0.0000 -SN 9999 0 0 0 2660
2019/04/27 17:09:06 BASE 21.12 15 23.30 16 0.7 100 0.7 44 0 984.1 NA 0.0000 -SN 9999 0 0 0 2460
2019/04/27 17:10:05 BASE 21.27 13 23.30 16 0.7 100 0.7 43 0 984.2 NA 0.0000 -SN 9999 0 0 0 2430
2019/04/27 17:11:01 BASE 20.53 12 23.30 16 0.7 100 0.7 40 0 984.1 NA 0.0000 -SN 9999 0 0 0 2720
2019/04/27 17:12:04 BASE 20.45 13 23.30 16 0.8 100 0.8 39 0 984.1 NA 0.0000 -SN 9999 0 0 0 2430
2019/04/27 17:13:04 BASE 20.55 13 23.36 14 0.8 100 0.8 39 0 984.1 NA 0.0000 -SN 9999 0 0 0 2170
2019/04/27 17:14:05 BASE 20.18 13 23.36 14 0.8 100 0.8 37 0 984.1 NA 0.0000 -SN 8000 0 0 0 2300
2019/04/27 17:15:05 BASE 19.19 14 23.36 14 0.8 100 0.8 35 0 984.2 NA 0.0000 -SN 7000 260 0 0 0
2019/04/27 17:16:05 BASE 19.04 13 23.36 14 0.8 100 0.8 37 0 984.1 NA 0.0000 -SN 7000 0 0 0 1870
2019/04/27 17:17:05 BASE 18.88 11 23.36 14 0.8 100 0.8 38 0 984.1 NA 0.0000 -SN 9000 0 0 0 2070
2019/04/27 17:18:04 BASE 18.92 8 23.36 14 0.9 100 0.9 39 0 984.0 NA 0.0000 -SN BR 9999 0 0 0 1940
2019/04/27 17:19:04 BASE 19.36 6 23.36 14 0.9 100 0.9 40 0 984.1 NA 0.0000 -SN BR 9999 0 0 0 1940
2019/04/27 17:20:04 BASE 18.90 6 23.36 14 0.9 100 0.9 40 0 984.0 NA 0.0000 -SN BR 9999 0 0 0 2200
2019/04/27 17:21:04 BASE 19.40 6 23.36 14 0.9 100 0.9 42 0 983.9 NA 0.0000 -SN BR 9999 0 0 0 1900
2019/04/27 17:22:04 BASE 20.02 6 23.36 14 0.9 100 0.9 41 0 983.9 NA 0.0000 -SN 9999 0 0 0 2430
2019/04/27 17:23:05 BASE 18.75 5 22.53 5 0.9 100 0.9 37 0 984.0 NA 0.0000 -SN 9999 0 0 0 3670
2019/04/27 17:24:04 BASE 18.90 4 22.89 4 0.9 100 0.9 39 0 983.9 NA 0.0000 -SN 9999 260 0 0 0
2019/04/27 17:25:04 BASE 20.01 5 22.89 4 0.9 100 0.9 38 0 983.8 NA 0.0000 -SN 9999 0 0 0 2720
2019/04/27 17:26:04 BASE 19.34 7 22.89 4 0.9 100 0.9 35 0 983.8 NA 0.0000 -SN 9999 0 0 0 3870
2019/04/27 17:27:05 BASE 19.52 9 22.89 4 0.9 100 0.9 34 0 983.8 NA 0.0000 -SN 9999 0 0 0 3510
2019/04/27 17:28:04 BASE 20.75 9 23.41 1 0.9 100 0.9 33 0 983.7 NA 0.0000 -SN 9999 0 0 0 3410
2019/04/27 17:29:06 BASE 21.54 5 23.41 1 0.9 100 0.9 32 0 983.6 NA 0.0000 -SN 9999 0 0 0 3580
2019/04/27 17:30:05 BASE 20.77 5 23.41 1 0.9 100 0.9 33 0 983.7 NA 0.0000 -SN 9999 0 0 0 3280
2019/04/27 17:31:04 BASE 20.18 3 23.41 1 0.9 100 0.9 32 0 983.7 NA 0.0000 -SN 9999 0 0 0 3280
2019/04/27 17:32:05 BASE 20.46 3 23.41 1 0.9 100 0.9 32 0 983.6 NA 0.0000 -SN 9999 0 0 0 3410
2019/04/27 17:33:05 BASE 20.77 5 23.41 1 0.9 100 0.9 31 0 983.6 NA 0.0000 -SN 9999 0 0 0 3310
2019/04/27 17:34:05 BASE 21.71 4 24.54 2 0.9 100 0.9 30 0 983.5 NA 0.0000 -SN 9999 0 0 0 3510
2019/04/27 17:35:05 BASE 23.31 4 26.03 8 0.9 100 0.9 29 0 983.5 NA 0.0000 -SN 9999 0 0 0 3580
2019/04/27 17:36:05 BASE 22.77 7 26.03 8 0.9 100 0.9 27 0 983.5 NA 0.0000 -SN 9999 0 0 0 3580
2019/04/27 17:37:06 BASE 21.68 7 26.03 8 0.9 100 0.9 26 0 983.5 NA 0.0000 -SN 9999 0 0 0 3250
2019/04/27 17:38:05 BASE 22.49 6 26.03 8 0.9 100 0.9 24 0 983.4 NA 0.0000 -SN 9999 260 0 0 0
2019/04/27 17:39:06 BASE 22.56 5 26.03 8 0.9 100 0.9 23 0 983.3 NA 0.0000 -SN 9999 300 0 0 0
2019/04/27 17:40:05 BASE 22.18 6 26.03 8 0.9 100 0.9 22 0 983.4 NA 0.0000 -SN 9000 300 0 0 0
2019/04/27 17:41:05 BASE 23.30 8 27.21 12 0.9 100 0.9 22 0 983.3 NA 0.0000 -SN 9000 0 0 0 2300
2019/04/27 17:42:05 BASE 23.52 9 27.21 12 0.9 100 0.9 22 0 983.3 NA 0.0000 -SN 9999 230 0 0 0
2019/04/27 17:43:06 BASE 22.54 8 27.21 12 0.9 100 0.9 22 0 983.2 NA 0.0000 -SN 9999 0 0 0 2130
2019/04/27 17:44:05 BASE 22.64 8 27.21 12 0.9 100 0.9 21 0 983.2 NA 0.0000 -SN 9999 0 0 0 2070
2019/04/27 17:45:05 BASE 23.26 7 27.21 12 0.9 100 0.9 21 0 983.1 NA 0.0000 -SN 9999 300 0 0 0
2019/04/27 17:46:05 BASE 23.61 7 27.21 12 0.9 100 0.9 19 0 983.1 NA 0.0000 -SN 9999 820 0 0 0
2019/04/27 17:47:06 BASE 23.59 9 27.21 12 0.9 100 0.9 18 0 983.1 NA 0.0000 -SN 9999 260 0 0 0
2019/04/27 17:48:05 BASE 24.04 9 27.21 12 0.9 100 0.9 17 0 983.1 NA 0.0000 -SN 9999 0 0 0 1570
2019/04/27 17:49:05 BASE 24.92 9 27.21 9 0.9 100 0.9 17 0 982.9 NA 0.0000 -SN 9999 0 0 0 1440
2019/04/27 17:50:04 BASE 23.96 11 27.21 9 0.9 100 0.9 17 0 983.1 NA 0.0000 -SN BR 5000 0 0 0 1380
2019/04/27 17:51:06 BASE 23.41 10 28.29 11 0.9 100 0.9 16 0 982.9 NA 0.0000 -SN BR 5000 0 0 0 1350
2019/04/27 17:52:05 BASE 24.88 9 28.29 11 0.9 100 0.9 16 0 982.8 NA 0.0000 -SN BR 3900 0 0 0 1180
2019/04/27 17:53:05 BASE 25.87 10 28.29 11 0.9 100 0.9 17 0 982.8 NA 0.2540 -SN BR 1600 0 0 0 1080
2019/04/27 17:54:05 BASE 25.49 11 29.01 6 0.9 100 0.9 17 0 982.8 NA 0.0000 -SN BR 1600 0 0 0 1080
2019/04/27 17:55:06 BASE 24.36 12 29.01 6 0.9 100 0.9 17 0 982.9 NA 0.0000 -SN BR 1900 0 0 0 980
2019/04/27 17:56:05 BASE 24.05 13 29.01 6 0.9 100 0.9 18 0 982.8 NA 0.0000 -SN BR 1000 0 0 0 980
2019/04/27 17:57:05 BASE 24.15 15 29.01 6 0.9 100 0.9 20 0 982.8 NA 0.0000 -SN BR 0900 0 0 0 1050
2019/04/27 17:58:05 BASE 24.26 17 29.01 6 0.8 100 0.8 22 0 982.7 NA 0.0000 -SN BR 1000 0 0 0 1120
2019/04/27 17:59:07 BASE 25.58 19 29.43 20 0.8 100 0.8 24 0 982.5 NA 0.0000 -SN BR 0800 0 0 0 1210
2019/04/27 18:00:05 BASE 25.86 19 29.43 20 0.8 100 0.8 24 0 982.6 NA 0.0000 -SN BR 0800 0 0 0 1250
2019/04/27 18:01:06 BASE 25.60 19 29.43 20 0.8 100 0.8 24 0 982.5 NA 0.0000 -SN BR 0900 0 0 0 1480
2019/04/27 18:02:05 BASE 26.90 18 29.89 18 0.8 100 0.8 25 0 982.3 NA 0.0000 -SN BR 1400 0 0 0 1840
2019/04/27 18:03:06 BASE 27.41 18 29.89 18 0.8 100 0.8 27 0 982.3 NA 0.0000 -SN BR 1900 0 0 0 1870
2019/04/27 18:04:06 BASE 26.33 16 29.89 18 0.8 100 0.8 28 0 982.4 NA 0.0000 -SN BR 2000 0 0 0 1740
2019/04/27 18:05:05 BASE 25.84 16 29.89 18 0.8 100 0.8 29 0 982.3 NA 0.0000 -SN BR 2400 0 0 0 1940
2019/04/27 18:06:02 BASE 26.24 17 29.89 18 0.8 100 0.8 29 0 982.2 NA 0.0000 -SN BR 2700 0 0 0 2200
2019/04/27 18:07:05 BASE 26.33 16 29.89 18 0.8 100 0.8 29 0 982.2 NA 0.0000 -SN BR 2500 0 0 0 2490
2019/04/27 18:08:05 BASE 26.16 17 29.89 18 0.9 100 0.9 29 0 982.1 NA 0.0000 -SN BR 2600 300 0 0 0
2019/04/27 18:09:05 BASE 25.49 16 29.89 18 0.9 100 0.9 29 0 982.2 NA 0.0000 -SN BR 2600 230 0 0 0
2019/04/27 18:10:06 BASE 25.02 13 29.89 18 0.9 100 0.9 29 0 982.1 NA 0.0000 -SN BR 3600 0 0 0 2790
2019/04/27 18:11:05 BASE 26.17 13 29.89 18 0.9 100 0.9 30 0 982.0 NA 0.0000 -SN BR 7000 0 0 0 2620
2019/04/27 18:12:06 BASE 26.42 12 29.63 11 0.9 100 0.9 30 0 982.0 NA 0.0000 -SN BR 8000 0 0 0 3020
2019/04/27 18:13:05 BASE 26.70 12 30.76 14 0.9 100 0.9 30 0 981.8 NA 0.0000 -SN BR 7000 0 0 0 3080
2019/04/27 18:14:05 BASE 29.28 13 32.46 14 0.9 100 0.9 29 0 981.6 NA 0.0000 -SN BR 5000 0 0 0 3150
2019/04/27 18:15:05 BASE 29.29 11 32.46 14 0.9 100 0.9 28 0 981.8 NA 0.0000 -SN BR 6000 0 0 0 3280
2019/04/27 18:16:05 BASE 28.19 14 32.46 14 0.9 100 0.9 28 0 981.6 NA 0.0000 -SN BR 7000 0 0 0 3280
2019/04/27 18:17:05 BASE 28.34 16 32.46 14 0.9 100 0.9 27 0 981.5 NA 0.0000 -SN BR 5000 0 0 0 3480
2019/04/27 18:18:05 BASE 28.29 16 34.00 19 0.9 100 0.9 26 0 981.4 NA 0.0000 -SN BR 4600 0 0 0 3220
2019/04/27 18:19:05 BASE 32.24 19 37.25 17 0.9 100 0.9 24 0 981.0 NA 0.0000 -SN BR 4300 0 0 0 3480
2019/04/27 18:20:04 BASE 35.79 20 38.33 21 0.9 100 0.9 24 0 980.8 NA 0.0000 -SN BR 3200 360 0 0 0
2019/04/27 18:21:06 BASE 36.02 19 38.33 21 0.9 100 0.9 23 0 980.7 NA 0.0000 -SN BR 3200 360 0 0 0
2019/04/27 18:22:05 BASE 34.68 19 38.33 21 0.9 100 0.9 23 0 980.8 NA 0.0000 -SN BR 3000 0 0 0 3310
2019/04/27 18:23:06 BASE 35.29 20 40.23 17 0.9 100 0.9 22 0 980.5 NA 0.0000 -SN BR 1300 0 0 0 3050
2019/04/27 18:24:06 BASE 36.93 20 40.23 17 0.9 100 0.9 22 0 980.5 NA 0.0000 -SN BR 0900 0 0 0 2920
2019/04/27 18:25:05 BASE 37.17 20 41.00 22 0.9 100 0.9 23 0 980.3 NA 0.0000 -SN BR 0900 0 0 0 2660
2019/04/27 18:26:05 BASE 38.10 21 41.52 18 0.9 100 0.9 24 0 980.2 NA 0.0000 -SN BR 1400 0 0 0 2620
2019/04/27 18:27:05 BASE 38.82 24 42.49 23 0.9 100 0.9 25 0 980.2 NA 0.0000 -SN BR 2300 0 0 0 2790
2019/04/27 18:28:05 BASE 40.05 24 43.16 30 0.9 100 0.9 25 0 980.0 NA 0.0000 -SN BR 1200 330 0 0 0
2019/04/27 18:29:06 BASE 39.30 24 43.16 30 0.9 100 0.9 25 0 980.1 NA 0.0000 -SN BR 0900 300 0 0 0
2019/04/27 18:30:05 BASE 38.13 25 43.16 30 0.9 100 0.9 24 0 980.2 NA 0.0000 -SN BR 0800 0 0 0 2300
2019/04/27 18:31:06 BASE 37.53 23 43.16 30 0.9 100 0.9 22 0 980.3 NA 0.2540 -SN BR 1200 0 0 0 2300
2019/04/27 18:32:06 BASE 37.96 22 43.16 30 0.9 100 0.9 21 0 980.1 NA 0.0000 -SN BR 0900 0 0 0 2690
2019/04/27 18:33:06 BASE 38.62 22 43.16 30 0.9 100 0.9 21 0 980.0 NA 0.0000 -SN BR 0700 0 0 0 2620
2019/04/27 18:34:05 BASE 38.78 24 43.16 30 0.9 100 0.9 21 0 979.9 NA 0.0000 -SN BR 0750 0 0 0 1940
2019/04/27 18:35:06 BASE 39.16 24 43.16 30 0.9 100 0.9 20 0 979.9 NA 0.0000 -SN BR 0800 0 0 0 2260
2019/04/27 18:36:05 BASE 38.60 22 43.16 30 0.9 100 0.9 20 0 980.2 NA 0.0000 -SN BR 0800 0 0 0 2460
2019/04/27 18:37:06 BASE 37.36 22 43.16 30 0.9 100 0.9 18 0 980.1 NA 0.0000 -SN BR 0800 0 0 0 1970
2019/04/27 18:38:05 BASE 37.83 22 43.57 24 0.9 100 0.9 17 0 979.9 NA 0.0000 UP FG 0800 0 0 0 1870
2019/04/27 18:39:06 BASE 39.27 24 43.57 24 0.9 100 0.9 17 0 979.9 NA 0.0000 UP FG 0750 0 0 0 1770
2019/04/27 18:40:05 BASE 38.99 25 43.57 25 0.9 100 0.9 16 0 980.0 NA 0.0000 UP FG 0750 0 0 0 1640
2019/04/27 18:41:05 BASE 38.04 24 43.57 25 0.9 100 0.9 15 0 980.1 NA 0.0000 UP FG 0750 0 0 0 1570
2019/04/27 18:42:05 BASE 37.33 23 43.57 25 0.8 100 0.8 14 0 980.1 NA 0.0000 UP FG 0750 0 0 0 1640
2019/04/27 18:43:05 BASE 38.22 25 44.71 32 0.8 100 0.8 14 0 979.8 NA 0.0000 UP FG 0700 0 0 0 1350
2019/04/27 18:44:05 BASE 38.02 26 44.71 32 0.8 100 0.8 14 0 980.1 NA 0.0000 UP FG 0600 0 0 0 1150
2019/04/27 18:45:05 BASE 36.77 26 44.71 32 0.8 100 0.8 13 0 980.0 NA 0.0000 UP FG 0600 0 0 0 1250
2019/04/27 18:46:05 BASE 36.09 26 44.71 32 0.8 100 0.8 12 0 980.1 NA 0.0000 UP FG 0600 0 0 0 1250
2019/04/27 18:47:06 BASE 36.05 27 44.71 32 0.8 100 0.8 12 0 980.1 NA 0.0000 UP FG 1000 0 0 0 1350
2019/04/27 18:48:05 BASE 35.91 30 44.71 32 0.7 100 0.7 11 0 979.9 NA 0.0000 UP FG 1900 0 0 0 1410
2019/04/27 18:49:06 BASE 34.81 27 44.71 32 0.7 100 0.7 10 0 980.2 NA 0.0000 RA FG 0800 0 0 0 1310
2019/04/27 18:50:04 BASE 33.93 28 44.71 32 0.7 100 0.7 10 0 980.2 NA 0.0000 RA FG 0550 0 0 0 1310
2019/04/27 18:51:07 BASE 33.74 32 44.71 32 0.7 100 0.7 10 0 980.0 NA 0.0000 RA FG 0550 0 0 0 1180
2019/04/27 18:52:06 BASE 34.66 33 44.71 32 0.7 100 0.7 10 0 980.0 NA 0.2540 RA FG 0550 0 0 0 1280
2019/04/27 18:53:05 BASE 35.09 31 42.60 31 0.6 100 0.6 10 0 979.8 NA 0.0000 -RA FG 0900 0 0 0 1250
2019/04/27 18:54:05 BASE 36.55 30 43.62 31 0.6 100 0.6 9 0 979.5 NA 0.0000 -RA FG 0750 0 0 0 1310
2019/04/27 18:55:05 BASE 38.50 31 43.62 31 0.6 100 0.6 9 0 979.4 NA 0.0000 -RA FG 0800 0 0 0 1210
2019/04/27 18:56:05 BASE 38.78 29 43.62 31 0.6 100 0.6 9 0 979.7 NA 0.0000 +RA FG 2000 0 0 0 1210
2019/04/27 18:57:05 BASE 37.26 27 43.62 31 0.6 100 0.6 9 0 979.9 NA 0.0000 +RA FG 0800 0 0 0 1250
2019/04/27 18:58:05 BASE 35.68 25 43.62 31 0.6 100 0.6 10 0 980.0 NA 0.0000 +RA FG 0550 0 0 0 1210
2019/04/27 18:59:07 BASE 33.05 23 43.62 31 0.6 100 0.6 10 0 980.3 NA 0.0000 +RA FG 0900 0 0 0 1210
2019/04/27 19:00:05 BASE 30.82 23 43.62 31 0.6 100 0.6 10 0 980.4 NA 0.0000 +RA FG 1600 0 0 0 1350
2019/04/27 19:01:05 BASE 30.16 24 43.62 31 0.6 100 0.6 8 0 980.2 NA 0.0000 SN BR 1700 0 0 0 1480
2019/04/27 19:02:05 BASE 35.83 26 47.79 25 0.7 100 0.7 8 0 979.2 NA 0.0000 SN BR 0700 0 0 0 1380
2019/04/27 19:03:05 BASE 38.78 29 47.79 25 0.7 100 0.7 9 0 979.2 NA 0.0000 SN BR SQ 0750 0 0 0 1350
2019/04/27 19:04:05 BASE 40.57 30 51.39 27 0.8 100 0.8 9 0 978.6 NA 0.0000 SN FG SQ 0400 0 0 0 1610
2019/04/27 19:05:05 BASE 40.64 27 51.39 27 0.9 100 0.9 8 0 979.2 NA 0.0000 SN FG 0500 0 0 0 2070
2019/04/27 19:06:06 BASE 38.40 25 51.39 27 0.9 100 0.9 8 0 978.9 NA 0.0000 SN FG 1200 0 0 0 1800
2019/04/27 19:07:06 BASE 39.55 26 51.39 27 1.0 100 1.0 8 0 979.0 NA 0.0000 SN FG 1200 0 0 0 1940
2019/04/27 19:08:05 BASE 41.26 25 51.39 27 1.0 100 1.0 7 0 978.9 NA 0.2540 SN FG 0750 0 0 0 2330
2019/04/27 19:09:05 BASE 42.61 25 51.39 27 1.1 100 1.1 7 0 978.9 NA 0.0000 SN FG 0750 0 0 0 1940
2019/04/27 19:10:05 BASE 41.98 23 51.39 27 1.1 100 1.1 7 0 979.2 NA 0.0000 SN FG 0800 0 0 0 2100
2019/04/27 19:11:06 BASE 41.69 21 51.39 27 1.1 100 1.1 6 0 979.3 NA 0.0000 SN FG 1100 0 0 0 1840
2019/04/27 19:12:05 BASE 41.33 18 51.39 27 1.1 100 1.1 6 0 979.5 NA 0.0000 SN FG 1200 0 0 0 1840
2019/04/27 19:13:05 BASE 39.16 17 51.39 27 1.1 100 1.1 6 0 979.8 NA 0.2540 SN FG 1000 0 0 0 1870
2019/04/27 19:14:02 BASE 35.82 19 47.07 21 1.1 100 1.1 6 0 980.0 NA 0.0000 SN BR 1100 0 0 0 1800
2019/04/27 19:15:05 BASE 34.14 12 47.07 21 1.2 100 1.2 5 0 980.0 NA 0.0000 SN BR 1100 0 0 0 1670
2019/04/27 19:16:06 BASE 31.39 1 47.07 21 1.2 100 1.2 6 0 980.2 NA 0.0000 SN BR 1700 0 0 0 1080
2019/04/27 19:17:05 BASE 33.57 7 47.07 21 1.3 100 1.3 5 0 979.7 NA 0.0000 -SN BR 1700 0 0 0 1120
2019/04/27 19:18:05 BASE 34.79 14 47.07 21 1.3 100 1.3 4 0 980.1 NA 0.0000 -SN BR 1200 0 0 0 1180
2019/04/27 19:19:06 BASE 32.74 6 47.07 21 1.4 100 1.4 4 0 980.3 NA 0.2540 -SN BR 1400 0 0 0 1250
2019/04/27 19:20:04 BASE 33.64 3 46.04 14 1.4 100 1.4 3 0 980.1 NA 0.0000 -SN BR 1900 0 0 0 1310
2019/04/27 19:21:05 BASE 32.12 4 46.04 14 1.4 100 1.4 3 0 980.5 NA 0.0000 -SN BR 1500 0 0 0 1250
2019/04/27 19:22:05 BASE 27.04 356 41.82 17 1.4 100 1.4 3 0 980.8 NA 0.0000 -SN BR 2700 260 0 0 0
2019/04/27 19:23:06 BASE 24.29 350 41.82 17 1.4 100 1.4 2 0 980.8 NA 0.2540 -SN BR 9999 300 0 0 0
2019/04/27 19:24:05 BASE 26.27 352 41.82 17 1.4 100 1.4 2 0 980.2 NA 0.0000 -SN BR 4800 330 0 0 0
2019/04/27 19:25:06 BASE 32.64 1 41.98 20 1.4 100 1.4 2 0 979.5 NA 0.0000 -SN BR SQ 1800 0 0 0 2260
2019/04/27 19:26:05 BASE 40.61 12 49.64 16 1.5 100 1.5 2 0 978.7 NA 0.2540 -SN BR SQ 1300 360 0 0 0
2019/04/27 19:27:05 BASE 45.36 14 49.85 9 1.6 100 1.6 2 0 978.3 NA 0.0000 -SN BR SQ 1400 390 0 0 0
2019/04/27 19:28:05 BASE 45.06 12 51.96 8 1.7 100 1.7 3 0 978.7 NA 0.0000 -SN BR SQ 1600 390 0 0 0
2019/04/27 19:29:06 BASE 45.10 13 51.96 8 1.9 100 1.9 3 0 978.3 NA 0.2540 -SN BR 1700 300 0 0 0
2019/04/27 19:30:06 BASE 41.96 15 51.96 8 2.0 100 2.0 4 0 979.2 NA 0.0000 -SN BR 2000 260 0 0 0
2019/04/27 19:31:06 BASE 41.59 18 51.96 8 2.1 100 2.1 3 0 978.6 NA 0.0000 -SN BR 2000 390 0 0 0
2019/04/27 19:32:05 BASE 46.54 14 52.01 5 2.2 100 2.2 3 0 978.9 NA 0.2540 -SN BR 2200 360 0 0 0
2019/04/27 19:33:05 BASE 43.28 5 52.01 5 2.3 100 2.3 4 0 979.3 NA 0.0000 -SN BR 2000 360 0 0 0
2019/04/27 19:34:05 BASE 37.24 6 52.01 5 2.4 100 2.4 4 0 980.1 NA 0.0000 -SN BR 2300 390 0 0 0
2019/04/27 19:35:05 BASE 33.02 10 52.01 5 2.4 100 2.4 4 0 980.7 NA 0.0000 -SN BR 3200 430 0 0 0
2019/04/27 19:36:05 BASE 29.70 8 52.01 5 2.3 100 2.3 4 0 980.7 NA 0.0000 -SN BR 5000 0 0 0 2820
2019/04/27 19:37:05 BASE 28.98 5 52.01 5 2.2 100 2.2 4 0 980.7 NA 0.0000 -SN BR 5000 0 0 0 3180
2019/04/27 19:38:02 BASE 29.84 3 52.01 5 2.0 100 2.0 4 0 980.4 NA 0.0000 -SN BR 5000 0 0 0 2990
2019/04/27 19:39:06 BASE 32.96 360 52.01 5 1.8 100 1.8 3 0 980.0 NA 0.0000 -SN BR 5000 1250 0 0 0
2019/04/27 19:40:05 BASE 33.89 5 52.01 5 1.7 100 1.7 3 0 980.1 NA 0.0000 -SN BR 3900 0 0 0 2890
2019/04/27 19:41:05 BASE 32.91 8 52.01 5 1.6 100 1.6 3 0 980.1 NA 0.0000 -SN BR 3600 0 0 0 3120
2019/04/27 19:42:05 BASE 36.03 8 46.45 6 1.6 100 1.6 3 0 979.4 NA 0.0000 -SN BR 2900 0 0 0 3280
2019/04/27 19:43:06 BASE 37.43 14 46.45 6 1.6 100 1.6 3 0 979.6 NA 0.0000 -SN BR 2400 0 0 0 3510
2019/04/27 19:44:05 BASE 35.34 15 46.45 6 1.6 100 1.6 3 0 979.8 NA 0.0000 -SN BR 2500 620 2530 0 0
2019/04/27 19:45:04 BASE 35.02 12 46.45 6 1.7 100 1.7 3 0 979.7 NA 0.2540 -SN BR 2700 430 0 0 0
2019/04/27 19:46:04 BASE 33.25 11 46.45 6 1.7 100 1.7 3 0 980.1 NA 0.0000 -SN BR 3400 460 0 0 0
2019/04/27 19:47:05 BASE 33.59 12 46.45 6 1.8 100 1.8 3 0 979.8 NA 0.0000 -SN BR 4400 430 0 0 0
2019/04/27 19:48:04 BASE 34.92 13 46.45 6 1.9 100 1.9 3 0 979.8 NA 0.0000 -SN BR 3500 0 0 0 2990
2019/04/27 19:49:05 BASE 35.97 15 46.45 6 1.9 100 1.9 2 0 979.5 NA 0.0000 -SN BR 3100 950 0 0 0
2019/04/27 19:50:04 BASE 37.99 19 46.45 6 1.9 100 1.9 2 0 979.5 NA 0.0000 -SN BR 2700 430 0 0 0
2019/04/27 19:51:06 BASE 38.42 19 46.45 6 1.9 100 1.9 2 0 979.5 NA 0.0000 -SN BR 2500 430 0 0 0
2019/04/27 19:52:05 BASE 39.51 18 47.38 11 1.9 100 1.9 2 0 979.2 NA 0.0000 -SN BR 2500 430 0 0 0
2019/04/27 19:53:02 BASE 40.99 16 48.87 15 1.9 100 1.9 2 0 978.8 NA 0.0000 -SN BR 2200 390 0 0 0
2019/04/27 19:54:05 BASE 42.82 13 48.87 15 2.0 100 2.0 1 0 978.7 NA 0.0000 -SN BR 3400 360 0 0 0
2019/04/27 19:55:05 BASE 42.18 11 50.36 4 2.1 100 2.1 1 0 979.1 NA 0.0000 -SN BR 3700 360 0 0 0
2019/04/27 19:56:05 BASE 38.94 14 50.36 4 2.2 100 2.2 1 0 979.4 NA 0.0000 -SN BR 3900 360 0 0 0
2019/04/27 19:57:05 BASE 39.42 19 50.36 4 2.3 100 2.3 1 0 979.0 NA 0.2540 -SN BR 3800 360 0 0 0
2019/04/27 19:58:02 BASE 40.53 18 50.36 4 2.4 100 2.4 1 0 979.4 NA 0.0000 -SN BR 4000 390 0 0 0
2019/04/27 19:59:06 BASE 35.39 12 50.36 4 2.4 100 2.4 1 0 979.9 NA 0.0000 -SN BR 4900 390 0 0 0
2019/04/27 20:00:02 BASE 34.77 8 50.36 4 2.3 100 2.3 1 0 979.6 NA 0.0000 -SN BR 6000 390 0 0 0
2019/04/27 20:01:05 BASE 35.21 9 50.36 4 2.4 100 2.4 1 0 979.7 NA 0.0000 -SN BR 6000 0 0 0 2950
2019/04/27 20:02:05 BASE 33.14 8 50.36 4 2.4 100 2.4 1 0 979.9 NA 0.0000 -SN BR 7000 390 0 0 0
2019/04/27 20:03:02 BASE 33.24 7 50.36 4 2.3 100 2.3 1 0 979.8 NA 0.0000 -SN BR 7000 0 0 0 3540
2019/04/27 20:04:05 BASE 33.86 11 50.36 4 2.2 100 2.2 1 0 979.9 NA 0.0000 -SN BR 6000 1020 0 0 0
2019/04/27 20:05:05 BASE 35.67 12 47.64 18 2.2 100 2.2 1 0 979.6 NA 0.0000 -SN BR 5000 390 0 0 0
2019/04/27 20:06:05 BASE 35.41 8 47.64 18 2.2 100 2.2 1 0 979.9 NA 0.0000 -SN BR 6000 850 0 0 0
2019/04/27 20:07:05 BASE 34.38 4 45.73 12 2.2 100 2.2 1 0 979.7 NA 0.0000 -SN BR 7000 950 0 0 0
2019/04/27 20:08:01 BASE 35.07 6 45.73 12 2.3 100 2.3 1 0 979.7 NA 0.0000 -SN BR 6000 390 0 0 0
2019/04/27 20:09:06 BASE 36.90 7 45.73 12 2.3 100 2.3 1 0 979.4 NA 0.0000 -SN BR 6000 2030 0 0 0
2019/04/27 20:10:05 BASE 36.61 7 44.19 8 2.4 100 2.4 1 0 979.7 NA 0.0000 -SN BR 7000 720 0 0 0
2019/04/27 20:11:05 BASE 31.60 8 44.19 8 2.4 100 2.4 1 0 980.0 NA 0.0000 -SN BR 9000 390 0 0 0
2019/04/27 20:12:04 BASE 32.97 6 44.19 8 2.4 100 2.4 1 0 979.5 NA 0.0000 -SN BR 7000 2100 0 0 0
2019/04/27 20:13:02 BASE 36.40 1 44.19 8 2.3 100 2.3 1 0 979.5 NA 0.0000 -SN BR 5000 2100 0 0 0
2019/04/27 20:14:06 BASE 35.67 7 44.19 8 2.3 100 2.3 1 0 979.6 NA 0.0000 -SN BR 5000 850 0 0 0
2019/04/27 20:15:02 BASE 35.52 11 44.09 2 2.3 100 2.3 1 0 979.4 NA 0.0000 -SN BR 6000 0 0 0 2460
2019/04/27 20:16:05 BASE 35.84 11 44.09 2 2.3 100 2.3 1 0 979.6 NA 0.0000 -SN BR 6000 0 0 0 2530
2019/04/27 20:17:06 BASE 35.67 14 44.09 2 2.3 100 2.3 1 0 979.6 NA 0.0000 -SN BR 7000 1970 0 0 0
2019/04/27 20:18:02 BASE 35.29 14 44.09 2 2.2 100 2.2 1 0 979.5 NA 0.0000 -SN BR 5000 790 0 0 0
2019/04/27 20:19:05 BASE 35.65 13 42.96 11 2.2 100 2.2 1 0 979.3 NA 0.0000 -SN BR 5000 390 0 0 0
2019/04/27 20:20:05 BASE 36.90 12 42.96 11 2.2 100 2.2 1 0 979.3 NA 0.2540 -SN BR 5000 390 0 0 0
2019/04/27 20:21:01 BASE 35.64 10 42.96 11 2.2 100 2.2 1 0 979.6 NA 0.0000 -SN BR 4700 0 0 0 2330
2019/04/27 20:22:05 BASE 32.76 9 42.96 11 2.2 100 2.2 1 0 979.7 NA 0.0000 -SN BR 5000 0 0 0 2260
2019/04/27 20:23:02 BASE 33.72 6 42.96 11 2.3 100 2.3 0 0 979.4 NA 0.0000 -SN BR 5000 0 0 0 2300
2019/04/27 20:24:04 BASE 36.22 6 42.96 11 2.3 100 2.3 0 0 979.4 NA 0.0000 -SN BR 4400 390 0 0 0
2019/04/27 20:25:05 BASE 36.13 6 42.96 11 2.3 100 2.3 0 0 979.6 NA 0.0000 -SN BR 4700 660 0 0 0
2019/04/27 20:26:05 BASE 34.44 6 42.96 11 2.3 100 2.3 0 0 979.7 NA 0.0000 -SN BR 5000 1970 0 0 0
2019/04/27 20:27:05 BASE 33.01 7 42.96 11 2.3 100 2.3 0 0 979.8 NA 0.0000 -SN BR 7000 390 0 0 0
2019/04/27 20:28:02 BASE 32.74 5 42.96 11 2.3 100 2.3 0 0 979.7 NA 0.0000 -SN BR 7000 660 0 0 0
2019/04/27 20:29:05 BASE 33.46 7 42.70 6 2.3 100 2.3 0 0 979.5 NA 0.0000 -SN BR 6000 0 0 0 2620
2019/04/27 20:30:05 BASE 33.93 8 42.70 6 2.3 100 2.3 0 0 979.6 NA 0.0000 -SN BR 5000 360 0 0 0
2019/04/27 20:31:05 BASE 34.53 10 42.70 6 2.3 100 2.3 0 0 979.5 NA 0.0000 -SN BR 5000 390 0 0 0
2019/04/27 20:32:05 BASE 35.74 10 42.70 6 2.3 100 2.3 0 0 979.5 NA 0.0000 -SN BR 4900 360 0 0 0
2019/04/27 20:33:02 BASE 35.05 10 42.70 6 2.3 100 2.3 0 0 979.7 NA 0.0000 -SN BR 4400 360 0 0 0
2019/04/27 20:34:05 BASE 33.38 8 41.82 350 2.3 100 2.3 0 0 979.6 NA 0.2540 -SN BR 4500 360 0 0 0
2019/04/27 20:35:05 BASE 32.63 8 41.57 8 2.3 100 2.3 0 0 979.7 NA 0.0000 -SN BR 4600 390 1800 0 0
2019/04/27 20:36:04 BASE 32.41 10 41.57 8 2.3 100 2.3 0 0 979.8 NA 0.0000 -SN BR 3900 560 0 0 0
2019/04/27 20:37:07 BASE 31.57 9 41.57 8 2.2 100 2.2 0 0 979.8 NA 0.0000 -SN BR 3900 660 0 0 0
2019/04/27 20:38:05 BASE 31.03 4 41.57 8 2.2 100 2.2 0 0 979.8 NA 0.0000 -SN BR 4800 590 0 0 0
2019/04/27 20:39:05 BASE 32.38 4 41.57 8 2.2 100 2.2 0 0 979.6 NA 0.0000 -SN BR 4400 390 0 0 0
2019/04/27 20:40:05 BASE 32.96 3 41.57 8 2.2 100 2.2 0 0 979.7 NA 0.0000 -SN BR 4500 1280 0 0 0
2019/04/27 20:41:05 BASE 32.26 1 39.87 14 2.2 100 2.2 0 0 979.8 NA 0.0000 -SN BR 5000 430 0 0 0
2019/04/27 20:42:05 BASE 31.39 3 39.20 360 2.2 100 2.2 0 0 979.9 NA 0.0000 -SN BR 4400 430 0 0 0
2019/04/27 20:43:05 BASE 30.06 6 39.20 360 2.2 100 2.2 0 0 979.9 NA 0.0000 -SN BR 3800 430 0 0 0
2019/04/27 20:44:05 BASE 30.70 5 39.20 360 2.2 100 2.2 0 0 979.7 NA 0.0000 -SN BR 4400 430 0 0 0
2019/04/27 20:45:02 BASE 32.97 2 39.20 360 2.2 100 2.2 0 0 979.6 NA 0.2540 -SN BR 5000 360 0 0 0
2019/04/27 20:46:05 BASE 31.91 1 39.20 360 2.1 100 2.1 0 0 979.9 NA 0.0000 -SN BR 4700 390 0 0 0
2019/04/27 20:47:05 BASE 29.88 357 39.20 360 2.1 100 2.1 0 0 979.8 NA 0.0000 -SN BR 6000 0 0 0 2300
2019/04/27 20:48:05 BASE 30.01 0 39.20 360 2.0 100 2.0 0 0 979.8 NA 0.0000 -SN BR 5000 660 0 0 0
2019/04/27 20:49:06 BASE 28.53 359 36.47 1 2.0 100 2.0 0 0 980.0 NA 0.0000 -SN BR 4600 0 0 0 2200
2019/04/27 20:50:04 BASE 28.86 360 36.47 1 2.0 100 2.0 0 0 979.8 NA 0.0000 -SN BR 5000 890 0 0 0
2019/04/27 20:51:05 BASE 30.76 3 36.47 1 2.0 100 2.0 0 0 979.9 NA 0.0000 -SN BR 5000 390 0 0 0
2019/04/27 20:52:06 BASE 29.97 0 36.47 1 2.0 100 2.0 0 0 979.9 NA 0.0000 -SN BR 6000 660 0 0 0
2019/04/27 20:53:06 BASE 30.78 360 39.56 8 2.1 100 2.1 0 0 979.6 NA 0.2540 -SN BR 5000 590 0 0 0
2019/04/27 20:54:04 BASE 31.78 354 39.56 8 2.1 100 2.1 0 0 979.7 NA 0.0000 -SN BR 4200 390 0 0 0
2019/04/27 20:55:05 BASE 30.21 358 39.56 8 2.1 100 2.1 0 0 979.8 NA 0.0000 -SN BR 4100 750 0 0 0
2019/04/27 20:56:05 BASE 28.40 3 39.56 8 2.1 100 2.1 0 0 979.9 NA 0.0000 -SN BR 4800 0 0 0 2200
2019/04/27 20:57:06 BASE 28.15 355 39.56 8 2.1 100 2.1 0 0 979.9 NA 0.0000 -SN BR 9000 0 0 0 2260
2019/04/27 20:58:04 BASE 29.09 358 39.56 8 2.1 100 2.1 0 0 979.8 NA 0.0000 -SN BR 6000 620 0 0 0
2019/04/27 20:59:06 BASE 28.77 4 39.56 8 2.0 100 2.0 0 0 979.9 NA 0.0000 -SN BR 4300 390 0 0 0
2019/04/27 21:00:05 BASE 25.81 358 39.56 8 2.0 100 2.0 0 0 980.1 NA 0.0000 -SN BR 4400 0 0 0 2300
2019/04/27 21:01:06 BASE 25.22 355 39.56 8 2.0 100 2.0 0 0 980.0 NA 0.0000 -SN BR 5000 430 0 0 0
2019/04/27 21:02:07 BASE 25.61 0 39.56 8 2.0 100 2.0 0 0 980.0 NA 0.2540 -SN BR 5000 460 0 0 0
2019/04/27 21:03:01 BASE 25.87 358 37.50 1 2.0 100 2.0 0 0 979.9 NA 0.0000 -SN BR 5000 0 0 0 2200
2019/04/27 21:04:05 BASE 25.57 355 33.23 353 2.0 100 2.0 0 0 980.0 NA 0.0000 -SN BR 8000 1710 0 0 0
2019/04/27 21:05:05 BASE 24.47 354 33.23 353 2.0 100 2.0 0 0 980.0 NA 0.0000 -SN BR 9999 920 0 0 0
2019/04/27 21:06:01 BASE 25.77 355 33.23 353 2.0 100 2.0 0 0 979.9 NA 0.0000 -SN BR 8000 1670 0 0 0
2019/04/27 21:07:06 BASE 26.22 360 32.72 3 2.1 100 2.1 0 0 979.9 NA 0.0000 -SN BR 6000 890 0 0 0
2019/04/27 21:08:01 BASE 24.93 0 31.23 1 2.1 100 2.1 0 0 980.0 NA 0.0000 -SN BR 6000 660 0 0 0
2019/04/27 21:09:06 BASE 23.69 356 31.23 1 2.1 100 2.1 0 0 980.0 NA 0.0000 -SN BR 9000 1020 0 0 0
2019/04/27 21:10:04 BASE 24.21 353 31.23 1 2.1 100 2.1 0 0 979.9 NA 0.0000 -SN BR 9999 720 0 0 0
2019/04/27 21:11:05 BASE 25.13 350 31.23 1 2.2 100 2.2 0 0 979.8 NA 0.0000 -SN BR 9999 660 0 0 0
2019/04/27 21:12:05 BASE 25.91 350 31.74 347 2.2 100 2.2 0 0 979.8 NA 0.2540 -SN BR 9999 390 0 0 0
2019/04/27 21:13:01 BASE 27.13 349 35.09 342 2.2 100 2.2 0 0 979.8 NA 0.0000 -SN BR 9999 0 0 0 2400
2019/04/27 21:14:05 BASE 28.57 349 35.09 342 2.2 100 2.2 0 0 979.6 NA 0.0000 -SN BR 9999 920 0 0 0
2019/04/27 21:15:04 BASE 27.08 351 35.09 342 2.2 100 2.2 0 0 979.8 NA 0.0000 -SN BR 9999 0 0 0 2850
2019/04/27 21:16:05 BASE 25.14 351 35.09 342 2.3 100 2.2 0 0 979.8 NA 0.0000 -SN BR 9000 0 0 0 2590
2019/04/27 21:17:05 BASE 25.59 350 35.09 342 2.3 100 2.3 0 0 979.8 NA 0.0000 -SN BR 9999 0 0 0 2430
2019/04/27 21:18:02 BASE 26.57 350 35.09 342 2.2 100 2.2 0 0 979.7 NA 0.0000 -SN 9999 790 0 0 0
2019/04/27 21:19:05 BASE 28.33 349 35.09 342 2.2 100 2.2 0 0 979.6 NA 0.0000 -SN 9000 660 0 0 0
2019/04/27 21:20:04 BASE 28.27 348 35.09 342 2.2 100 2.2 0 0 979.7 NA 0.0000 -SN 9000 1020 0 0 0
2019/04/27 21:21:05 BASE 27.40 346 35.09 342 2.2 100 2.2 0 0 979.7 NA 0.0000 -SN 9999 750 0 0 0
2019/04/27 21:22:05 BASE 27.97 348 35.09 342 2.2 100 2.2 0 0 979.7 NA 0.2540 -SN 9999 590 0 0 0
2019/04/27 21:23:01 BASE 30.16 354 36.89 355 2.2 100 2.2 0 0 979.4 NA 0.0000 -SN BR 6000 0 0 0 2760
2019/04/27 21:24:05 BASE 30.02 351 36.89 355 2.2 100 2.2 0 0 979.6 NA 0.0000 -SN BR 5000 560 0 0 0
2019/04/27 21:25:06 BASE 27.44 348 36.89 355 2.1 100 2.1 0 0 979.6 NA 0.0000 -SN BR 6000 430 0 0 0
2019/04/27 21:26:04 BASE 27.82 351 36.89 355 2.1 100 2.1 0 0 979.6 NA 0.0000 -SN BR 7000 790 0 0 0
2019/04/27 21:27:05 BASE 29.16 350 36.89 355 2.1 100 2.1 0 0 979.5 NA 0.0000 -SN BR 5000 1740 0 0 0
2019/04/27 21:28:01 BASE 29.00 347 36.89 355 2.1 100 2.1 0 0 979.5 NA 0.0000 -SN BR 5000 590 0 0 0
2019/04/27 21:29:05 BASE 28.02 350 36.89 355 2.1 100 2.1 0 0 979.6 NA 0.2540 -SN BR 4600 590 0 0 0
2019/04/27 21:30:04 BASE 27.43 349 36.89 355 2.1 100 2.1 0 0 979.6 NA 0.0000 -SN BR 5000 590 0 0 0
2019/04/27 21:31:06 BASE 28.15 348 36.89 355 2.1 100 2.1 0 0 979.5 NA 0.0000 -SN BR 9999 620 0 0 0
2019/04/27 21:32:05 BASE 29.19 349 36.89 355 2.2 100 2.2 0 0 979.5 NA 0.0000 -SN BR 9000 430 0 0 0
2019/04/27 21:33:02 BASE 29.21 348 34.93 346 2.2 100 2.2 0 0 979.5 NA 0.0000 -SN BR 5000 430 0 0 0
2019/04/27 21:34:04 BASE 28.18 348 34.93 346 2.2 100 2.2 0 0 979.6 NA 0.0000 -SN BR 4900 430 0 0 0
2019/04/27 21:35:04 BASE 27.24 349 34.93 346 2.2 100 2.2 0 0 979.6 NA 0.2540 -SN BR 4600 430 0 0 0
2019/04/27 21:36:05 BASE 28.11 351 35.45 353 2.1 100 2.1 0 0 979.5 NA 0.0000 -SN BR 4400 560 0 0 0
2019/04/27 21:37:05 BASE 28.56 352 35.45 353 2.1 100 2.1 0 0 979.6 NA 0.0000 -SN BR 5000 490 0 0 0
2019/04/27 21:38:02 BASE 28.88 350 35.45 353 2.1 100 2.1 0 0 979.5 NA 0.0000 -SN BR 5000 660 0 0 0
2019/04/27 21:39:05 BASE 28.33 352 35.45 353 2.1 100 2.1 0 0 979.6 NA 0.0000 -SN BR 5000 720 0 0 0
2019/04/27 21:40:05 BASE 26.79 355 35.45 353 2.1 100 2.1 0 0 979.6 NA 0.0000 -SN BR 8000 660 0 0 0
2019/04/27 21:41:05 BASE 26.49 354 35.45 353 2.1 100 2.1 0 0 979.6 NA 0.2540 -SN BR 9999 660 0 0 0
2019/04/27 21:42:05 BASE 28.11 349 35.45 353 2.1 100 2.1 0 0 979.5 NA 0.0000 -SN BR 6000 590 0 0 0
2019/04/27 21:43:01 BASE 27.95 348 35.45 353 2.1 100 2.1 0 0 979.6 NA 0.0000 -SN BR 7000 590 0 0 0
2019/04/27 21:44:05 BASE 25.80 352 35.45 353 2.1 100 2.1 0 0 979.7 NA 0.0000 -SN BR 9999 590 0 0 0
2019/04/27 21:45:05 BASE 25.89 353 35.45 353 2.0 100 2.0 0 0 979.7 NA 0.0000 -SN BR 9999 390 0 0 0
2019/04/27 21:46:05 BASE 26.87 354 34.93 349 2.0 100 2.0 0 0 979.7 NA 0.0000 -SN BR 9000 360 0 0 0
2019/04/27 21:47:06 BASE 26.23 359 34.93 349 2.1 100 2.1 0 0 979.7 NA 0.0000 -SN BR 9999 390 0 0 0
2019/04/27 21:48:02 BASE 27.46 355 34.93 349 2.0 100 2.0 0 0 979.6 NA 0.2540 -SN BR 8000 360 0 0 0
2019/04/27 21:49:06 BASE 29.93 352 34.93 349 2.1 100 2.1 0 0 979.5 NA 0.0000 -SN BR 6000 360 0 0 0
2019/04/27 21:50:04 BASE 28.75 353 34.93 349 2.1 100 2.1 0 0 979.7 NA 0.0000 -SN BR 6000 390 0 0 0
2019/04/27 21:51:05 BASE 29.38 355 34.93 349 2.1 100 2.1 0 0 979.5 NA 0.0000 -SN BR 7000 390 0 0 0
2019/04/27 21:52:05 BASE 30.37 354 34.21 339 2.1 100 2.1 0 0 979.6 NA 0.0000 -SN BR 6000 620 0 0 0
2019/04/27 21:53:02 BASE 27.91 351 34.21 339 2.1 100 2.1 0 0 979.8 NA 0.0000 -SN BR 4500 620 0 0 0
2019/04/27 21:54:05 BASE 28.40 348 34.42 355 2.1 100 2.1 0 0 979.6 NA 0.2540 -SN BR 4900 660 0 0 0
2019/04/27 21:55:06 BASE 29.28 349 34.42 355 2.0 100 2.0 0 0 979.7 NA 0.0000 -SN BR 7000 430 0 0 0
2019/04/27 21:56:05 BASE 27.03 353 34.42 355 2.0 100 2.0 0 0 979.8 NA 0.0000 -SN BR 9999 660 0 0 0
2019/04/27 21:57:06 BASE 26.12 355 34.42 355 2.0 100 2.0 0 0 979.8 NA 0.0000 -SN BR 9999 560 0 0 0
2019/04/27 21:58:02 BASE 26.24 355 34.42 355 2.0 100 2.0 0 0 979.8 NA 0.0000 -SN BR 9000 430 0 0 0
2019/04/27 21:59:07 BASE 26.91 353 34.42 355 2.0 100 2.0 0 0 979.7 NA 0.0000 -SN BR 8000 390 0 0 0
2019/04/27 22:00:01 BASE 28.43 349 34.42 355 2.0 100 2.0 0 0 979.7 NA 0.0000 -SN BR 8000 360 0 0 0
2019/04/27 22:01:05 BASE 28.72 351 34.42 355 2.0 100 2.0 0 0 979.7 NA 0.0000 -SN BR 5000 360 0 0 0
2019/04/27 22:02:05 BASE 28.08 353 34.42 355 2.0 100 2.0 0 0 979.8 NA 0.2540 -SN BR 6000 390 0 0 0
2019/04/27 22:03:01 BASE 28.78 351 34.42 355 2.0 100 2.0 0 0 979.7 NA 0.0000 -SN BR 9999 430 0 0 0
2019/04/27 22:04:05 BASE 29.25 352 33.23 279 2.0 100 2.0 0 0 979.7 NA 0.0000 -SN BR 9999 390 0 0 0
2019/04/27 22:05:06 BASE 27.94 353 33.23 279 2.0 100 2.0 0 0 979.8 NA 0.0000 -SN BR 8000 390 0 0 0
2019/04/27 22:06:05 BASE 27.45 351 33.23 279 2.0 100 2.0 0 0 979.8 NA 0.0000 -SN BR 6000 430 0 0 0
2019/04/27 22:07:05 BASE 26.79 351 33.23 279 2.0 100 2.0 0 0 979.8 NA 0.0000 -SN BR 8000 430 0 0 0
2019/04/27 22:08:01 BASE 26.36 354 33.23 279 2.0 100 2.0 0 0 979.8 NA 0.0000 -SN BR 9999 390 0 0 0
2019/04/27 22:09:06 BASE 27.56 355 33.23 279 2.0 100 2.0 0 0 979.7 NA 0.0000 -SN BR 9999 360 0 0 0
2019/04/27 22:10:04 BASE 28.36 350 32.72 132 2.0 100 2.0 0 0 979.7 NA 0.0000 -SN BR 9999 390 0 0 0
2019/04/27 22:11:05 BASE 28.72 348 32.72 132 2.0 100 2.0 0 0 979.7 NA 0.0000 -SN BR 8000 390 0 0 0
2019/04/27 22:12:04 BASE 28.09 350 32.72 132 2.0 100 2.0 0 0 979.8 NA 0.0000 -SN BR 8000 1020 0 0 0
2019/04/27 22:13:01 BASE 25.96 355 32.41 347 1.9 100 1.9 0 0 979.8 NA 0.0000 -SN BR 9999 1050 0 0 0
2019/04/27 22:14:05 BASE 26.08 353 32.41 347 1.9 100 1.9 0 0 979.7 NA 0.2540 -SN BR 9999 950 0 0 0
2019/04/27 22:15:04 BASE 28.13 349 32.92 351 1.9 100 1.9 0 0 979.7 NA 0.0000 -SN BR 6000 750 0 0 0
2019/04/27 22:16:05 BASE 27.03 351 32.92 351 1.9 100 1.9 0 0 979.8 NA 0.0000 -SN BR 5000 1020 0 0 0
2019/04/27 22:17:06 BASE 25.95 350 32.92 351 1.9 100 1.9 0 0 979.7 NA 0.0000 -SN BR 7000 950 0 0 0
2019/04/27 22:18:01 BASE 27.50 348 32.92 351 1.9 100 1.9 0 0 979.7 NA 0.0000 -SN BR 9999 980 0 0 0
2019/04/27 22:19:05 BASE 28.16 353 32.92 351 1.9 100 1.9 0 0 979.7 NA 0.0000 -SN BR 9999 950 0 0 0
2019/04/27 22:20:05 BASE 27.91 353 32.92 351 1.9 100 1.9 0 0 979.7 NA 0.0000 -SN BR 9999 890 0 0 0
2019/04/27 22:21:06 BASE 27.88 350 32.92 351 1.9 100 1.9 0 0 979.7 NA 0.0000 -SN BR 9999 890 0 0 0
2019/04/27 22:22:05 BASE 26.24 353 32.92 351 1.9 100 1.9 0 0 979.9 NA 0.0000 -SN BR 9999 820 0 0 0
2019/04/27 22:23:01 BASE 26.35 352 32.92 351 1.9 100 1.9 0 0 979.7 NA 0.0000 -SN BR 9999 820 0 0 0
2019/04/27 22:24:06 BASE 26.54 349 32.92 351 1.9 100 1.9 0 0 979.9 NA 0.0000 -SN BR 9999 820 0 0 0
2019/04/27 22:25:05 BASE 27.02 349 32.72 4 1.9 100 1.9 0 0 979.7 NA 0.0000 -SN 9999 430 0 0 0
2019/04/27 22:26:05 BASE 28.49 350 32.72 4 2.0 100 2.0 0 0 979.7 NA 0.0000 -SN 9999 820 0 0 0
2019/04/27 22:27:05 BASE 28.86 350 34.26 353 2.0 100 2.0 0 0 979.6 NA 0.0000 -SN 9999 850 0 0 0
2019/04/27 22:28:01 BASE 30.39 352 34.26 353 2.0 100 2.0 0 0 979.5 NA 0.0000 -SN 9999 850 0 0 0
2019/04/27 22:29:04 BASE 29.83 354 34.26 353 2.0 100 2.0 0 0 979.7 NA 0.0000 -SN 7000 820 0 0 0
2019/04/27 22:30:05 BASE 29.42 352 34.26 353 2.0 100 2.0 0 0 979.6 NA 0.2540 -SN 8000 790 0 0 0
2019/04/27 22:31:04 BASE 28.37 350 34.26 353 2.0 100 2.0 0 0 979.8 NA 0.0000 -SN 9999 750 0 0 0
2019/04/27 22:32:05 BASE 26.55 351 34.26 353 2.0 100 2.0 0 0 979.8 NA 0.0000 -SN 9999 790 0 0 0
2019/04/27 22:33:05 BASE 28.03 353 34.26 353 2.0 100 2.0 0 0 979.6 NA 0.0000 -SN 9999 720 0 0 0
2019/04/27 22:34:05 BASE 27.83 356 34.26 353 2.0 100 2.0 0 0 979.8 NA 0.0000 -SN 8000 820 0 0 0
2019/04/27 22:35:06 BASE 26.96 352 34.26 353 2.0 100 2.0 0 0 979.8 NA 0.0000 -SN 9999 750 0 0 0
2019/04/27 22:36:05 BASE 27.24 349 34.26 353 2.0 100 2.0 0 0 979.8 NA 0.0000 -SN BR 8000 850 0 0 0
2019/04/27 22:37:06 BASE 26.84 352 33.80 351 1.9 100 1.9 0 0 979.8 NA 0.0000 -SN BR 6000 750 0 0 0
2019/04/27 22:38:01 BASE 26.92 354 33.54 352 1.9 100 1.9 0 0 979.8 NA 0.0000 -SN BR 9000 820 0 0 0
2019/04/27 22:39:06 BASE 26.88 353 33.54 352 1.9 100 1.9 0 0 979.8 NA 0.0000 -SN BR 9999 690 0 0 0
2019/04/27 22:40:04 BASE 25.99 353 33.54 352 1.9 100 1.9 0 0 979.9 NA 0.0000 -SN 9999 620 0 0 0
2019/04/27 22:41:06 BASE 25.71 352 33.54 352 1.9 100 1.9 0 0 979.9 NA 0.0000 -SN 9999 720 0 0 0
2019/04/27 22:42:05 BASE 27.38 351 32.20 343 1.9 100 1.9 0 0 979.7 NA 0.0000 -SN 9999 690 0 0 0
2019/04/27 22:43:01 BASE 28.12 348 32.20 343 1.9 100 1.9 0 0 979.7 NA 0.0000 -SN 9999 750 0 0 0
2019/04/27 22:44:05 BASE 26.86 349 32.20 343 1.9 100 1.9 0 0 979.9 NA 0.2540 -SN 9999 720 0 0 0
2019/04/27 22:45:06 BASE 27.14 350 32.20 343 1.8 100 1.8 0 0 979.7 NA 0.0000 -SN 9999 790 0 0 0
2019/04/27 22:46:05 BASE 28.01 351 32.31 346 1.9 100 1.9 0 0 979.7 NA 0.0000 -SN 9999 720 0 0 0
2019/04/27 22:47:05 BASE 28.26 352 32.31 346 1.9 100 1.9 0 0 979.7 NA 0.0000 -SN 9999 690 0 0 0
2019/04/27 22:48:05 BASE 27.71 350 32.31 346 1.9 100 1.9 0 0 979.8 NA 0.0000 -SN 9000 720 0 0 0
2019/04/27 22:49:06 BASE 27.00 354 32.31 346 1.9 100 1.9 0 0 979.8 NA 0.0000 -SN 9999 690 0 0 0
2019/04/27 22:50:04 BASE 27.88 355 32.31 346 1.9 100 1.9 0 0 979.8 NA 0.0000 -SN 9999 790 0 0 0
2019/04/27 22:51:05 BASE 27.88 351 32.31 346 1.9 100 1.9 0 0 979.8 NA 0.0000 -SN 9999 790 0 0 0
2019/04/27 22:52:05 BASE 26.98 348 32.31 346 1.9 100 1.9 0 0 979.8 NA 0.0000 -SN 9999 720 0 0 0
2019/04/27 22:53:02 BASE 26.25 346 32.31 346 1.9 100 1.9 0 0 979.8 NA 0.0000 -SN 9999 720 0 0 0
2019/04/27 22:54:04 BASE 27.23 349 33.75 352 1.9 100 1.9 0 0 979.6 NA 0.0000 -SN 9999 620 0 0 0
2019/04/27 22:55:05 BASE 27.10 352 33.75 352 1.9 100 1.9 0 0 979.8 NA 0.0000 -SN 9999 560 0 0 0
2019/04/27 22:56:05 BASE 26.48 351 33.75 352 1.9 100 1.9 0 0 979.7 NA 0.0000 -SN 9999 520 0 0 0
2019/04/27 22:57:05 BASE 27.00 353 33.75 352 1.9 100 1.9 0 0 979.8 NA 0.0000 -SN 9999 430 0 0 0
2019/04/27 22:58:02 BASE 25.30 354 33.75 352 1.9 100 1.9 0 0 979.9 NA 0.0000 -SN 9999 390 0 0 0
2019/04/27 22:59:06 BASE 23.81 352 33.75 352 1.9 100 1.9 0 0 979.9 NA 0.0000 -SN 9999 360 0 0 0
2019/04/27 23:00:02 BASE 23.88 353 33.75 352 1.9 100 1.9 0 0 979.8 NA 0.0000 9999 360 0 0 0
2019/04/27 23:01:05 BASE 25.35 351 33.75 352 1.9 100 1.9 0 0 979.8 NA 0.0000 -SN 9999 360 0 0 0
2019/04/27 23:02:05 BASE 26.17 353 33.75 352 1.9 100 1.9 0 0 979.8 NA 0.0000 9999 360 0 0 0
2019/04/27 23:03:02 BASE 27.15 352 33.75 352 1.9 100 1.9 0 0 979.6 NA 0.0000 9999 330 0 0 0
2019/04/27 23:04:05 BASE 27.88 351 32.82 340 1.9 100 1.9 0 0 979.7 NA 0.0000 9999 330 0 0 0
2019/04/27 23:05:05 BASE 28.00 352 32.82 340 1.9 100 1.9 0 0 979.6 NA 0.0000 -SN 9999 330 0 0 0
2019/04/27 23:06:05 BASE 28.16 352 32.82 340 1.9 100 1.9 0 0 979.7 NA 0.2540 -SN 9999 330 0 0 0
2019/04/27 23:07:05 BASE 27.22 356 32.82 340 1.9 100 1.9 0 0 979.7 NA 0.0000 -SN 9999 330 0 0 0
2019/04/27 23:08:01 BASE 26.25 351 32.82 340 1.9 100 1.9 0 0 979.7 NA 0.0000 -SN 9999 330 0 0 0
2019/04/27 23:09:06 BASE 26.36 351 32.82 340 1.9 100 1.9 0 0 979.7 NA 0.0000 -SN 9999 330 0 0 0
2019/04/27 23:10:04 BASE 26.85 353 32.82 340 1.9 100 1.9 0 0 979.7 NA 0.0000 -SN 9999 330 0 0 0
2019/04/27 23:11:04 BASE 27.62 350 32.82 340 1.9 100 1.9 0 0 979.6 NA 0.0000 -SN 9000 360 0 0 0
2019/04/27 23:12:05 BASE 27.22 353 32.82 340 1.9 100 1.9 0 0 979.7 NA 0.0000 -SN 9999 360 0 0 0
2019/04/27 23:13:04 BASE 27.08 355 32.56 350 1.9 100 1.9 0 0 979.6 NA 0.0000 -SN 9999 360 0 0 0
2019/04/27 23:14:06 BASE 26.92 359 32.56 350 1.9 100 1.9 0 0 979.7 NA 0.0000 -SN 9999 360 0 0 0
2019/04/27 23:15:05 BASE 26.62 1 32.56 350 1.9 100 1.9 0 0 979.6 NA 0.0000 -SN 9000 390 0 0 0
2019/04/27 23:16:05 BASE 27.12 358 32.46 352 1.9 100 1.9 0 0 979.7 NA 0.0000 -SN 9999 360 0 0 0
2019/04/27 23:17:05 BASE 27.73 352 32.46 352 1.9 100 1.9 0 0 979.6 NA 0.0000 -SN 9999 360 0 0 0
2019/04/27 23:18:02 BASE 27.80 350 32.46 352 2.0 100 2.0 0 0 979.7 NA 0.0000 -SN 9999 330 0 0 0
2019/04/27 23:19:05 BASE 26.17 350 32.46 352 2.0 100 2.0 0 0 979.7 NA 0.0000 -SN 9999 330 0 0 0
2019/04/27 23:20:04 BASE 26.30 350 32.46 352 2.0 100 2.0 0 0 979.6 NA 0.0000 -SN 9999 330 0 0 0
2019/04/27 23:21:05 BASE 26.74 349 32.46 352 2.0 100 2.0 0 0 979.7 NA 0.0000 -SN 9999 330 0 0 0
2019/04/27 23:22:05 BASE 27.72 350 32.46 342 2.0 100 2.0 0 0 979.5 NA 0.0000 -SN 9999 330 0 0 0
2019/04/27 23:23:06 BASE 27.80 353 32.46 342 2.0 100 2.0 0 0 979.7 NA 0.2540 -SN 9999 330 0 0 0
2019/04/27 23:24:05 BASE 26.79 349 32.46 342 2.0 100 2.0 0 0 979.7 NA 0.0000 -SN 9999 330 0 0 0
2019/04/27 23:25:06 BASE 27.15 348 32.46 342 2.0 100 2.0 0 0 979.6 NA 0.0000 -SN 9999 330 0 0 0
2019/04/27 23:26:04 BASE 26.46 353 32.46 342 2.0 100 2.0 0 0 979.7 NA 0.0000 -SN 9999 300 0 0 0
2019/04/27 23:27:05 BASE 26.26 352 32.46 342 2.0 100 2.0 0 0 979.7 NA 0.0000 -SN 9999 300 0 0 0
2019/04/27 23:28:01 BASE 26.86 352 32.46 342 2.0 100 2.0 0 0 979.7 NA 0.0000 9999 300 0 0 0
2019/04/27 23:29:05 BASE 26.82 353 32.46 342 2.0 100 2.0 0 0 979.7 NA 0.0000 9999 300 0 0 0
2019/04/27 23:30:04 BASE 26.48 351 32.46 342 2.0 100 2.0 0 0 979.7 NA 0.0000 -SN 9999 260 0 0 0
2019/04/27 23:31:05 BASE 25.53 348 32.46 342 2.0 100 2.0 0 0 979.8 NA 0.0000 -SN 9999 260 0 0 0
2019/04/27 23:32:05 BASE 24.54 349 32.41 351 2.0 100 2.0 0 0 979.8 NA 0.0000 9999 260 0 0 0
2019/04/27 23:33:01 BASE 26.23 353 32.41 351 2.0 100 2.0 0 0 979.6 NA 0.0000 9999 260 0 0 0
2019/04/27 23:34:05 BASE 27.06 356 32.41 351 2.0 100 2.0 0 0 979.7 NA 0.0000 9999 260 0 0 0
2019/04/27 23:35:05 BASE 26.31 357 31.54 354 2.0 100 2.0 0 0 979.6 NA 0.0000 -SN 9999 260 0 0 0
2019/04/27 23:36:04 BASE 28.09 355 34.36 351 2.0 100 2.0 0 0 979.6 NA 0.0000 -SN 9999 300 0 0 0
2019/04/27 23:37:05 BASE 28.43 353 34.36 351 2.0 100 2.0 0 0 979.7 NA 0.0000 -SN 7000 330 0 0 0
2019/04/27 23:38:01 BASE 28.10 351 34.36 351 2.0 100 2.0 0 0 979.6 NA 0.2540 -SN BR 6000 360 0 0 0
2019/04/27 23:39:05 BASE 29.27 351 34.36 351 2.0 100 2.0 0 0 979.6 NA 0.0000 -SN BR 8000 360 0 0 0
2019/04/27 23:40:04 BASE 27.93 351 34.36 351 2.0 100 2.0 0 0 979.7 NA 0.0000 -SN BR 8000 390 0 0 0
2019/04/27 23:41:05 BASE 27.03 350 34.36 351 2.0 100 2.0 0 0 979.7 NA 0.0000 -SN BR 9999 390 0 0 0
2019/04/27 23:42:05 BASE 26.40 350 34.36 351 2.0 100 2.0 0 0 979.8 NA 0.0000 -SN BR 9999 390 0 0 0
2019/04/27 23:43:01 BASE 26.90 353 34.36 351 1.9 100 1.9 0 0 979.7 NA 0.0000 -SN BR 9999 390 0 0 0
2019/04/27 23:44:05 BASE 28.36 352 34.36 351 1.9 100 1.9 0 0 979.7 NA 0.0000 -SN BR 9999 620 0 0 0
2019/04/27 23:45:05 BASE 27.96 349 34.36 351 1.9 100 1.9 0 0 979.7 NA 0.0000 -SN BR 9000 620 0 0 0
2019/04/27 23:46:04 BASE 26.70 346 33.13 352 1.9 100 1.9 0 0 979.8 NA 0.2540 -SN BR 9999 620 0 0 0
2019/04/27 23:47:06 BASE 26.52 348 33.13 352 1.9 100 1.9 0 0 979.7 NA 0.0000 -SN BR 9999 750 0 0 0
2019/04/27 23:48:01 BASE 26.20 350 33.13 352 1.8 100 1.8 0 0 979.8 NA 0.0000 -SN 9999 790 0 0 0
2019/04/27 23:49:05 BASE 26.59 350 31.90 349 1.8 100 1.8 0 0 979.7 NA 0.0000 -SN 9999 590 0 0 0
2019/04/27 23:50:04 BASE 25.46 346 31.90 349 1.8 100 1.8 0 0 979.9 NA 0.0000 -SN 9999 590 0 0 0
2019/04/27 23:51:05 BASE 24.41 345 31.90 349 1.8 100 1.8 0 0 979.8 NA 0.0000 -SN 9999 430 0 0 0
2019/04/27 23:52:05 BASE 26.14 348 31.90 349 1.8 100 1.8 0 0 979.7 NA 0.0000 -SN 9999 660 0 0 0
2019/04/27 23:53:05 BASE 28.22 349 32.05 353 1.8 100 1.8 0 0 979.6 NA 0.0000 -SN 9999 620 0 0 0
2019/04/27 23:54:05 BASE 28.91 350 32.05 353 1.8 100 1.8 0 0 979.7 NA 0.0000 -SN 9000 430 0 0 0
2019/04/27 23:55:06 BASE 26.87 351 32.05 353 1.8 100 1.8 0 0 979.8 NA 0.0000 -SN 8000 560 0 0 0
2019/04/27 23:56:05 BASE 27.13 350 32.77 351 1.8 100 1.8 0 0 979.7 NA 0.0000 -SN 9999 390 0 0 0
2019/04/27 23:57:05 BASE 28.74 348 32.77 351 1.8 100 1.8 0 0 979.7 NA 0.0000 -SN 9999 360 0 0 0
2019/04/27 23:58:05 BASE 27.19 349 32.77 351 1.8 100 1.8 0 0 979.7 NA 0.0000 -SN 9000 390 0 0 0
2019/04/27 23:59:07 BASE 25.85 349 32.77 351 1.8 100 1.8 0 0 979.7 NA 0.2540 -SN 9000 390 0 0 0